     2              OBSERVATION DATA    GPS                 RINEX VERSION / TYPE
teqc 2000Jul20 Karen Wendt 20030408 21:40:06UTC             PGM / RUN BY / DATE
                                                            COMMENT
L2: 1 -> 1; 150 -> 5; 250 -> 9                              COMMENT
L2: 1 -> 1; 150 -> 5; 250 -> 9                              COMMENT
L2: 1 -> 1; 150 -> 5; 250 -> 9                              COMMENT
L2: 1 -> 1; 150 -> 5; 250 -> 9                              COMMENT
L2: 1 -> 1; 150 -> 5; 250 -> 9                              COMMENT
L2: 1 -> 1; 150 -> 5; 250 -> 9                              COMMENT
L2: 1 -> 1; 150 -> 5; 250 -> 9                              COMMENT
L2: 1 -> 1; 150 -> 5; 250 -> 9                              COMMENT
L2: 1 -> 1; 150 -> 5; 250 -> 9                              COMMENT
L2: 1 -> 1; 150 -> 5; 250 -> 9                              COMMENT
L2: 1 -> 1; 150 -> 5; 250 -> 9                              COMMENT
L2: 1 -> 1; 150 -> 5; 250 -> 9                              COMMENT
L2: 1 -> 1; 150 -> 5; 250 -> 9                              COMMENT
L2: 1 -> 1; 150 -> 5; 250 -> 9                              COMMENT
Original Marker Name: pk59 Park_1959_DWR                    COMMENT
Campaign Name: USGS 2003                                    COMMENT
4-Character Station Name: PK59                              COMMENT
6-Character Antenna Code: DMRCHT                            COMMENT
Vertical Measurement Point: BCR                             COMMENT
Vertical Offset to Rinex Ref. Point: 0.0348                 COMMENT
Radial Measurement Point: ECF                               COMMENT
Radial Offset to Rinex Ref. Point: 0.1897                   COMMENT
Antenna Height from Field Measurement: 1.1230 m             COMMENT
Additional Antenna Identification Info.:                    COMMENT
Turborogue and Ashtech Choke Ring                           COMMENT
Original XYZ: -2610602.5391 -4466477.2028 3719283.3406      COMMENT
New XYZ position is based on association with SCEC monument COMMENT
E1F1N3K5+0011. Position of that monument is believed to be  COMMENT
valid to within 1 m horizontally; vertical accuracy         COMMENT
should be no worse than 3-times this value.                 COMMENT
                                                            COMMENT
Revised Rinex header created by UCSD GPS archive for        COMMENT
GSAC on 11-Jul-2003 (2003:192) 16:26:55 GMT                 COMMENT
For assistance contact dagnew@ucsd.edu                      COMMENT
or anderson@python.ucsd.edu                                 COMMENT
                                                            COMMENT
PARK 1959                                                   MARKER NAME
JMS US GEOLOGICAL SURVEY                                    OBSERVER / AGENCY
LP00108.707 ASHTECH Z-XII3 CD00                             REC # / TYPE / VERS
CR519993706 DORNE-MARGOL. TYPE T                            ANT # / TYPE
 -2610615.7544 -4466448.1790  3719270.3964                  APPROX POSITION XYZ
        1.0721        0.0000        0.0000                  ANTENNA: DELTA H/E/N
     1     1     0                                          WAVELENGTH FACT L1/2
     5    C1    L1    L2    P1    P2                        # / TYPES OF OBSERV
    30                                                      INTERVAL
  2003     4     2     0     1    0.000000                  TIME OF FIRST OBS
  2003     4     2    23    59   30.000000                  TIME OF LAST OBS
                                                            END OF HEADER
 03  4  2  0  1  0.0000000  0  9G18G17G15G14G31G26G23G 9G 3
  20573179.402   -12976823.54349 -10098324.30548  20573178.845    20573185.515
  21403421.701      -51690.68149     -8011.60147  21403420.990    21403430.005
  20251182.722   -16080103.95949 -12523651.81948  20251181.889    20251189.968
  22497088.769   -12945661.60449 -10071675.07646  22497088.190    22497098.690
  23989380.266    -4090602.61949  -3168477.85245  23989379.768    23989391.623
  24314256.745     7980319.99349   6344574.09845  24314256.780    24314268.107
  21225027.467    -5658879.53549  -4396838.64247  21225026.780    21225034.864
  24162812.167    -4721322.75649  -3670616.89645  24162811.815    24162825.627
  22075776.657   -16199421.60749 -12409226.05847  22075776.228    22075785.426
 03  4  2  0  1 30.0000000  0  9G18G17G15G14G31G26G23G 9G 3
  20578230.963   -12950277.43649 -10077639.01648  20578230.407    20578237.086
  21411610.920       -8656.41549     25521.57547  21411610.151    21411619.156
  20249727.934   -16087748.75149 -12529608.77848  20249727.106    20249735.197
  22478003.126   -13045956.34849 -10149826.56346  22478002.603    22478012.981
  23972698.927    -4178263.37649  -3236784.74345  23972698.367    23972710.174
  24334797.577     8088262.61649   6428685.21145  24334797.460    24334808.896
  21232756.263    -5618264.40149  -4365190.48047  21232755.579    21232763.622
  24151858.706    -4778882.38349  -3715468.29145  24151858.227    24151872.137
  22066694.536   -16247148.56049 -12446415.83347  22066694.106    22066703.257
 03  4  2  0  2  0.0000000  0  9G18G17G15G14G31G26G23G 9G 3
  20583335.498   -12923452.84149 -10056736.72348  20583334.934    20583341.646
  21419857.182       34678.05849     59288.68447  21419856.432    21419865.446
  20248334.889   -16095068.98249 -12535312.83048  20248334.090    20248342.167
  22458968.552   -13145982.87849 -10227769.07246  22458968.011    22458978.268
  23956080.309    -4265594.02749  -3304834.40845  23956079.751    23956091.467
  24355381.010     8196429.21349   6512970.82345  24355380.811    24355392.339
  21240518.761    -5577472.21749  -4333404.36447  21240518.065    21240526.113
  24140968.120    -4836111.12749  -3760061.84845  24140967.756    24140981.441
  22057708.134   -16294372.07649 -12483213.31847  22057707.687    22057716.861
 03  4  2  0  2 30.0000000  0  9G18G17G15G14G31G26G23G 9G 3
  20588492.807   -12896351.04149 -10035618.42448  20588492.213    20588498.925
  21428160.586       78312.71649     93289.69847  21428159.874    21428168.883
  20247003.824   -16102063.67749 -12540763.21948  20247003.041    20247011.104
  22439985.492   -13245738.78549 -10305500.69946  22439984.892    22439995.057
  23939525.035    -4352592.09549  -3372624.92145  23939524.452    23939536.083
  24376006.612     8304816.61849   6597428.47745  24376006.422    24376017.806
  21248314.650    -5536504.39549  -4301481.38047  21248313.988    21248322.043
  24130141.152    -4893006.01849  -3804395.29045  24130140.832    24130154.475
  22048817.874   -16341090.50049 -12519617.22547  22048817.402    22048826.636
 03  4  2  0  3  0.0000000  0  9G18G17G15G14G31G26G23G 9G 3
  20593702.673   -12868972.94949 -10014284.82848  20593702.087    20593708.797
  21436521.304      122248.46549    127525.32747  21436520.586    21436529.597
  20245735.029   -16108731.19549 -12545958.66548  20245734.240    20245742.288
  22421054.448   -13345220.72749 -10383018.86446  22421053.928    22421064.047
  23923033.501    -4439254.47149  -3440153.88945  23923032.940    23923044.557
  24396673.500     8413422.46149   6682056.38745  24396673.553    24396684.734
  21256143.844    -5495361.86449  -4269422.26747  21256143.128    21256151.204
  24119378.433    -4949563.65249  -3848465.93145  24119378.013    24119391.514
  22040024.068   -16387301.62749 -12555625.83247  22040023.639    22040032.937
 03  4  2  0  3 30.0000000  0  9G18G17G15G14G31G26G23G 9G 3
  20598964.724   -12841320.39449  -9992737.37148  20598964.184    20598970.849
  21444939.263      166484.90149    161995.25647  21444938.518    21444947.510
  20244528.656   -16115070.77949 -12550898.57848  20244527.855    20244535.882
  22402176.025   -13444426.48549 -10460321.84646  22402175.477    22402185.541
  23906606.261    -4525579.07749  -3507419.66645  23906605.821    23906617.274
  24417381.328     8522243.27849   6766851.75145  24417381.468    24417392.517
  21264005.811    -5454046.63049  -4237228.57847  21264005.135    21264013.236
  24108680.569    -5005781.47449  -3892271.77345  24108680.018    24108693.476
  22031327.062   -16433004.50649 -12591238.42347  22031326.660    22031335.908
 03  4  2  0  4  0.0000000  0  8G18G17G15G14G31G23G 9G 3
  20604278.690   -12813395.37949  -9970977.60448  20604278.105    20604284.780
  21453414.451      211022.44449    196699.82047  21453413.731    21453422.725
  20243384.716   -16121082.05349 -12555582.66448  20243383.927    20243391.951
  22383350.479   -13543354.47049 -10537408.37146  22383349.910    22383359.975
  23890243.766    -4611564.11749  -3574420.84445  23890243.219    23890254.628
  21271900.262    -5412560.85249  -4204901.99547  21271899.590    21271907.717
  24098047.593    -5061657.26649  -3935811.09545  24098047.140    24098060.365
  22022726.900   -16478198.44549 -12626454.42247  22022726.474    22022735.721
 03  4  2  0  4 30.0000000  0  8G18G17G15G14G31G23G 9G 3
  20609644.509   -12785197.89049  -9949005.52048  20609643.920    20609650.602
  21461947.153      255862.34249    231639.97247  21461946.484    21461955.512
  20242303.723   -16126762.83449 -12560009.22248  20242302.905    20242310.944
  22364578.577   -13642000.58349 -10614275.27646  22364577.975    22364588.029
  23873946.602    -4697205.62649  -3641154.35445  23873945.971    23873957.411
  21279827.194    -5370904.51449  -4172442.50747  21279826.503    21279834.622
  24087480.374    -5117186.58749  -3979080.48245  24087479.966    24087493.086
  22014224.133   -16522880.38949 -12661271.47147  22014223.740    22014232.944
 03  4  2  0  5  0.0000000  0  8G18G17G15G14G31G23G 9G 3
  20615061.905   -12756729.33749  -9926822.21748  20615061.300    20615067.977
  21470537.524      301004.90749    266815.97147  21470536.847    21470545.901
  20241285.719   -16132112.16149 -12564177.50648  20241284.910    20241292.965
  22345860.674   -13740362.58149 -10690920.80046  22345860.123    22345870.123
  23857715.053    -4782501.28549  -3707618.35145  23857714.538    23857725.878
  21287786.333    -5329079.15549  -4139851.31447  21287785.643    21287793.739
  24076979.569    -5172366.40149  -4022077.50045  24076979.315    24076992.464
  22005819.087   -16567049.09049 -12695688.58647  22005818.669    22005827.817
 03  4  2  0  5 30.0000000  0  8G18G17G15G14G31G23G 9G 3
  20620530.554   -12727991.21449  -9904428.86048  20620529.954    20620536.673
  21479185.513      346450.38249    302228.00447  21479184.830    21479193.880
  20240330.950   -16137129.17649 -12568086.84748  20240330.141    20240338.243
  22327197.451   -13838437.91849 -10767342.95346  22327196.874    22327206.762
  23841550.024    -4867448.67649  -3773810.99145  23841549.509    23841560.876
  21295777.298    -5287086.34749  -4107129.64547  21295776.621    21295784.689
  24066546.149    -5227194.12849  -4064800.19045  24066545.857    24066558.776
  21997511.897   -16610703.28949 -12729704.79347  21997511.510    21997520.625
 03  4  2  0  6  0.0000000  0  8G18G17G15G14G31G23G 9G 3
  20626050.086   -12698985.66049  -9881827.12248  20626049.503    20626056.211
  21487891.156      392198.52549    337875.88647  21487890.443    21487899.515
  20239439.521   -16141813.53349 -12571736.97548  20239438.718    20239446.836
  22308589.126   -13936224.79249 -10843540.33946  22308588.526    22308598.302
  23825451.724    -4952046.09149  -3839730.91545  23825451.144    23825462.259
  21303799.729    -5244928.29449  -4074279.21347  21303799.057    21303807.135
  24056180.117    -5281667.63749  -4107246.84845  24056179.764    24056192.551
  21989302.786   -16653842.23149 -12763319.50347  21989302.383    21989311.477
 03  4  2  0  6 30.0000000  0  8G18G17G15G14G31G23G 9G 3
  20631620.365   -12669713.25049  -9859017.43948  20631619.827    20631626.547
  21496654.431      438249.98749    373760.12647  21496653.726    21496662.837
  20238611.809   -16146163.17549 -12575126.28148  20238610.991    20238619.091
  22290036.309   -14033719.77149 -10919510.28546  22290035.749    22290045.443
  23809420.496    -5036290.23849  -3905375.56045  23809419.872    23809431.000
  21311853.465    -5202605.56049  -4041300.45347  21311852.781    21311860.910
  24045882.198    -5335783.25649  -4149414.66845  24045881.763    24045894.525
  21981192.198   -16696463.57849 -12796530.89347  21981191.798    21981200.829
 03  4  2  0  7  0.0000000  0  8G18G17G15G14G31G23G 9G 3
  20637241.092   -12640176.06949  -9836001.44248  20637240.576    20637247.256
  21505475.503      484604.58649    409880.56947  21505474.760    21505483.862
  20237847.876   -16150177.70849 -12578254.45848  20237847.060    20237855.144
  22271539.327   -14130921.00149 -10995251.33146  22271538.855    22271548.449
  23793456.918    -5120179.02849  -3970743.34645  23793456.323    23793467.276
  21319938.152    -5160120.16649  -4008194.95147  21319937.494    21319945.607
  24035652.750    -5389538.59549  -4191301.74745  24035652.334    24035665.093
  21973180.253   -16738566.53849 -12829338.34347  21973179.844    21973188.901
 03  4  2  0  7 30.0000000  0  8G18G17G15G14G31G23G 9G 3
  20642912.265   -12610374.02749  -9812779.06048  20642911.750    20642918.395
  21514354.541      531264.51049    446238.93847  21514353.842    21514362.949
  20237148.102   -16153854.91449 -12581119.78148  20237147.304    20237155.349
  22253099.148   -14227824.61049 -11070760.45646  22253098.631    22253108.104
  23777561.520    -5203708.89049  -4035831.37745  23777560.997    23777571.875
  21328053.785    -5117472.25949  -3974962.81047  21328053.096    21328061.222
  24025492.564    -5442929.35049  -4232904.72345  24025492.209    24025505.053
  21965267.437   -16780148.43049 -12861739.76647  21965267.032    21965276.073
 03  4  2  0  8  0.0000000  0  8G18G17G15G14G31G23G 9G 3
  20648633.400   -12580309.29249  -9789351.98248  20648632.869    20648639.500
  21523291.508      578228.59449    482834.30647  21523290.816    21523299.970
  20236512.533   -16157194.70749 -12583722.18748  20236511.735    20236519.779
  22234715.898   -14324429.05949 -11146036.48446  22234715.277    22234724.661
  23761734.827    -5286878.12849  -4100638.45245  23761734.223    23761745.178
  21336199.943    -5074663.92449  -3941605.66347  21336199.267    21336207.361
  24015402.175    -5495953.68649  -4274222.19045  24015401.724    24015414.783
  21957453.896   -16821208.63049 -12893734.67947  21957453.481    21957462.526
 03  4  2  0  8 30.0000000  0  8G18G17G15G14G31G23G 9G 3
  20654404.247   -12549983.11049  -9765721.18448  20654403.714    20654410.341
  21532286.495      625497.55349    519667.23547  21532285.829    21532294.976
  20235941.467   -16160195.54449 -12586060.47048  20235940.670    20235948.720
  22216389.960   -14420731.55749 -11221077.20946  22216389.394    22216398.694
  23745977.248    -5369684.04749  -4165162.36145  23745976.623    23745987.685
  21344376.395    -5031696.32249  -3908124.41247  21344375.706    21344383.786
  24005382.158    -5548608.27449  -4315251.55245  24005381.770    24005394.597
  21949739.833   -16861745.83649 -12925322.06847  21949739.432    21949748.423
 03  4  2  0  9  0.0000000  0  8G18G17G15G14G31G23G 9G 3
  20660224.684   -12519396.54649  -9741887.49448  20660224.144    20660230.773
  21541339.615      673071.93749    556738.16647  21541338.911    21541348.063
  20235435.126   -16162856.42449 -12588133.85448  20235434.310    20235442.370
  22198122.125   -14516729.33849 -11295880.49846  22198121.541    22198130.737
  23730289.297    -5452123.92149  -4229401.10345  23730288.714    23730299.779
  21352582.914    -4988570.58049  -3874519.92947  21352582.245    21352590.337
  23995433.127    -5600890.41149  -4355990.71645  23995432.668    23995445.490
  21942125.621   -16901758.36749 -12956500.61147  21942125.223    21942134.236
 03  4  2  0  9 30.0000000  0  8G18G17G15G14G31G23G 9G 3
  20666094.347   -12488551.14649  -9717852.11548  20666093.811    20666100.458
  21550450.851      720951.71749    594047.06847  21550450.144    21550459.304
  20234993.630   -16165176.52249 -12589941.69848  20234992.806    20235000.849
  22179912.581   -14612420.34849 -11370444.75046  22179911.987    22179921.149
  23714671.368    -5534195.64449  -4293352.94245  23714670.816    23714681.911
  21360819.227    -4945288.57349  -3840793.69047  21360818.553    21360826.645
  23985555.408    -5652797.25049  -4396437.42245  23985554.956    23985567.852
  21934611.462   -16941245.15449 -12987269.49347  21934611.075    21934620.071
 03  4  2  0 10  0.0000000  0  8G18G17G15G14G31G23G 9G 3
  20672013.167   -12457447.60949  -9693615.58448  20672012.633    20672019.274
  21559620.393      769137.73949    631594.59647  21559619.656    21559628.821
  20234617.231   -16167154.52349 -12591482.97648  20234616.387    20234624.423
  22161762.099   -14707801.33649 -11444767.41846  22161761.442    22161770.574
  23699124.133    -5615896.18849  -4357015.55045  23699123.528    23699134.619
  21369085.112    -4901851.00049  -3806946.22547  21369084.431    21369092.555
  23975749.627    -5704325.31749  -4436588.99145  23975749.155    23975762.234
  21927197.729   -16980204.43049 -13017627.31847  21927197.297    21927206.364
 03  4  2  0 10 30.0000000  0  8G18G17G15G14G31G23G 9G 3
  20677980.675   -12426088.16349  -9669179.64548  20677980.152    20677986.754
  21568848.135      817629.95749    669380.72347  21568847.408    21568856.551
  20234305.919   -16168790.15149 -12592757.47148  20234305.102    20234313.104
  22143670.812   -14802870.63849 -11518847.22246  22143670.206    22143679.322
  23683648.031    -5697223.76149  -4420387.54745  23683647.513    23683658.317
  21377380.210    -4858260.00849  -3772979.21547  21377379.528    21377387.632
  23966016.470    -5755472.55249  -4476443.80545  23966016.102    23966029.059
  21919884.449   -17018635.48149 -13047573.54347  21919884.050    21919893.102
 03  4  2  0 11  0.0000000  0  8G18G17G15G14G31G23G 9G 3
  20683996.602   -12394474.29949  -9644545.45748  20683996.048    20684002.644
  21578134.149      866428.23549    707405.33147  21578133.419    21578142.564
  20234059.988   -16170082.50149 -12593764.47548  20234059.172    20234067.152
  22125639.303   -14897626.22349 -11592682.57246  22125638.699    22125647.784
  23668243.361    -5778176.26249  -4483467.27345  23668242.757    23668253.457
  21385704.206    -4814517.33049  -3738894.01147  21385703.506    21385711.576
  23956356.439    -5806236.63849  -4516000.06945  23956356.060    23956368.693
  21912671.964   -17056537.47249 -13077107.51547  21912671.543    21912680.516
 03  4  2  0 11 30.0000000  0  8G18G17G15G14G31G23G 9G 3
  20690060.814   -12362606.66049  -9619713.52748  20690060.239    20690066.874
  21587478.446      915532.80849    745668.61347  21587477.700    21587486.900
  20233879.706   -16171029.71049 -12594502.54648  20233878.887    20233886.880
  22107668.166   -14992064.47749 -11666270.65646  22107667.531    22107676.615
  23652910.387    -5858750.35749  -4546252.13345  23652909.712    23652920.535
  21394056.960    -4770623.34449  -3704690.90447  21394056.263    21394064.301
  23946769.725    -5856613.87149  -4555254.87545  23946769.318    23946781.983
  21905560.490   -17093908.16949 -13106227.49647  21905560.096    21905569.077
 03  4  2  0 12  0.0000000  0  8G18G17G15G14G31G23G 9G 3
  20696173.157   -12330486.11449  -9594684.53148  20696172.578    20696179.215
  21596881.307      964945.20749    784171.75147  21596880.581    21596889.782
  20233765.419   -16171630.31149 -12594970.53448  20233764.616    20233772.583
  22089757.875   -15086182.68049 -11739609.35346  22089757.300    22089766.319
  23637650.077    -5938943.20049  -4608739.92345  23637649.416    23637660.281
  21402438.347    -4726579.04749  -3670370.66747  21402437.631    21402445.662
  23937257.238    -5906600.96749  -4594205.67345  23937256.973    23937269.676
  21898550.494   -17130746.01749 -13134932.26347  21898550.079    21898559.104
 03  4  2  0 12 30.0000000  0  8G18G17G15G14G31G23G 9G 3
  20702333.199   -12298114.87749  -9569460.19148  20702332.633    20702339.252
  21606342.655     1014664.87349    822914.32247  21606341.931    21606351.146
  20233717.063   -16171884.39549 -12595168.51848  20233716.240    20233724.213
  22071908.779   -15179979.28849 -11812697.45646  22071908.236    22071917.246
  23622462.619    -6018753.50749  -4670929.64045  23622461.941    23622472.783
  21410847.872    -4682386.54749  -3635934.94947  21410847.179    21410855.213
  23927819.526    -5956196.24449  -4632851.18445  23927819.226    23927831.850
  21891641.880   -17167050.82649 -13163221.68247  21891641.452    21891650.508
 03  4  2  0 13  0.0000000  0  8G18G17G15G14G31G23G 9G 3
  20708540.869   -12265493.45949  -9544040.90548  20708540.286    20708546.899
  21615862.685     1064692.69549    861897.00647  21615861.930    21615871.126
  20233735.008   -16171790.17049 -12595095.09048  20233734.177    20233742.166
  22054121.593   -15273450.98449 -11885532.39946  22054121.040    22054130.008
  23607348.534    -6098177.63749  -4732818.44745  23607347.883    23607358.816
  21419285.510    -4638046.17949  -3601384.01347  21419284.838    21419292.884
  23918457.096    -6005395.85249  -4671188.37145  23918456.817    23918469.201
  21884835.065   -17202820.70649 -13191094.27347  21884834.634    21884843.714
 03  4  2  0 13 30.0000000  0  8G18G17G15G14G31G23G 9G 3
  20714795.745   -12232623.92049  -9518428.27548  20714795.186    20714801.755
  21625441.073     1115027.56849    901118.95847  21625440.359    21625449.554
  20233819.282   -16171347.28949 -12594749.98548  20233818.449    20233826.424
  22036396.612   -15366596.11449 -11958112.86646  22036396.011    22036404.947
  23592308.202    -6177214.16449  -4794405.21345  23592307.556    23592318.526
  21427750.933    -4593560.13349  -3566719.55547  21427750.257    21427758.304
  23909170.361    -6054197.52749  -4709215.51345  23909169.976    23909182.174
  21878130.215   -17238054.93749 -13218549.48647  21878129.786    21878138.848
 03  4  2  0 14  0.0000000  0  8G18G17G15G14G31G23G 9G 3
  20721097.677   -12199506.99649  -9492622.87448  20721097.093    20721103.680
  21635078.260     1165671.01049    940581.34647  21635077.557    21635086.738
  20233970.166   -16170554.26849 -12594132.04048  20233969.315    20233977.300
  22018734.291   -15459411.78749 -12030436.61246  22018733.688    22018742.533
  23577342.171    -6255860.07449  -4855687.60645  23577341.597    23577352.522
  21436243.888    -4548929.32649  -3531942.30347  21436243.208    21436251.289
  23899959.901    -6102598.31849  -4746930.26345  23899959.503    23899971.745
  21871527.548   -17272751.77649 -13245585.94247  21871527.157    21871536.213
 03  4  2  0 14 30.0000000  0  8G18G17G15G14G31G23G 9G 3
  20727446.387   -12166144.17949  -9466625.87048  20727445.818    20727452.399
  21644774.064     1216622.82949    980284.04147  21644773.395    21644782.570
  20234187.814   -16169410.23349 -12593240.57048  20234186.994    20234194.999
  22001135.024   -15551895.68749 -12102501.84746  22001134.432    22001143.254
  23562450.968    -6334113.26449  -4916663.98545  23562450.396    23562461.264
  21444764.078    -4504155.30949  -3497053.46147  21444763.409    21444771.483
  23890826.120    -6150595.72749  -4784330.70245  23890825.766    23890837.911
  21865027.438   -17306910.27549 -13272202.91447  21865027.007    21865036.097
 03  4  2  0 15  0.0000000  0  8G18G17G15G14G31G23G 9G 3
  20733841.700   -12132536.59249  -9440438.13548  20733841.131    20733847.720
  21654528.607     1267883.15249   1020227.11647  21654527.922    21654537.136
  20234472.557   -16167913.79649 -12592074.50248  20234471.757    20234479.756
  21983599.427   -15644045.00549 -12174306.35647  21983598.871    21983607.687
  23547635.020    -6411970.93649  -4977332.17445  23547634.462    23547645.292
  21453311.388    -4459238.95649  -3462053.70347  21453310.702    21453318.773
  23881769.740    -6198186.81149  -4821414.52845  23881769.305    23881781.434
  21858629.924   -17340529.11949 -13298399.37147  21858629.506    21858638.615
 03  4  2  0 15 30.0000000  0  8G18G17G15G14G31G23G 9G 3
  20740283.314   -12098685.44049  -9414060.60548  20740282.771    20740289.350
  21664341.984     1319452.46649   1060410.97947  21664341.239    21664350.468
  20234824.458   -16166064.45249 -12590633.43948  20234823.673    20234831.661
  21966127.937   -15735857.70249 -12245848.56847  21966127.367    21966136.140
  23532894.605    -6489430.96249  -5037690.47745  23532894.107    23532905.036
  21461885.470    -4414181.78949  -3426944.21747  21461884.776    21461892.852
  23872791.199    -6245368.88049  -4858179.63145  23872790.801    23872803.060
  21852335.292   -17373607.57449 -13324174.73847  21852334.844    21852343.909
 03  4  2  0 16  0.0000000  0  8G18G17G15G14G31G23G 9G 3
  20746771.816   -12064587.91849  -9387491.09348  20746771.309    20746777.861
  21674214.979     1371335.59449   1100839.36247  21674214.304    21674223.532
  20235244.569   -16163856.76949 -12588913.14948  20235243.762    20235251.730
  21948721.832   -15827326.83849 -12317123.06947  21948721.247    21948730.007
  23518231.267    -6566486.50849  -5097733.64345  23518230.808    23518241.653
  21470486.974    -4368980.65549  -3391722.55447  21470486.282    21470494.332
  23863891.828    -6292134.81149  -4894620.46545  23863891.462    23863903.639
  21846144.532   -17406140.09249 -13349524.71047  21846144.079    21846153.115
 03  4  2  0 16 30.0000000  0  8G18G17G15G14G31G23G 9G 3
  20753305.823   -12030251.56349  -9360735.48048  20753305.286    20753311.830
  21684146.528     1423525.84249   1141507.06047  21684145.828    21684155.093
  20235731.872   -16161295.86949 -12586917.61748  20235731.075    20235739.024
  21931380.404   -15918456.26149 -12388132.85947  21931379.802    21931388.497
  23503644.290    -6643141.47849  -5157464.63845  23503643.746    23503654.536
  21479114.422    -4323643.14049  -3356394.62147  21479113.719    21479121.778
  23855070.964    -6338488.07049  -4930739.76245  23855070.628    23855082.788
  21840056.736   -17438131.84449 -13374453.29747  21840056.294    21840065.251
 03  4  2  0 17  0.0000000  0  7G18G15G14G31G23G 9G 3
  20759884.680   -11995679.44849  -9333796.15248  20759884.131    20759890.689
  20236286.194   -16158382.81449 -12584647.67648  20236285.401    20236293.322
  21914103.608   -16009245.88249 -12458877.87247  21914103.022    21914111.656
  23489133.593    -6719395.58549  -5216883.27945  23489132.992    23489143.763
  21487767.202    -4278172.56149  -3320962.99747  21487766.489    21487774.565
  23846328.707    -6384428.25349  -4966537.16445  23846328.320    23846340.556
  21834071.616   -17469583.93049 -13398961.36947  21834071.177    21834080.021
 03  4  2  0 17 30.0000000  0  8G18G17G15G14G31G23G 9G 3
  20766507.251   -11960877.37049  -9306677.64148  20766506.727    20766513.328
                  -1248237.01449   -989433.38646                  21704191.882
  20236906.818   -16155121.25949 -12582106.18448  20236906.022    20236913.932
  21896891.118   -16099697.26549 -12529359.33647  21896890.548    21896899.176
  23474698.761    -6795250.69849  -5275991.03445  23474698.225    23474708.905
  21496444.274    -4232574.22349  -3285431.82547  21496443.542    21496451.634
  23837664.770    -6429956.80349  -5002013.82845  23837664.438    23837676.517
  21828188.502   -17500499.47749 -13423051.36047  21828188.070    21828196.925
 03  4  2  0 18  0.0000000  0  8G18G17G15G14G31G23G 9G 3
  20773175.901   -11925833.26249  -9279370.53448  20773175.370    20773181.989
  21714290.728    -1195124.99849   -948047.42646  21714289.490    21714298.787
  20237596.481   -16151497.03949 -12579282.09448  20237595.684    20237603.559
  21879745.987   -16189795.07249 -12599565.28347  21879745.388    21879753.986
  23460342.866    -6870691.29149  -5334775.77545  23460342.323    23460352.947
  21505147.908    -4186836.14849  -3249791.76647  21505147.196    21505155.282
  23829082.184    -6475057.74449  -5037157.28345  23829081.810    23829093.936
  21822410.207   -17530864.38149 -13446712.28247  21822409.770    21822418.573
 03  4  2  0 18 30.0000000  0  8G18G17G15G14G31G23G 9G 3
  20779889.758   -11890551.78849  -9251878.46548  20779889.222    20779895.820
  21724457.149    -1141701.27249   -906418.57047  21724455.602    21724465.013
  20238354.739   -16147512.14949 -12576176.96448  20238353.979    20238361.841
  21862667.899   -16279539.94849 -12669496.22247  21862667.341    21862675.946
  23446065.663    -6945718.24249  -5393238.18645  23446065.048    23446075.772
  21513877.314    -4140962.83049  -3214046.32547  21513876.633    21513884.705
  23820581.018    -6519731.87349  -5071968.16245  23820580.546    23820592.609
  21816736.257   -17560680.81549 -13469945.82547  21816735.848    21816744.612
 03  4  2  0 19  0.0000000  0  8G18G17G15G14G31G23G 9G 3
  20786648.771   -11855032.92449  -9224201.41548  20786648.223    20786654.808
  21734682.547    -1087964.37449   -864545.69947  21734681.453    21734690.837
  20239182.047   -16143164.68549 -12572789.31348  20239181.246    20239189.113
  21845657.695   -16368928.51649 -12739149.53047  21845657.157    21845665.752
  23431867.702    -7020328.30349  -5451375.76545  23431867.096    23431877.759
  21522632.380    -4094954.64149  -3178195.79847  21522631.692    21522639.753
  23812161.571    -6563975.60549  -5106443.65645  23812161.154    23812173.107
  21811167.044   -17589946.93649 -13492750.54847  21811166.614    21811175.392
 03  4  2  0 19 30.0000000  0  8G18G17G15G14G31G23G 9G 3
  20793453.070   -11819276.08449  -9196338.93448  20793452.522    20793459.123
  21744968.190    -1033912.03549   -822427.01547  21744967.312    21744976.640
  20240078.932   -16138451.51549 -12569116.69548  20240078.125    20240086.034
  21828716.136   -16457956.43549 -12808521.81547  21828715.585    21828724.147
  23417749.966    -7094516.86349  -5509184.91145  23417749.450    23417760.001
  21531413.264    -4048810.64849  -3142239.44547  21531412.593    21531420.650
  23803825.090    -6607783.99749  -5140579.94845  23803824.626    23803836.511
  21805703.140   -17618659.74049 -13515124.12147  21805702.736    21805711.487
 03  4  2  0 20  0.0000000  0  8G18G17G15G14G31G23G 9G 3
  20800301.841   -11783285.42449  -9168294.26048  20800301.301    20800307.909
  21755313.384     -979547.16749   -780064.80646  21755312.590    21755321.956
  20241045.033   -16133374.76449 -12565160.76448  20241044.197    20241052.118
  21811843.080   -16546624.48549 -12877613.68147  21811842.536    21811851.044
  23403712.404    -7168284.76449  -5566666.25945  23403711.828    23403722.268
  21540219.286    -4002535.02849  -3106180.52147  21540218.577    21540226.609
  23795571.240    -6651157.57349  -5174377.38745  23795570.809    23795582.751
  21800344.092   -17646821.38649 -13537068.21247  21800343.696    21800352.457
 03  4  2  0 20 30.0000000  0  8G18G17G15G14G31G23G 9G 3
  20807194.646   -11747063.52549  -9140069.40048  20807194.119    20807200.715
  21765717.844     -924871.24349   -737460.22046  21765717.068    21765726.477
  20242080.231   -16127934.69749 -12560921.73848  20242079.380    20242087.300
  21795038.706   -16634931.28949 -12946424.05047  21795038.209    21795046.706
  23389755.028    -7241630.91049  -5623818.99645  23389754.430    23389764.767
  21549049.847    -3956130.05649  -3070020.80547  21549049.144    21549057.190
  23787400.413    -6694094.95149  -5207834.95645  23787400.076    23787411.957
  21795089.965   -17674432.01949 -13558582.96147  21795089.544    21795098.277
 03  4  2  0 21  0.0000000  0  8G18G17G15G14G31G23G 9G 3
  20814130.716   -11710614.07149  -9111667.22347  20814130.198    20814136.759
  21776181.111     -869886.34749   -694614.87446  21776180.344    21776189.761
  20243184.251   -16122132.97749 -12556400.90048  20243183.406    20243191.311
  21778303.084   -16722877.27549 -13014953.26847  21778302.545    21778311.048
  23375877.893    -7314555.35149  -5680643.11545  23375877.227    23375887.530
  21557904.341    -3909599.48249  -3033763.21747  21557903.614    21557911.705
  23779312.498    -6736596.38349  -5240952.82145  23779312.195    23779324.023
  21789940.350   -17701493.22649 -13579669.57447  21789939.928    21789948.673
 03  4  2  0 21 30.0000000  0  8G18G17G15G14G31G23G 9G 3
  20821109.999   -11673937.72549  -9083088.25047  20821109.466    20821116.001
  21786703.287     -814592.01549   -651528.39946  21786702.530    21786711.932
  20244357.396   -16115968.05149 -12551597.04848  20244356.564    20244364.439
  21761636.634   -16810459.40049 -13083198.95647  21761636.113    21761644.604
  23362081.543    -7387055.46649  -5737136.60945  23362080.848    23362091.165
  21566782.539    -3862944.15349  -2997408.41747  21566781.828    21566789.913
  23771308.324    -6778658.47849  -5273728.34345  23771307.916    23771319.629
  21784895.555   -17728003.85949 -13600327.18147  21784895.131    21784903.841
 03  4  2  0 22  0.0000000  0  8G18G17G15G14G31G23G 9G 3
  20828132.372   -11637035.03549  -9054332.90247  20828131.824    20828138.343
  21797284.504     -758987.42049   -608200.17846  21797283.774    21797293.141
  20245599.961   -16109438.34849 -12546508.95448  20245599.113    20245606.959
  21745039.991   -16897674.77549 -13151158.86747  21745039.473    21745047.966
  23348366.412    -7459128.23549  -5793297.11145  23348365.762    23348375.981
  21575684.388    -3816164.62549  -2960956.84447  21575683.655    21575691.754
  23763388.225    -6820278.01749  -5306159.00245  23763387.800    23763399.633
  21779955.744   -17753962.37249 -13620554.56547  21779955.341    21779964.079
 03  4  2  0 22 30.0000000  0  8G18G17G15G14G31G23G 9G 3
  20835197.689   -11599906.43449  -9025401.52647  20835197.153    20835203.678
  21807925.026     -703071.30549   -564629.21646  21807924.278    21807933.630
  20246912.251   -16102542.23949 -12541135.34948  20246911.405    20246919.226
  21728513.731   -16984520.22249 -13218830.51647  21728513.253    21728521.716
  23334733.134    -7530770.63149  -5849122.25245  23334732.541    23334742.668
  21584609.841    -3769261.29949  -2924408.80247  21584609.106    21584617.175
  23755552.988    -6861451.78149  -5338242.31845  23755552.534    23755564.352
  21775121.377   -17779366.81849 -13640350.19947  21775120.968    21775129.769
 03  4  2  0 23  0.0000000  0  8G18G17G15G14G31G23G 9G 3
  20842305.646   -11562553.59849  -8996295.42447  20842305.142    20842311.705
  21818624.692     -646843.90149   -520815.68046  21818624.001    21818633.359
  20248294.347   -16095279.06149 -12535475.72148  20248293.508    20248301.296
  21712058.341   -17070993.69749 -13286212.32047  21712057.825    21712066.216
  23321182.184    -7601980.58849  -5904610.41645  23321181.582    23321191.899
  21593558.528    -3722235.40849  -2887765.25947  21593557.821    21593565.904
  23747803.099    -6902177.15549  -5369976.21145  23747802.609    23747814.433
  21770392.542   -17804216.67149 -13659713.69847  21770392.171    21770400.957
 03  4  2  0 23 30.0000000  0  8G18G17G15G14G31G23G 9G 3
  20849456.154   -11524977.55949  -8967015.39347  20849455.642    20849462.203
  21829383.710     -590305.24649   -476759.62046  21829383.012    21829392.331
  20249746.565   -16087647.54549 -12529529.07648  20249745.723    20249753.505
  21695674.140   -17157092.90249 -13353302.47447  21695673.598    21695681.918
  23307714.022    -7672755.71949  -5959759.77445  23307713.426    23307723.869
  21602530.375    -3675087.95749  -2851026.98347  21602529.700    21602537.757
  23740138.986    -6942451.68349  -5401358.82445  23740138.494    23740150.284
  21765769.368   -17828511.26649 -13678644.51847  21765768.992    21765777.834
 03  4  2  0 24  0.0000000  0  8G18G17G15G14G31G23G 9G 3
  20856648.827   -11487179.62449  -8937562.45747  20856648.323    20856654.895
  21840201.859     -533455.52049   -432461.16646  21840201.163    21840210.477
  20251268.999   -16079646.99349 -12523294.87548  20251268.199    20251275.977
  21679361.560   -17242815.80049 -13420099.40547  21679361.011    21679369.264
  23294329.114    -7743094.03849  -6014568.78345  23294328.453    23294338.788
  21611525.177    -3627820.22049  -2814194.98247  21611524.453    21611532.515
  23732561.173    -6982273.13649  -5432388.37045  23732560.740    23732572.358
  21761251.991   -17852249.96649 -13697142.18147  21761251.639    21761260.478
 03  4  2  0 24 30.0000000  0  8G18G17G15G14G31G23G 9G 3
  20863883.670   -11449160.41249  -8907937.10147  20863883.134    20863889.706
  21851079.432     -476293.67049   -387919.49946  21851078.743    21851088.021
  20252861.924   -16071276.02449 -12516772.04048  20252861.136    20252868.930
  21663121.054   -17328159.70549 -13486601.01747  21663120.464    21663128.720
  23281027.813    -7812992.80849  -6069035.27445  23281027.250    23281037.412
  21620542.673    -3580432.80349  -2777269.72547  21620541.970    21620550.048
  23725069.919    -7021638.64849  -5463062.65245  23725069.547    23725081.254
  21756840.621   -17875431.55449 -13715205.72847  21756840.253    21756849.132
 03  4  2  0 25  0.0000000  0  8G18G17G15G14G31G23G 9G 3
  20871160.450   -11410920.74049  -8878139.95547  20871159.877    20871166.468
  21862016.434     -418819.54549   -343134.50046  21862015.751    21862025.037
  20254525.584   -16062533.40449 -12509959.60048  20254524.784    20254532.621
  21646953.250   -17413121.57849 -13552804.93847  21646952.657    21646960.877
  23267810.597    -7882449.42549  -6123157.23045  23267810.031    23267820.088
  21629582.804    -3532926.44849  -2740251.79147  21629582.142    21629590.191
  23717666.148    -7060545.40849  -5493379.48945  23717665.782    23717677.480
  21752535.553   -17898054.93349 -13732834.31947  21752535.193    21752544.026
 03  4  2  0 25 30.0000000  0  8G18G17G15G14G31G23G 9G 3
  20878478.659   -11372463.28649  -8848173.10847  20878478.090    20878484.675
  21873012.669     -361034.30549   -298107.07546  21873011.959    21873021.270
  20256259.826   -16053419.66349 -12502857.97648  20256259.044    20256266.885
  21630858.139   -17497700.91649 -13618710.78247  21630857.629    21630865.837
  23254677.793    -7951462.86149  -6176933.85545  23254677.082    23254687.119
  21638645.109    -3485303.80049  -2703143.23647  21638644.438    21638652.476
  23710350.027    -7098992.10549  -5523337.81445  23710349.467    23710361.110
  21748336.568   -17920120.76149 -13750028.44747  21748336.180    21748344.991
 03  4  2  0 26  0.0000000  0  8G18G17G15G14G31G23G 9G 3
  20885838.346   -11333788.06349  -8818036.57947  20885837.795    20885844.347
  21884068.276     -302936.62749   -252836.19246  21884067.605    21884076.942
  20258065.060   -16043933.05849 -12495465.80748  20258064.254    20258072.130
  21614836.511   -17581894.47849 -13684316.02147  21614836.021    21614844.209
  23241629.747    -8020030.06749  -6230362.76745  23241629.096    23241639.116
  21647729.494    -3437564.94049  -2665944.13447  21647728.859    21647736.870
  23703121.836    -7136975.46549  -5552935.13745  23703121.370    23703132.921
  21744244.027   -17941627.28249 -13766786.75447  21744243.594    21744252.402
 03  4  2  0 26 30.0000000  0  8G18G17G15G14G31G23G 9G 3
  20893239.265   -11294896.04649  -8787731.11747  20893238.702    20893245.215
  21895183.489     -244526.11649   -207321.54446  21895182.800    21895192.111
  20259941.512   -16034072.13749 -12487781.95848  20259940.715    20259948.604
  21598888.872   -17665699.49149 -13749618.50047  21598888.361    21598896.501
  23228667.091    -8088148.66349  -6283442.11245  23228666.469    23228676.381
  21656835.883    -3389710.56449  -2628655.01747  21656835.245    21656843.242
  23695982.451    -7174492.78949  -5582169.29545  23695982.023    23695993.345
  21740257.953   -17962574.00449 -13783108.85747  21740257.523    21740266.299
 03  4  2  0 27  0.0000000  0  8G18G17G15G14G31G23G 9G 3
  20900681.369   -11255787.60149  -8757257.00047  20900680.810    20900687.309
  21906358.326     -185802.03749   -161562.56346  21906357.634    21906366.931
  20261889.544   -16023835.13349 -12479805.06048  20261888.756    20261896.604
  21583015.709   -17749113.05049 -13814615.94947  21583015.190    21583023.298
  23215790.389    -8155815.34249  -6336169.29846  23215789.784    23215799.833
  21665964.229    -3341740.86249  -2591276.03647  21665963.566    21665971.604
  23688932.437    -7211540.66949  -5611037.66445  23688931.924    23688943.349
  21736378.780   -17982959.06849 -13798993.30047  21736378.378    21736387.129
 03  4  2  0 27 30.0000000  0  8G18G17G15G14G31G23G 9G 3
  20908164.057   -11216465.49449  -8726616.39547  20908163.530    20908170.045
  21917592.573     -126765.99649   -115560.49446  21917591.847    21917601.152
  20263909.008   -16013222.86049 -12471535.74148  20263908.228    20263916.073
  21567217.222   -17832134.45449 -13879307.82847  21567216.657    21567224.753
  23202999.826    -8223029.53049  -6388543.91346  23202999.308    23203009.242
  21675114.007    -3293658.49449  -2553809.25647  21675113.331    21675121.383
  23681971.829    -7248118.15049  -5639539.51345  23681971.393    23681982.759
  21732606.354   -18002783.50049 -13814440.89447  21732605.950    21732614.616
 03  4  2  0 28  0.0000000  0  8G18G17G15G14G31G23G 9G 3
  20915687.194   -11176931.23049  -8695810.47147  20915686.651    20915693.194
  21928885.948      -67418.80449    -69315.96546  21928885.248    21928894.535
  20265999.923   -16002235.06349 -12462973.80448  20265999.121    20266006.960
  21551493.647   -17914762.01549 -13943692.81647  21551493.042    21551501.144
  23190295.815    -8289789.79449  -6440564.80046  23190295.193    23190305.138
  21684284.988    -3245465.06949  -2516255.94847  21684284.242    21684292.277
  23675101.139    -7284223.64049  -5667673.55545  23675100.679    23675112.007
  21728940.616   -18022047.15849 -13829451.51047  21728940.218    21728948.848
 03  4  2  0 28 30.0000000  0  8G18G17G15G14G31G23G 9G 3
  20923250.539   -11137185.56449  -8664839.81947  20923250.005    20923256.560
  21940238.779       -7759.39549    -22828.15846  21940238.079    21940247.378
  20268162.603   -15990870.11749 -12454117.98548  20268161.794    20268169.610
  21535845.551   -17996992.81649 -14007768.64847  21535844.975    21535853.053
  23177678.532    -8356093.23049  -6492229.73446  23177677.937    23177687.913
  21693476.959    -3197160.94249  -2478616.36747  21693476.259    21693484.241
  23668320.919    -7319854.17849  -5695437.51545  23668320.393    23668331.690
  21725381.860   -18040748.63549 -13844024.06747  21725381.431    21725390.090
 03  4  2  0 29  0.0000000  0  8G18G17G15G14G31G23G 9G 3
  20930853.939   -11097229.54449  -8633705.25947  20930853.402    20930859.923
  21951651.041       52212.32249     23903.01446  21951650.309    21951659.668
  20270397.242   -15979127.20149 -12444967.64148  20270396.407    20270404.189
  21520273.294   -18078825.01149 -14071533.87647  21520272.715    21520280.775
  23165148.584    -8421937.69849  -6543537.03446  23165148.071    23165158.138
  21702689.795    -3148747.14949  -2440891.33947  21702689.081    21702697.086
  23661631.327    -7355007.38949  -5722829.52545  23661630.814    23661642.016
  21721930.091   -18058887.52649 -13858158.23947  21721929.671    21721938.324
 03  4  2  0 29 30.0000000  0  8G18G17G15G14G31G23G 9G 3
  20938497.118   -11057064.36649  -8602407.71647  20938496.580    20938503.096
  21963122.684      112496.16549     70877.39346  21963121.957    21963131.355
  20272703.962   -15967005.22649 -12435521.93148  20272703.140    20272710.923
  21504777.415   -18160256.00449 -14134986.48647  21504776.803    21504784.838
  23152706.529    -8487320.92649  -6594484.90846  23152705.946    23152716.013
  21711923.280    -3100224.61249  -2403081.57247  21711922.609    21711930.633
  23655033.117    -7389680.64549  -5749847.54145  23655032.672    23655043.837
  21718585.484   -18076463.43149 -13871853.72547  21718585.077    21718593.733
 03  4  2  0 30  0.0000000  0  8G18G17G15G14G31G23G 9G 3
  20946179.848   -11016691.21049  -8570948.11147  20946179.332    20946185.842
  21974653.685      173091.75849    118094.69646  21974652.934    21974662.360
  20275082.869   -15954503.58849 -12425780.37348  20275082.073    20275089.862
  21489358.161   -18241284.03649 -14198125.10247  21489357.607    21489365.631
  23140352.625    -8552241.18949  -6645072.04446  23140351.958    23140362.093
  21721177.290    -3051594.42849  -2365187.92447  21721176.633    21721184.673
  23648526.623    -7423872.09849  -5776490.10045  23648526.216    23648537.455
  21715348.070   -18093476.26349 -13885110.44947  21715347.638    21715356.272
 03  4  2  0 30 30.0000000  0  8G18G17G15G14G31G23G 9G 3
  20953901.903   -10976111.60449  -8539327.63347  20953901.396    20953907.895
  21986244.023      233999.37149    165555.13646  21986243.300    21986252.719
  20277534.207   -15941621.82549 -12415742.62348  20277533.386    20277541.165
  21474015.924   -18321907.35349 -14260948.36247  21474015.409    21474023.423
  23128087.090    -8616696.76049  -6695297.09146  23128086.469    23128096.480
  21730451.491    -3002858.21249  -2327211.65447  21730450.802    21730458.836
  23642112.279    -7457579.78649  -5802755.73245  23642111.737    23642122.919
  21712217.819   -18109925.51049 -13897928.01647  21712217.395    21712226.045
 03  4  2  0 31  0.0000000  0  8G18G17G15G14G31G23G 9G 3
  20961663.244   -10935325.49149  -8507546.23547  20961662.703    20961669.230
  21997893.923      295219.92949    213259.42546  21997893.205    21997902.630
  20280058.145   -15928358.23949 -12405407.35148  20280057.338    20280065.111
  21458751.398   -18402122.58549 -14323453.63547  21458750.836    21458758.853
  23115910.630    -8680684.33149  -6745157.46046  23115909.988    23115919.976
  21739745.904    -2954015.90549  -2289152.71847  21739745.178    21739753.226
  23635790.435    -7490800.33449  -5828641.75045  23635790.004    23635801.159
  21709195.062   -18125809.81549 -13910305.36347  21709194.677    21709203.321
 03  4  2  0 31 30.0000000  0  8G18G17G15G14G31G23G 9G 3
  20969463.497   -10894334.78849  -8475605.42547  20969462.963    20969469.524
  22009603.263      356752.53249    261206.86246  22009602.529    22009611.933
  20282654.810   -15914712.66249 -12394774.43148  20282653.991    20282661.759
  21443564.786   -18481928.45749 -14385639.92747  21443564.210    21443572.211
  23103823.495    -8744202.56749  -6794652.08846  23103822.836    23103832.873
  21749060.121    -2905069.15649  -2251012.39747  21749059.449    21749067.502
  23629561.649    -7523532.26549  -5854147.02745  23629561.235    23629572.401
  21706279.829   -18141129.33949 -13922242.62847  21706279.435    21706288.043
 03  4  2  0 32  0.0000000  0  8G18G17G15G14G31G23G 9G 3
  20977302.431   -10853141.04649  -8443506.40547  20977301.876    20977308.439
  22021371.928      418597.11049    309397.40346  22021371.232    22021380.645
  20285324.285   -15900684.41849 -12383843.32748  20285323.463    20285331.227
  21428456.434   -18561323.09249 -14447505.77347  21428455.849    21428463.802
  23091825.868    -8807249.67449  -6843779.63146  23091825.282    23091835.296
  21758394.011    -2856019.17849  -2212791.64347  21758393.338    21758401.389
  23623426.107    -7555773.66149  -5879270.07545  23623425.783    23623436.899
  21703472.159   -18155883.96949 -13933739.71047  21703471.719    21703480.328
 03  4  2  0 32 30.0000000  0  8G18G17G15G14G31G23G 9G 3
  20985180.017   -10811744.13449  -8411249.07247  20985179.453    20985185.993
  22033200.074      480754.30849    357831.54046  22033199.333    22033208.814
  20288066.952   -15886271.50349 -12372612.47748  20288066.144    20288073.920
  21413426.934   -18640303.21749 -14509048.62247  21413426.343    21413434.277
  23079918.692    -8869822.51349  -6892537.61946  23079918.016    23079927.973
  21767747.586    -2806865.84149  -2174490.34947  21767746.902    21767754.972
  23617384.497    -7587521.44349  -5904008.50845  23617384.335    23617395.456
  21700772.192   -18170072.20149 -13944795.44447  21700771.768    21700780.422
 03  4  2  0 33  0.0000000  0  8G18G17G15G14G31G23G 9G 3
  20993095.861   -10770146.41349  -8378835.25847  20993095.263    20993101.783
  22045087.530      543223.11449    406508.48746  22045086.784    22045096.274
  20290882.660   -15871474.63649 -12361082.45248  20290881.865    20290889.646
  21398476.386   -18718868.17249 -14570267.96847  21398475.853    21398483.764
  23068101.719    -8931920.40549  -6940925.50246  23068101.056    23068111.057
  21777120.356    -2757611.41349  -2136110.28847  21777119.684    21777127.774
  23611437.129    -7618774.46749  -5928361.39245  23611436.893    23611448.082
  21698179.851   -18183695.03749 -13955410.61247  21698179.413    21698188.038
 03  4  2  0 33 30.0000000  0  8G18G17G15G14G31G23G 9G 3
  21001049.722   -10728348.50649  -8346265.46447  21001049.126    21001055.646
  22057034.318      606003.76649    455428.42946  22057033.594    22057043.096
  20293771.778   -15856292.34049 -12349252.09148  20293770.965    20293778.778
  21383605.425   -18797015.41849 -14631161.82747  21383604.889    21383612.729
  23056375.683    -8993540.76549  -6988941.29946  23056375.024    23056385.023
  21786512.287    -2708256.44949  -2097651.89147  21786511.662    21786519.738
  23605584.580    -7649529.84649  -5952326.51045  23605584.235    23605595.445
  21695695.227   -18196751.33349 -13965584.32247  21695694.803    21695703.493
 03  4  2  0 34  0.0000000  0  8G18G17G15G14G31G23G 9G 3
  21009041.473   -10686351.54449  -8313540.56347  21009040.854    21009047.383
  22069040.448      669096.30549    504591.39846  22069039.742    22069049.255
  20296734.353   -15840723.93949 -12337120.86848  20296733.534    20296741.362
  21368814.329   -18874742.86249 -14691728.56247  21368813.778    21368821.601
  23044740.874    -9054681.66649  -7036583.47646  23044740.199    23044750.253
  21795923.166    -2658801.86549  -2059115.86247  21795922.557    21795930.627
  23599827.061    -7679785.67249  -5975902.37045  23599826.770    23599837.885
  21693318.471   -18209241.15949 -13975316.63147  21693318.049    21693326.738
 03  4  2  0 34 30.0000000  0  8G18G17G15G14G31G23G 9G 3
  21017070.771   -10644156.92349  -8280661.64247  21017070.205    21017076.730
  22081105.870      732500.33449    553997.08346  22081105.159    22081114.682
  20299770.525   -15824768.77249 -12324688.26848  20299769.692    20299777.523
  21354103.372   -18952048.84049 -14751966.89047  21354102.822    21354110.632
  23033197.582    -9115341.37149  -7083850.70346  23033196.949    23033206.938
  21805352.852    -2609248.92149  -2020503.19447  21805352.189    21805360.225
  23594164.944    -7709540.08749  -5999087.52045  23594164.611    23594175.719
  21691049.425   -18221164.49649 -13984607.52247  21691049.059    21691057.757
 03  4  2  0 35  0.0000000  0  8G18G17G15G14G31G23G 9G 3
  21025137.734   -10601765.02649  -8247629.00147  21025137.150    21025143.661
  22093230.702      796216.65149    603646.11446  22093230.025    22093239.579
  20302880.549   -15808425.56949 -12311953.30648  20302879.719    20302887.526
  21339473.149   -19028930.65849 -14811874.70847  21339472.601    21339480.423
  23021746.453    -9175517.27149  -7130740.93946  23021745.857    23021755.803
  21814801.056    -2559597.96749  -1981814.15547  21814800.418    21814808.488
  23588598.756    -7738790.33149  -6021879.79345  23588598.413    23588609.352
  21688888.488   -18232520.43449 -13993456.28247  21688888.085    21688896.784
 03  4  2  0 35 30.0000000  0  8G18G17G15G14G31G23G 9G 3
  21033241.757   -10559177.87949  -8214444.21347  21033241.200    21033247.721
  22105414.708      860243.67849    653537.26146  22105413.970    22105423.588
  20306064.387   -15791694.46749 -12298916.08248  20306063.535    20306071.334
  21324923.899   -19105387.34249 -14871451.24647  21324923.283    21324931.080
  23010387.561    -9235208.45649  -7177253.49646  23010386.980    23010396.824
  21824267.642    -2509850.74449  -1943050.09847  21824267.014    21824275.082
  23583128.739    -7767535.25649  -6044278.32445  23583128.390    23583139.184
  21686835.361   -18243309.67449 -14001863.47147  21686834.967    21686843.624
 03  4  2  0 36  0.0000000  0  8G18G17G15G14G31G23G 9G 3
  21041382.910   -10516396.05949  -8181107.74147  21041382.334    21041388.865
  22117658.052      924582.61049    703671.43346  22117657.294    22117666.909
  20309322.283   -15774574.15549 -12285575.57848  20309321.439    20309329.212
  21310455.999   -19181416.05649 -14930694.31747  21310455.429    21310463.176
  22999121.398    -9294412.23049  -7223386.23446  22999120.810    22999130.594
  21833752.465    -2460007.63449  -1904211.33247  21833751.828    21833759.938
  23577755.319    -7795772.15349  -6066281.01445  23577755.010    23577765.767
  21684890.308   -18253531.40849 -14009828.44147  21684889.903    21684898.467
 03  4  2  0 36 30.0000000  0  8G18G17G15G14G31G23G 9G 3
  21049560.839   -10473420.84249  -8147620.56647  21049560.263    21049566.796
  22129960.577      989232.83549    754048.18646  22129959.848    22129969.479
  20312654.322   -15757064.20649 -12271931.45848  20312653.483    20312661.247
  21296069.813   -19257015.40349 -14989602.79947  21296069.258    21296076.988
  22987948.286    -9353127.09649  -7269137.99946  22987947.705    22987957.546
  21843255.395    -2410069.90049  -1865298.82447  21843254.690    21843262.812
  23572478.937    -7823499.47449  -6087886.60645  23572478.593    23572489.311
  21683053.155   -18263185.76149 -14017351.29947  21683052.735    21683061.250
 03  4  2  0 37  0.0000000  0  8G18G17G15G14G31G23G 9G 3
  21057775.338   -10430253.22549  -8113983.46847  21057774.776    21057781.313
  22142322.333     1054194.31949    804667.47246  22142321.599    22142331.245
  20316060.621   -15739163.66849 -12257982.98348  20316059.804    20316067.569
  21281765.799   -19332183.13049 -15048174.96647  21281765.251    21281772.954
  22976868.587    -9411350.99549  -7314507.19246  22976867.996    22976877.897
  21852776.109    -2360038.37249  -1826313.22847  21852775.418    21852783.509
  23567299.841    -7850714.99349  -6109093.41245  23567299.588    23567310.187
  21681324.064   -18272272.42449 -14024431.79947  21681323.622    21681332.123
 03  4  2  0 37 30.0000000  0  8G18G17G15G14G31G23G 9G 3
  21066026.248   -10386894.46949  -8080197.43547  21066025.664    21066032.185
  22154743.271     1119466.42449    855528.79846  22154742.541    22154752.192
  20319541.369   -15720872.13749 -12243729.83448  20319540.545    20319548.337
  21267544.189   -19406917.54149 -15106409.48247  21267543.676    21267551.357
  22965882.738    -9469082.30949  -7359492.55646  22965882.061    22965891.941
  21862314.456    -2309914.29649  -1787255.51247  21862313.725    21862321.816
  23562218.695    -7877416.98949  -6129900.06045  23562218.296    23562228.819
  21679702.917   -18280791.45849 -14031070.00247  21679702.484    21679710.979
 03  4  2  0 38  0.0000000  0  8G18G17G15G14G31G23G 9G 3
  21074313.339   -10343345.67149  -8046263.31247  21074312.767    21074319.258
  22167223.318     1185049.21849    906632.21646  22167222.571    22167232.225
  20323096.736   -15702188.59449 -12229171.21648  20323095.884    20323103.689
  21253405.458   -19481216.73749 -15164304.86347  21253404.934    21253412.583
  22954990.831    -9526319.19049  -7404092.65946  22954990.161    22954999.986
  21871870.193    -2259698.32949  -1748126.19847  21871869.520    21871877.623
  23557235.465    -7903603.53149  -6150305.06245  23557235.076    23557245.778
  21678189.765   -18288742.85449 -14037265.87747  21678189.332    21678197.873
 03  4  2  0 38 30.0000000  0  8G18G17G15G14G31G23G 9G 3
  21082636.472   -10299607.24949  -8012181.43247  21082635.885    21082642.390
  22179762.523     1250943.05449    957978.00346  22179761.760    22179771.456
  20326726.850   -15683112.05749 -12214306.37048  20326726.030    20326733.814
  21239350.078   -19555078.23049 -15221859.18447  21239349.495    21239357.127
  22944193.535    -9583059.07249  -7448305.47346  22944192.886    22944202.602
  21881443.395    -2209390.61949  -1708925.39547  21881442.742    21881450.856
  23552350.748    -7929271.83849  -6170306.24745  23552350.477    23552361.144
  21676784.786   -18296125.77949 -14043018.79447  21676784.385    21676792.974
 03  4  2  0 39  0.0000000  0  8G18G17G15G14G31G23G 9G 3
  21090995.372   -10255680.69849  -7977952.95647  21090994.828    21091001.355
  22192360.893     1317147.84349   1009566.09646  22192360.169    22192369.884
  20330431.874   -15663642.14049 -12199134.99548  20330431.045    20330438.823
  21225378.247   -19628500.30749 -15279071.10147  21225377.667    21225385.277
  22933491.140    -9639300.47549  -7492129.85846  22933490.535    22933500.054
  21891033.855    -2158992.63949  -1669654.24947  21891033.173    21891041.302
  23547564.927    -7954420.36549  -6189902.41745  23547564.671    23547575.338
  21675487.948   -18302940.57249 -14048329.01047  21675487.532    21675496.118
 03  4  2  0 39 30.0000000  0  8G18G17G15G14G31G23G 9G 3
  21099389.923   -10211567.01749  -7943578.66147  21099389.377    21099395.939
  22205018.380     1383663.12949   1061396.13146  22205017.686    22205027.334
  20334211.845   -15643778.33049 -12183656.68748  20334211.009    20334218.772
  21211490.385   -19701481.33449 -15335939.34647  21211489.791    21211497.332
  22922883.978    -9695041.69249  -7535564.50446  22922883.348    22922892.699
  21900641.325    -2108505.24149  -1630313.42347  21900640.612    21900648.718
  23542878.392    -7979047.37049  -6209092.18745  23542878.194    23542888.846
  21674299.256   -18309187.13349 -14053196.44747  21674298.825    21674307.457
 03  4  2  0 40  0.0000000  0  8G18G17G15G14G31G23G 9G 3
  21107819.771   -10167267.79349  -7909059.79247  21107819.221    21107825.803
  22217734.791     1450487.78649   1113467.24146  22217734.043    22217743.623
  20338066.762   -15623520.46349 -12167871.32248  20338065.950    20338073.702
  21197686.718   -19774019.89149 -15392462.80647  21197686.117    21197693.629
  22912372.221    -9750281.47149  -7578608.42546  22912371.615    22912380.829
  21910265.487    -2057929.98349  -1590904.14247  21910264.789    21910272.872
  23538291.522    -8003151.49049  -6227874.54445  23538291.340    23538301.844
  21673218.471   -18314866.36249 -14057621.80347  21673218.063    21673226.653
 03  4  2  0 40 30.0000000  0  8G18G17G15G14G31G23G 9G 3
  21116284.801   -10122783.97449  -7874397.07647  21116284.241    21116290.813
  22230509.964     1517621.62549   1165779.27146  22230509.199    22230518.767
  20341996.831   -15602867.64049 -12151778.19548  20341996.009    20342003.785
  21183967.592   -19846114.05049 -15448639.98547  21183967.015    21183974.497
  22901956.227    -9805017.95249  -7621260.15646  22901955.586    22901964.841
  21919906.264    -2007267.50549  -1551426.89547  21919905.565    21919913.629
  23533804.695    -8026730.94349  -6246248.05345  23533804.336    23533814.866
  21672245.808   -18319977.77249 -14061604.70947  21672245.407    21672253.989
 03  4  2  0 41  0.0000000  0  8G18G17G15G14G31G23G 9G 3
  21124784.806   -10078116.33549  -7839591.13047  21124784.246    21124790.795
  22243343.993     1585065.04549   1218332.52846  22243343.294    22243352.896
  20346002.254   -15581818.89549 -12135376.56348  20346001.446    20346009.225
  21170333.406   -19917761.70549 -15504469.23547  21170332.824    21170340.275
  22891636.268    -9859249.09849  -7663518.10646  22891635.641    22891644.868
  21929563.494    -1956518.42449  -1511882.16247  21929562.800    21929570.903
  23529417.913    -8049783.39949  -6264210.94045  23529417.563    23529428.029
  21671381.263   -18324521.21149 -14065145.03047  21671380.835    21671389.397
 03  4  2  0 41 30.0000000  0  8G18G17G15G14G31G23G 9G 3
  21133319.653   -10033265.09549  -7804642.11747  21133319.098    21133325.699
  22256237.184     1652818.73549   1271127.56646  22256236.418    22256246.044
  20350083.290   -15560372.87849 -12118665.36948  20350082.471    20350090.250
  21156784.663   -19988960.42349 -15559948.67147  21156784.093    21156791.507
  22881412.892    -9912972.43149  -7705380.37446  22881412.288    22881421.584
  21939237.187    -1905682.84549  -1472270.02147  21939236.483    21939244.604
  23525131.946    -8072306.36349  -6281761.21445  23525131.530    23525142.060
  21670624.812   -18328496.04949 -14068242.29447  21670624.379    21670632.948
 03  4  2  0 42  0.0000000  0  8G18G17G15G14G31G23G 9G 3
  21141889.131    -9988232.22349  -7769551.56447  21141888.555    21141895.176
  22269189.101     1720881.33349   1324163.29146  22269188.351    22269197.996
  20354239.835   -15538529.90749 -12101644.86348  20354239.034    20354246.824
  21143321.584   -20059709.17249 -15615077.48147  21143320.994    21143328.381
  22871286.304    -9966187.17749  -7746846.31746  22871285.719    22871295.049
  21948927.001    -1854762.57649  -1432591.90147  21948926.294    21948934.387
  23520946.867    -8094298.91149  -6298898.18645  23520946.458    23520957.034
  21669976.393   -18331903.26949 -14070897.25947  21669975.998    21669984.568
 03  4  2  0 42 30.0000000  0  8G18G17G15G14G31G23G 9G 3
  21150493.086    -9943018.20849  -7734319.86147  21150492.529    21150499.135
  22282199.790     1789253.07949   1377439.91046  22282199.094    22282208.798
  20358472.207   -15516288.52349 -12084313.90548  20358471.414    20358479.206
  21129944.585   -20130005.58249 -15669853.82047  21129943.984    21129951.347
  22861257.045   -10018890.79949  -7787914.01346  22861256.471    22861265.805
  21958632.900    -1803757.67449  -1392847.82847  21958632.186    21958640.290
  23516863.117    -8115758.69249  -6315620.01145  23516862.675    23516873.188
  21669436.171   -18334742.18549 -14073109.38547  21669435.762    21669444.380
 03  4  2  0 43  0.0000000  0  8G18G17G15G14G31G23G 9G 3
  21159131.226    -9897624.51649  -7698948.14847  21159130.669    21159137.269
  22295269.359     1857933.51249   1430957.07746  22295268.617    22295278.302
  20362780.410   -15493648.86649 -12066672.60648  20362779.611    20362787.403
  21116653.825   -20199848.46549 -15724276.76447  21116653.235    21116660.597
  22851325.212   -10071082.37549  -7828582.68146  22851324.618    22851334.041
  21968354.657    -1752669.42549  -1353038.81447  21968353.945    21968362.056
  23512880.939    -8136684.63849  -6331925.86245  23512880.441    23512891.065
  21669003.825   -18337014.00349 -14074879.62947  21669003.441    21669012.026
 03  4  2  0 43 30.0000000  0  8G18G17G15G14G31G23G 9G 3
  21167803.365    -9852051.88349  -7663437.00247  21167802.865    21167809.455
  22308397.579     1926922.93749   1484715.01246  22308396.878    22308406.559
  20367164.571   -15470609.99749 -12048720.23648  20367163.766    20367171.545
  21103449.799   -20269235.62349 -15778344.59647  21103449.226    21103456.567
  22841491.229   -10122759.82649  -7868850.76746  22841490.645    22841500.146
  21978092.179    -1701498.50049  -1313165.37847  21978091.454    21978099.554
  23509000.788    -8157074.71149  -6347814.12945  23509000.308    23509010.893
  21668679.505   -18338718.29049 -14076207.63047  21668679.125    21668687.741
 03  4  2  0 44  0.0000000  0  8G18G17G15G14G31G23G 9G 3
  21176509.386    -9806301.38449  -7627787.27447  21176508.868    21176515.442
  22321584.504     1996220.48749   1538713.04746  22321583.789    22321593.492
  20371624.776   -15447171.56449 -12030456.52048  20371623.948    20371631.702
  21090332.755   -20338165.84949 -15832056.37747  21090332.197    21090339.518
  22831755.311   -10173921.84349  -7908717.20246  22831754.706    22831764.328
  21987845.174    -1650246.03949  -1273228.41047  21987844.512    21987852.575
  23505222.745    -8176927.38249  -6363283.66645  23505222.373    23505232.923
  21668463.077   -18339855.34749 -14077093.64047  21668462.705    21668471.380
 03  4  2  0 44 30.0000000  0  8G18G17G15G14G31G23G 9G 3
  21185249.065    -9760374.05449  -7591999.75147  21185248.548    21185255.131
  22334829.990     2065825.67849   1592950.79546  22334829.249    22334839.052
  20376161.140   -15423332.79349 -12011880.85648  20376160.308    20376168.057
  21077303.082   -20406636.92449 -15885410.37647  21077302.527    21077309.808
  22822117.880   -10224566.57849  -7948180.53846  22822117.277    22822127.011
  21997613.632    -1598912.59949  -1233228.33847  21997612.939    21997621.017
  23501547.499    -8196240.90149  -6378333.08945  23501547.087    23501557.616
  21668354.611   -18340425.38949 -14077537.82247  21668354.230    21668362.928
 03  4  2  0 45  0.0000000  0  8G18G17G15G14G31G23G 9G 3
  21194022.068    -9714271.52849  -7556075.71047  21194021.554    21194028.130
  22348133.859     2135738.00749   1647427.87546  22348133.179    22348143.002
  20380773.655   -15399093.74249 -11992993.29048  20380772.845    20380780.603
  21064360.910   -20474648.05749 -15938405.98147  21064360.387    21064367.636
  22812579.165   -10274693.00649  -7987240.03646  22812578.541    22812588.210
  22007397.188    -1547499.47449  -1193166.17647  22007396.516    22007404.626
  23497975.162    -8215014.36749  -6392961.67245  23497974.611    23497985.029
  21668353.933   -18340429.12749 -14077540.72447  21668353.511    21668362.229
 03  4  2  0 45 30.0000000  0  8G18G17G15G14G31G23G 9G 3
  21202828.530    -9667993.68649  -7520015.05947  21202827.978    21202834.507
  22361496.332     2205957.92249   1702144.62146  22361495.689    22361505.534
  20385462.665   -15374452.81449 -11973792.57148  20385461.829    20385469.605
  21051506.869   -20542196.48849 -15991041.04147  21051506.296    21051513.545
  22803139.570   -10324298.56949  -8025893.65746  22803138.935    22803148.488
  22017196.002    -1496006.53849  -1153041.82747  22017195.313    22017203.431
  23494505.819    -8233244.86549  -6407167.18745  23494505.382    23494515.696
  21668461.101   -18339865.83549 -14077101.79447  21668460.707    21668469.405
 03  4  2  0 46  0.0000000  0  8G18G17G15G14G31G23G 9G 3
  21211667.946    -9621542.35849  -7483819.22947  21211667.398    21211673.912
  22374917.214     2276484.62349   1757100.43246  22374916.488    22374926.368
  20390228.070   -15349410.37149 -11954278.98648  20390227.249    20390235.025
  21038740.966   -20609281.32049 -16043314.85647  21038740.403    21038747.623
  22793799.161   -10373382.45649  -8064140.77946  22793798.532    22793808.059
  22027009.688    -1444435.31449  -1112856.47847  22027008.989    22027017.083
  23491140.056    -8250931.54549  -6420948.91345  23491139.643    23491149.961
  21668675.935   -18338736.89549 -14076222.09647  21668675.518    21668684.186
 03  4  2  0 46 30.0000000  0  8G18G17G15G14G31G23G 9G 3
  21220540.267    -9574918.10649  -7447488.65547  21220539.696    21220546.218
  22388396.378     2347317.97249   1812295.18146  22388395.696    22388405.538
  20395070.125   -15323965.29749 -11934451.66148  20395069.277    20395077.062
  21026063.698   -20675900.36849 -16095225.72547  21026063.130    21026070.357
  22784558.385   -10421942.68249  -8101979.84846  22784557.759    22784567.317
  22036838.195    -1392786.27449  -1072610.48947  22036837.495    22036845.615
  23487878.174    -8268072.45849  -6434305.41245  23487877.781    23487888.272
  21668998.472   -18337042.02649 -14074901.41747  21668998.065    21669006.673
 03  4  2  0 47  0.0000000  0  8G18G17G15G14G31G23G 9G 3
  21229445.184    -9528122.16749  -7411024.30247  21229444.661    21229451.190
  22401933.839     2418457.65249   1867728.62646  22401933.204    22401943.072
  20399988.745   -15298117.60349 -11914310.60848  20399987.932    20399995.717
  21013475.292   -20742052.42349 -16146772.70347  21013474.724    21013481.955
  22775417.411   -10469977.96349  -8139409.88446  22775416.798    22775426.480
  22046681.305    -1341060.50949  -1032304.72647  22046680.571    22046688.710
  23484720.427    -8284666.43849  -6447235.70345  23484720.017    23484730.490
  21669428.591   -18334781.75349 -14073140.15847  21669428.167    21669436.717
 03  4  2  0 47 30.0000000  0  8G18G17G15G14G31G23G 9G 3
  21238382.732    -9481155.02149  -7374426.54547  21238382.184    21238388.774
  22415529.529     2489903.02049   1923400.27346  22415528.852    22415538.791
  20404984.217   -15271866.27349 -11893855.03248  20404983.404    20404991.176
  21000976.140   -20807735.40349 -16197954.17347  21000975.607    21000982.816
  22766376.765   -10517486.57349  -8176429.52346  22766376.146    22766385.805
  22056538.861    -1289258.37049   -991939.44447  22056538.176    22056546.355
  23481667.015    -8300711.43049  -6459738.23745  23481666.650    23481677.110
  21669966.326   -18331956.07949 -14070938.34047  21669965.915    21669974.415
 03  4  2  0 48  0.0000000  0  8G18G17G15G14G31G23G 9G 3
  21247352.531    -9434018.73649  -7337696.98447  21247351.974    21247358.552
  22429183.262     2561653.54649   1979309.70146  22429182.530    22429192.525
  20410056.397   -15245211.64249 -11873085.19748  20410055.563    20410063.350
  20988566.408   -20872948.61949 -16248769.59347  20988565.868    20988573.096
  22757436.529   -10564467.85249  -8213038.27746  22757435.935    22757445.467
  22066410.735    -1237381.39949   -951515.85447  22066410.062    22066418.223
  23478718.240    -8316207.12349  -6471812.73345  23478717.882    23478728.205
  21670611.436   -18328566.15049 -14068296.83647  21670610.988    21670619.459
 03  4  2  0 48 30.0000000  0  8G18G17G15G14G31G23G 9G 3
  21256354.528    -9386713.06849  -7300835.44047  21256353.972    21256360.519
  22442895.018     2633709.40049   2035457.04746  22442894.317    22442904.370
  20415205.610   -15218152.37749 -11852000.05948  20415204.788    20415212.557
  20976246.540   -20937689.78649 -16299217.18247  20976246.007    20976253.192
  22748597.132   -10610919.43449  -8249234.27246  22748596.485    22748605.891
  22076296.926    -1185429.42149   -911033.81347  22076296.218    22076304.418
  23475874.562    -8331151.08649  -6483457.31345  23475874.101    23475884.363
  21671363.938   -18324611.72649 -14065215.47047  21671363.537    21671371.933
 03  4  2  0 49  0.0000000  0  8G18G17G15G14G31G23G 9G 3
  21265388.373    -9339239.84249  -7263843.32947  21265387.838    21265394.387
  22456664.863     2706069.97249   2091841.83446  22456664.175    22456674.230
  20420431.881   -15190688.21249 -11830599.41148  20420431.070    20420438.832
  20964016.688   -21001957.88449 -16349296.14847  20964016.144    20964023.310
  22739858.712   -10656840.19249  -8285016.63746  22739858.044    22739867.372
  22086197.167    -1133403.53949   -870494.18747  22086196.454    22086204.594
  23473135.754    -8345542.09149  -6494671.02945  23473135.467    23473145.688
  21672223.779   -18320093.57849 -14061694.83847  21672223.322    21672231.682
 03  4  2  0 49 30.0000000  0  8G18G17G15G14G31G23G 9G 3
  21274454.052    -9291599.05749  -7226720.65547  21274453.542    21274460.104
  22470492.715     2778735.09549   2148463.92246  22470491.942    22470502.040
  20425735.287   -15162818.63349 -11808882.86248  20425734.458    20425742.228
  20951877.271   -21065750.55549 -16399004.65547  20951876.718    20951883.862
  22731221.517   -10702228.42749  -8320384.05746  22731220.863    22731230.215
  22096111.329    -1081304.29649   -829897.39547  22096110.611    22096118.767
  23470502.732    -8359378.62749  -6505452.69445  23470502.479    23470512.735
  21673190.803   -18315011.88849 -14057735.08347  21673190.363    21673198.709
 03  4  2  0 50  0.0000000  0  8G18G17G15G14G31G23G 9G 3
  21283551.415    -9243792.31349  -7189468.66647  21283550.874    21283557.408
  22484378.241     2851704.02049   2205322.75446  22484377.509    22484387.655
  20431115.893   -15134543.35549 -11786850.18048  20431115.073    20431122.844
  20939828.504   -21129066.96849 -16448342.05447  20939827.959    20939835.100
  22722685.900   -10747083.13149  -8355335.74446  22722685.302    22722694.656
  22106039.213    -1029132.81449   -789244.31647  22106038.518    22106046.636
  23467975.558    -8372659.36749  -6515801.25545  23467975.219    23467985.415
  21674264.844   -18309367.54949 -14053336.90447  21674264.399    21674272.823
 03  4  2  0 50 30.0000000  0  8G18G17G15G14G31G23G 9G 3
  21292680.250    -9195820.12749  -7152087.75547  21292679.705    21292686.223
  22498321.617     2924976.86449   2262418.39646  22498320.907    22498331.079
  20436573.860   -15105861.71449 -11764500.85248  20436573.055    20436580.808
  20927870.748   -21191905.30549 -16497306.92347  20927870.177    20927877.293
  22714252.102   -10791402.59249  -8389870.34946  22714251.521    22714260.965
  22115980.758     -976889.42549   -748535.19647  22115980.115    22115988.236
  23465554.202    -8385382.95849  -6525715.68545  23465553.946    23465564.149
  21675445.916   -18303160.62649 -14048500.34847  21675445.511    21675453.974
 03  4  2  0 51  0.0000000  0  8G18G17G15G14G31G23G 9G 3
  21301840.383    -9147683.42749  -7114578.65247  21301839.863    21301846.374
  22512322.772     2998553.00449   2319750.37146  22512322.044    22512332.156
  20442109.238   -15076772.94049 -11741834.27848  20442108.443    20442116.222
  20916004.279   -21254263.60849 -16545897.74547  20916003.732    20916010.801
  22705920.479   -10835185.17049  -8423986.61546  22705919.948    22705929.433
  22125936.027     -924574.55649   -707770.39947  22125935.344    22125943.471
  23463239.098    -8397547.67849  -6535194.65045  23463238.918    23463249.219
  21676733.995   -18296391.49549 -14043225.70647  21676733.580    21676742.152
 03  4  2  0 51 30.0000000  0  8G18G17G15G14G31G23G 9G 3
  21311031.536    -9099383.68749  -7076942.51147  21311030.960    21311037.508
  22526381.559     3072431.64449   2377318.04746  22526380.761    22526390.906
  20447722.090   -15047277.27249 -11718850.64248  20447721.277    20447729.056
  20904229.312   -21316141.30149 -16594114.06647  20904228.764    20904235.795
  22697691.263   -10878430.18549  -8457684.00046  22697690.695    22697700.086
  22135904.534     -872189.60849   -666950.97947  22135903.893    22135912.029
  23461030.751    -8409152.81949  -6544237.56445  23461030.377    23461040.814
  21678128.894   -18289061.30949 -14037513.87547  21678128.494    21678137.097
 03  4  2  0 52  0.0000000  0  8G18G17G15G14G31G23G 9G 3
  21320253.563    -9050921.54849  -7039179.82047  21320252.986    21320259.569
  22540497.579     3146612.25749   2435121.05046  22540496.948    22540507.100
  20453412.514   -15017374.05849 -11695549.43748  20453411.688    20453419.427
  20892546.156   -21377536.67849 -16641954.55547  20892545.602    20892552.579
  22689564.587   -10921135.93049  -8490961.18146  22689564.012    22689573.321
  22145886.405     -819734.93249   -626077.23147  22145885.722    22145893.885
  23458929.058    -8420196.71649  -6552843.14245  23458928.782    23458939.067
  21679630.442   -18281170.58449 -14031365.26247  21679630.044    21679638.659
 03  4  2  0 52 30.0000000  0  8G18G17G15G14G31G23G 9G 3
  21329506.342    -9002297.74049  -7001291.15647  21329505.800    21329512.426
  22554671.267     3221095.00449   2493159.46746  22554670.586    22554680.753
  20459180.566   -14987062.82449 -11671930.29247  20459179.745    20459187.449
  20880955.044   -21438448.09349 -16689417.93247  20880954.496    20880961.465
  22681540.861   -10963301.02749  -8523817.08146  22681540.296    22681549.491
  22155881.382     -767211.13349   -585149.62147  22155880.703    22155888.871
  23456934.549    -8430678.15749  -6561010.44745  23456934.282    23456944.525
  21681238.616   -18272719.75149 -14024780.19747  21681238.211    21681246.877
 03  4  2  0 53  0.0000000  0  8G18G17G15G14G31G23G 9G 3
  21338789.529    -8953514.22049  -6963278.04347  21338789.004    21338795.630
  22568902.163     3295878.37449   2551432.14446  22568901.405    22568911.561
  20465026.158   -14956343.99649 -11647993.54547  20465025.348    20465033.068
  20869456.178   -21498874.98249 -16736503.75847  20869455.607    20869462.521
  22673620.093   -11004925.13249  -8556251.40946  22673619.529    22673628.622
  22165889.165     -714619.80949   -544169.39647  22165888.485    22165896.687
  23455047.196    -8440596.89249  -6568739.25845  23455046.719    23455056.962
  21682953.089   -18263710.12849 -14017759.71447  21682952.714    21682961.369
 03  4  2  0 53 30.0000000  0  8G18G17G15G14G31G23G 9G 3
  21348103.084    -8904571.22349  -6925140.66147  21348102.536    21348109.174
  22583190.281     3370962.70049   2609939.33346  22583189.563    22583199.644
  20470949.539   -14925216.58049 -11623738.41647  20470948.697    20470956.416
  20858049.842   -21558815.36349 -16783210.48847  20858049.283    20858056.180
  22665802.658   -11046006.38749  -8588262.74046  22665802.052    22665811.061
  22175909.861     -661960.89249   -503136.50347  22175909.178    22175917.375
  23453266.950    -8449950.98749  -6576028.11545  23453266.681    23453276.984
  21684773.944   -18254141.78349 -14010303.86547  21684773.534    21684782.176
 03  4  2  0 54  0.0000000  0  8G18G17G15G14G31G23G 9G 3
  21357447.044    -8855468.60649  -6886878.90147  21357446.477    21357453.129
  22597535.634     3446348.06449   2668681.09646  22597534.962    22597545.071
  20476950.863   -14893679.33149 -11599163.94047  20476950.023    20476957.783
  20846736.534   -21618267.06549 -16829536.43047  20846735.945    20846742.829
  22658088.778   -11086542.64349  -8619849.39646  22658088.202    22658097.229
  22185943.414     -609234.34649   -462050.90747  22185942.722    22185950.922
  23451594.843    -8458738.31649  -6582875.32945  23451594.608    23451604.908
  21686701.078   -18244014.67049 -14002412.62347  21686700.650    21686709.293
 03  4  2  0 54 30.0000000  0  8G18G17G15G14G31G23G 9G 3
  21366820.898    -8806208.39649  -6848494.34247  21366820.368    21366827.037
  22611937.947     3522032.92149   2727656.22946  22611937.331    22611947.514
  20483029.971   -14861733.10249 -11574270.77647  20483029.164    20483036.943
  20835516.204   -21677229.80449 -16875481.36447  20835515.623    20835522.513
  22650478.727   -11126533.65149  -8651011.17046  22650478.121    22650487.150
  22195989.552     -556441.85349   -420913.91847  22195988.837    22195997.024
  23450030.604    -8466958.59149  -6589280.69245  23450030.341    23450040.648
  21688734.200   -18233330.57749 -13994087.36247  21688733.792    21688742.373
 03  4  2  0 55  0.0000000  0  8G18G17G15G14G31G23G 9G 3
  21376224.704    -8756791.43249  -6809987.62647  21376224.148    21376230.800
  22626397.386     3598016.82749   2786864.36946  22626396.662    22626406.840
  20489187.009   -14829377.51749 -11549058.63147  20489186.212    20489194.021
  20824389.173   -21735702.21949 -16921044.22547  20824388.616    20824395.524
  22642972.585   -11165978.39549  -8681747.29046  22642971.987    22642980.996
  22206048.018     -503584.00149   -379725.99847  22206047.323    22206055.545
  23448574.237    -8474610.83949  -6595243.43445  23448574.030    23448584.202
  21690873.213   -18222090.09249 -13985328.55147  21690872.801    21690881.354
 03  4  2  0 55 30.0000000  0  8G18G17G15G14G31G23G 9G 3
  21385658.172    -8707218.19049  -6771359.14547  21385657.607    21385664.279
  22640913.572     3674299.27449   2846305.14946  22640912.822    22640922.979
  20495422.111   -14796611.79549 -11523526.90647  20495421.315    20495429.120
  20813355.820   -21793682.61249 -16966223.69347  20813355.254    20813362.180
  22635570.683   -11204875.31549  -8712056.52346  22635570.071    22635579.120
  22216118.961     -450661.06249   -338487.36947  22216118.261    22216126.506
  23447226.556    -8481693.79149  -6600762.55945  23447226.193    23447236.165
  21693118.004   -18210293.75149 -13976136.60947  21693117.577    21693126.125
 03  4  2  0 56  0.0000000  0  8G18G17G15G14G31G23G 9G 3
  21395121.283    -8657489.51749  -6732609.54947  21395120.706    21395127.346
  22655486.490     3750880.30349   2905978.59746  22655485.764    22655495.917
  20501735.414   -14763435.26049 -11497675.06247  20501734.624    20501742.447
  20802416.363   -21851169.55949 -17011018.66347  20802415.807    20802422.727
  22628273.209   -11243223.00649  -8741937.77646  22628272.663    22628281.757
  22226202.145     -397673.55149   -297198.42247  22226201.441    22226209.689
  23445987.360    -8488205.90549  -6605836.87345  23445986.902    23445997.059
  21695468.401   -18197942.14549 -13966511.99647  21695467.980    21695476.530
 03  4  2  0 56 30.0000000  0  8G18G17G15G14G31G23G 9G 3
  21404613.733    -8607606.27749  -6693739.50847  21404613.175    21404619.835
  22670116.097     3827759.09849   2965884.07046  22670115.386    22670125.546
  20508126.921   -14729847.55149 -11471502.83047  20508126.150    20508133.971
  20791571.051   -21908161.83749 -17055428.17447  20791570.475    20791577.413
  22621080.543   -11281020.44849  -8771390.26346  22621080.012    22621089.146
  22236297.531     -344622.11349   -255859.66747  22236296.852    22236305.039
  23444857.110    -8494146.33149  -6610465.72445  23444856.644    23444866.641
  21697924.348   -18185036.16349 -13956455.40047  21697923.900    21697932.468
 03  4  2  0 57  0.0000000  0  8G18G17G15G14G31G23G 9G 3
  21414135.510    -8557569.23149  -6654749.61847  21414134.913    21414141.579
  22684802.351     3904935.33049   3026021.30546  22684801.659    22684811.785
  20514596.696   -14695848.87249 -11445010.36047  20514595.901    20514603.715
  20780820.097   -21964658.13249 -17099451.19947  20780819.518    20780826.456
  22613992.900   -11318266.51349  -8800413.10446  22613992.389    22614001.452
  22246404.945     -291507.29049   -214471.51047  22246404.275    22246412.492
  23443835.629    -8499514.21649  -6614648.42945  23443835.091    23443844.947
  21700485.590   -18171576.67249 -13945967.49247  21700485.177    21700493.721
 03  4  2  0 57 30.0000000  0  8G18G17G15G14G31G23G 9G 3
  21423686.328    -8507379.39049  -6615640.66747  21423685.751    21423692.421
  22699545.113     3982408.32649   3086389.77846  22699544.373    22699554.509
  20521144.691   -14661438.85649 -11418197.36947  20521143.888    20521151.698
  20770163.821   -22020657.23149 -17143086.80347  20770163.235    20770170.157
  22607010.437   -11354960.10449  -8829005.44346  22607009.863    22607018.862
  22256524.343     -238329.65649   -173034.40847  22256523.679    22256531.926
  23442923.007    -8504308.51849  -6618384.22745  23442922.583    23442932.426
  21703152.099   -18157564.23249 -13935048.71247  21703151.671    21703160.160
 03  4  2  0 58  0.0000000  0  8G18G17G15G14G31G23G 9G 3
  21433266.084    -8457037.44649  -6576413.19347  21433265.519    21433272.192
  22714344.078     4060177.34949   3146988.91946  22714343.397    22714353.564
  20527771.097   -14626617.06449 -11391063.51547  20527770.280    20527778.080
  20759602.284   -22076158.11049 -17186334.18747  20759601.707    20759608.628
  22600133.183   -11391100.31149  -8857166.56746  22600132.554    22600141.604
  22266655.579     -185090.01049   -131548.98847  22266654.865    22266663.103
  23442119.877    -8508528.23549  -6621672.27645  23442119.448    23442129.410
  21705923.522   -18143000.07049 -13923700.01647  21705923.082    21705931.600
 03  4  2  0 58 30.0000000  0  8G18G17G15G14G31G23G 9G 3
  21442874.743    -8406543.69049  -6537067.42947  21442874.157    21442880.841
  22729199.477     4138242.62149   3207818.92746  22729198.793    22729209.025
  20534475.980   -14591382.67549 -11363608.15847  20534475.159    20534482.964
  20749135.972   -22131158.79449 -17229191.80047  20749135.412    20749142.323
  22593361.586   -11426685.25349  -8884895.02646  22593360.922    22593369.995
  22276798.556     -131788.28349    -90015.19447  22276797.834    22276806.082
  23441426.461    -8512171.66849  -6624511.27545  23441426.108    23441436.035
  21708799.884   -18127884.55049 -13911921.69347  21708799.461    21708808.025
 03  4  2  0 59  0.0000000  0  8G18G17G15G14G31G23G 9G 3
  21452511.943    -8355899.83049  -6497604.69547  21452511.375    21452518.067
  22744110.961     4216602.76949   3268878.69146  22744110.300    22744120.567
  20541259.248   -14555736.37449 -11335831.83747  20541258.443    20541266.219
  20738764.887   -22185658.89149 -17271659.35647  20738764.342    20738771.226
  22586695.548   -11461714.81449  -8912190.72846  22586694.907    22586704.000
  22286953.088      -78425.89549    -48434.13447  22286952.384    22286960.594
  23440842.997    -8515238.52549  -6626900.98145  23440842.563    23440852.468
  21711780.895   -18112219.03349 -13899714.80547  21711780.477    21711789.056
 03  4  2  0 59 30.0000000  0  8G18G17G15G14G31G23G 9G 3
  21462177.510    -8305107.27849  -6458026.10247  21462176.894    21462183.556
  22759078.467     4295256.78949   3330167.45546  22759077.688    22759088.115
  20548120.882   -14519678.33249 -11307734.67247  20548120.073    20548127.874
  20728489.203   -22239657.72349 -17313736.31147  20728488.646    20728495.530
  22580135.435   -11496188.44949  -8939053.23146  22580134.818    22580143.761
  22297119.012      -25003.81849     -6806.56247  22297118.276    22297126.511
  23440369.120    -8517728.53649  -6628841.22045  23440368.700    23440378.626
  21714866.279   -18096005.19449 -13887080.64747  21714865.871    21714874.463
 03  4  2  1  0  0.0000000  0  8G18G17G15G14G31G23G 9G 3
  21471871.381    -8254165.65049  -6418331.33947  21471870.793    21471877.414
  22774101.706     4374204.70349   3391685.21446  22774100.958    22774111.461
  20555061.124   -14483207.24449 -11279315.66047  20555060.278    20555068.098
  20718309.314   -22293153.30649 -17355421.12647  20718308.763    20718315.635
  22573681.380   -11530104.20249  -8965481.04046  22573680.756    22573689.723
  22307296.359       28478.45549     34867.90647  22307295.620    22307303.893
  23440005.464    -8519639.94949  -6630330.57645  23440004.972    23440014.918
  21718056.021   -18079242.83049 -13874019.06247  21718055.623    21718064.206
 03  4  2  1  0 30.0000000  0  8G18G17G15G14G31G23G 9G 3
  21481593.366    -8203076.33949  -6378521.50147  21481592.813    21481599.398
  22789180.777     4453445.34149   3453431.05546  22789180.028    22789190.601
  20562079.851   -14446323.61049 -11250575.18047  20562079.009    20562086.818
  20708225.275   -22346144.93849 -17396713.25247  20708224.764    20708231.619
  22567333.533   -11563461.86349  -8991473.96346  22567332.931    22567341.942
  22317484.888       82019.63649     76588.29447  22317484.177    22317492.412
  23439751.709    -8520972.70849  -6631369.06045  23439751.258    23439761.407
  21721349.872   -18061933.75949 -13860531.48147  21721349.473    21721357.976
 03  4  2  1  1  0.0000000  0  8G18G17G15G14G31G23G 9G 3
  21491343.513    -8151839.25849  -6338596.51547  21491342.903    21491349.455
  22804315.607     4532978.99049   3515405.23346  22804314.851    22804325.484
  20569177.267   -14409026.44949 -11221512.47247  20569176.426    20569184.260
  20698237.556   -22398630.63849 -17437611.14547  20698236.989    20698243.851
  22561092.251   -11596259.44849  -9017030.46546  22561091.642    22561100.691
  22327684.761      135620.18049    118354.92247  22327684.026    22327692.270
  23439608.639    -8521724.90049  -6631955.12245  23439608.147    23439618.393
  21724747.716   -18044078.18049 -13846618.05347  21724747.300    21724755.776
 03  4  2  1  1 30.0000000  0  8G18G17G15G14G31G23G 9G 3
  21501121.365    -8100456.19449  -6298557.78247  21501120.774    21501127.376
  22819505.851     4612804.22749   3577606.62746  22819505.155    22819515.789
  20576353.262   -14371316.23449 -11192127.91047  20576352.448    20576360.254
  20688346.171   -22450610.11949 -17478114.58347  20688345.606    20688352.437
  22554957.634   -11628496.89549  -9042150.49946  22554956.998    22554966.023
  22337895.654      189278.71749    160166.75147  22337894.917    22337903.143
  23439575.735    -8521896.47949  -6632088.79245  23439575.369    23439585.530
  21728249.232   -18025677.64949 -13832279.97547  21728248.816    21728257.240
 03  4  2  1  2  0.0000000  0  8G18G17G15G14G31G23G 9G 3
  21510926.828    -8048927.75749  -6258405.77247  21510926.305    21510932.968
  22834751.620     4692921.03449   3640035.21146  22834750.990    22834761.620
  20583608.043   -14333192.30949 -11162420.97047  20583607.215    20583615.032
  20678551.287   -22502082.30949 -17518222.72947  20678550.727    20678557.555
  22548929.817   -11660173.08349  -9066833.19346  22548929.182    22548938.112
  22348117.563      242995.01749    202023.58147  22348116.791    22348125.036
  23439653.652    -8521486.33749  -6631769.16445  23439653.286    23439663.412
  21731854.316   -18006732.98449 -13817517.90147  21731853.880    21731862.293
 03  4  2  1  2 30.0000000  0  8G18G17G15G14G31G23G 9G 3
  21520759.977    -7997254.54549  -6218140.95647  21520759.428    21520766.072
  22850052.632     4773328.24949   3702690.09046  22850052.058    22850062.676
  20590941.530   -14294654.61049 -11132391.61247  20590940.688    20590948.511
  20668853.207   -22553045.94049 -17557934.60147  20668852.641    20668859.440
  22543009.083   -11691287.22349  -9091077.93746  22543008.400    22543017.252
  22358350.390      296768.42249    243924.90846  22358349.607    22358357.808
  23439842.424    -8520493.78349  -6630995.70345  23439842.094    23439851.886
  21735562.709   -17987245.38449 -13802332.76147  21735562.263    21735570.623
 03  4  2  1  3  0.0000000  0  8G18G17G15G14G31G23G 9G 3
  21530620.467    -7945437.58849  -6177764.12847  21530619.902    21530626.519
  22865408.818     4854025.15449   3765570.71946  22865408.187    22865418.919
  20598353.657   -14255703.54749 -11102040.15247  20598352.827    20598360.667
  20659251.933   -22603500.55749 -17597249.83747  20659251.378    20659258.178
  22537195.288   -11721838.83349  -9114884.33546  22537194.595    22537203.387
  22368593.858      350598.12249    285870.11346  22368593.055    22368601.282
  23440142.602    -8518918.69849  -6629768.28545  23440142.048    23440151.618
  21739374.096   -17967216.43249 -13786725.79147  21739373.675    21739382.072
 03  4  2  1  3 30.0000000  0  8G18G17G15G14G31G23G 9G 3
  21540508.031    -7893478.06149  -6137276.20247  21540507.447    21540514.090
  22880819.909     4935010.34649   3828675.95746  22880819.198    22880830.014
  20605844.452   -14216339.19149 -11071366.64847  20605843.641    20605851.473
  20649747.731   -22653445.19449 -17636167.68647  20649747.198    20649753.998
  22531488.715   -11751827.26349  -9138251.91146  22531488.055    22531496.741
  22378847.779      404483.34049    327858.57046  22378847.027    22378855.334
  23440552.957    -8516760.63849  -6628086.64745  23440552.603    23440562.596
  21743288.238   -17946647.36749 -13770697.95147  21743287.805    21743296.246
 03  4  2  1  4  0.0000000  0  8G18G17G15G14G31G23G 9G 3
  21550422.889    -7841375.19249  -6096676.58147  21550422.293    21550428.946
  22896286.035     5016284.88449   3892006.67446  22896285.312    22896296.123
  20613414.167   -14176560.16649 -11040370.02447  20613413.341    20613421.190
  20640340.973   -22702877.81549 -17674686.55947  20640340.430    20640347.218
  22525889.624   -11781250.57049  -9161179.11846  22525888.952    22525897.622
  22389112.436      458424.82149    369890.87346  22389111.740    22389120.087
  23441074.803    -8514017.60049  -6625949.16645  23441074.432    23441084.731
  21747305.132   -17925538.25349 -13754249.28947  21747304.724    21747313.161
 03  4  2  1  4 30.0000000  0  8G18G17G15G14G31G23G 9G 3
  21560364.742    -7789130.56449  -6055966.49947  21560364.160    21560370.790
  22911806.884     5097847.26449   3955561.68646  22911806.146    22911817.035
  20621062.711   -14136366.79949 -11009050.53647  20621061.896    20621069.746
  20631031.817   -22751797.58649 -17712805.81448  20631031.274    20631038.020
  22520398.120   -11810108.39649  -9183665.68946  22520397.433    22520406.124
  22399387.769      512421.59949    411966.25346  22399387.047    22399395.373
  23441707.939    -8510689.30449  -6623355.65645  23441707.693    23441718.010
  21751424.578   -17903890.59749 -13737380.99347  21751424.142    21751432.611
 03  4  2  1  5  0.0000000  0  8G18G17G15G14G31G23G 9G 3
  21570333.394    -7736744.91949  -6015146.53347  21570332.829    21570339.486
  22927382.367     5179696.64049   4019340.31946  22927381.654    22927392.573
  20628790.075   -14095759.27949 -10977408.33047  20628789.256    20628797.098
  20621820.359   -22800204.12649 -17750525.14648  20621819.801    20621826.493
  22515014.245   -11838400.22349  -9205711.22846  22515013.580    22515022.295
  22409673.406      566472.82049    454084.06646  22409672.706    22409681.020
  23442452.977    -8506775.39949  -6620305.79445  23442452.618    23442462.650
  21755646.161   -17881705.97749 -13720094.26847  21755645.740    21755654.237
 03  4  2  1  5 30.0000000  0  8G18G17G15G14G31G23G 9G 3
  21580328.724    -7684219.04949  -5974217.30947  21580328.160    21580334.846
  22943012.356     5261832.44849   4083342.16045  22943011.594    22943022.448
  20636596.350   -14054737.17449 -10945443.07847  20636595.512    20636603.369
  20612706.789   -22848096.19049 -17787843.58848  20612706.230    20612712.873
  22509738.333   -11866125.03549  -9227314.94346  22509737.713    22509746.444
  22419969.360      620578.57549    496244.36846  22419968.669    22419977.011
  23443309.244    -8502275.11549  -6616799.01845  23443308.915    23443318.509
  21759969.801   -17858985.19349 -13702389.76447  21759969.347    21759977.889
 03  4  2  1  6  0.0000000  0  8G18G17G15G14G31G23G 9G 3
  21590350.547    -7631554.22349  -5933179.80147  21590349.982    21590356.677
  22958696.678     5344253.82849   4147566.51545  22958695.836    22958706.751
  20644481.416   -14013300.88349 -10913155.07447  20644480.603    20644488.456
  20603691.186   -22895473.39649 -17824760.84048  20603690.622    20603697.206
  22504570.410   -11893282.72649  -9248476.71646  22504569.801    22504578.552
  22430275.508      674737.77449    538446.32746  22430274.824    22430283.159
  23444277.420    -8497188.65349  -6612835.50645  23444276.816    23444286.515
  21764395.112   -17835729.94549 -13684268.79147  21764394.673    21764403.217
 03  4  2  1  6 30.0000000  0  8G18G17G15G14G31G23G 9G 3
  21600398.723    -7578750.55449  -5892034.10847  21600398.185    21600404.824
  22974435.319     5426960.59049   4212013.25945  22974434.500    22974445.432
  20652445.432   -13971449.79949 -10880543.86047  20652444.620    20652452.476
  20594773.834   -22942334.24549 -17861275.74048  20594773.275    20594779.851
  22499510.546   -11919872.09249  -9269195.65946  22499509.954    22499518.696
  22440591.896      728950.30049    580689.82246  22440591.192    22440599.533
  23445356.695    -8491514.78249  -6608414.26445  23445356.378    23445366.272
  21768921.997   -17811940.98849 -13665731.94147  21768921.599    21768930.105
 03  4  2  1  7  0.0000000  0  8G18G17G15G14G31G23G 9G 3
  21610473.156    -7525809.08849  -5850781.02847  21610472.601    21610479.249
  22990228.003     5509950.93849   4276680.96345  22990227.116    22990238.059
  20660488.253   -13929184.37649 -10847609.78047  20660487.462    20660495.334
  20585954.821   -22988678.18949 -17897387.85348  20585954.271    20585960.828
  22494558.898   -11945892.88049  -9289471.54146  22494558.312    22494567.079
  22450918.255      783215.36549    622974.26646  22450917.473    22450925.843
  23446548.161    -8485253.29549  -6603535.15445  23446547.903    23446557.996
  21773550.111   -17787620.31249 -13646780.76447  21773549.685    21773558.197
 03  4  2  1  7 30.0000000  0  8G18G17G15G14G31G23G 9G 3
  21620573.814    -7472729.90749  -5809420.64547  21620573.258    21620579.902
  23006074.577     5593224.83649   4341569.63345  23006073.716    23006084.589
  20668610.024   -13886504.26949 -10814352.56747  20668609.230    20668617.108
  20577234.366   -23034504.36149 -17933096.51048  20577233.808    20577240.363
  22489715.657   -11971343.98749  -9309303.53346  22489715.055    22489723.819
  22461254.585      837533.07449    665299.72646  22461253.807    22461262.186
  23447851.654    -8478403.53749  -6598197.62245  23447851.481    23447861.331
  21778279.160   -17762768.69449 -13627415.86847  21778278.731    21778287.287
 03  4  2  1  8  0.0000000  0  8G18G17G15G14G31G23G 9G 3
  21630700.519    -7419513.90649  -5767953.64747  21630699.948    21630706.607
  23021974.840     5676781.29549   4406678.47645  23021974.088    23021984.886
  20676810.757   -13843409.34449 -10780772.12147  20676809.962    20676817.831
  20568612.534   -23079811.87649 -17968401.02148  20568612.006    20568618.556
  22484980.886   -11996224.96849  -9328691.27346  22484980.302    22484989.088
  22471600.790      891902.80749    707665.73246  22471600.035    22471608.393
  23449267.179    -8470964.85249  -6592401.24845  23449266.929    23449276.721
  21783109.055   -17737387.49949 -13607638.31247  21783108.618    21783117.228
 03  4  2  1  8 30.0000000  0  8G18G17G15G14G31G23G 9G 3
  21640852.888    -7366162.77149  -5726381.35847  21640852.310    21640859.020
  23037928.721     5760618.87849   4472006.36745  23037927.964    23037938.838
  20685090.239   -13799900.33949 -10746869.01347  20685089.470    20685097.336
  20560089.512   -23124600.40149 -18003301.12248  20560088.987    20560095.550
  22480354.663   -12020535.95649  -9347634.85546  22480354.075    22480362.903
  22481956.701      946323.43149    750071.38746  22481955.936    22481964.334
  23450794.862    -8462937.77649  -6586146.33245  23450794.513    23450804.098
  21788039.335   -17711478.71849 -13587449.65647  21788038.914    21788047.539
 03  4  2  1  9  0.0000000  0  8G18G17G15G14G31G23G 9G 3
  21651031.161    -7312675.66149  -5684703.10647  21651030.593    21651037.339
  23053936.189     5844737.88449   4537553.54645  23053935.382    23053946.173
  20693448.849   -13755975.93749 -10712642.21847  20693448.054    20693455.910
  20551665.666   -23168867.89849 -18037795.23248  20551665.138    20551671.674
  22475837.226   -12044275.02249  -9366132.78946  22475836.593    22475845.492
  22492322.396     1000795.83849    792517.38846  22492321.719    22492330.169
  23452434.369    -8454320.50549  -6579431.56145  23452434.108    23452444.047
  21793069.953   -17685042.75549 -13566850.20747  21793069.522    21793078.147
 03  4  2  1  9 30.0000000  0  8G18G17G15G14G31G23G 9G 3
  21661235.050    -7259053.92749  -5642919.96647  21661234.469    21661241.244
  23069996.809     5929137.07149   4603319.05445  23069996.054    23070006.740
  20701886.278   -13711637.01149 -10678092.41647  20701885.473    20701893.342
  20543340.939   -23212614.53149 -18071883.47148  20543340.391    20543346.930
  22471428.528   -12067442.47349  -9384185.30546  22471427.924    22471436.858
  22502697.767     1055318.87349    835002.84646  22502697.127    22502705.568
  23454186.454    -8445113.56749  -6572257.26745  23454186.216    23454195.863
  21798200.534   -17658081.45749 -13545841.40847  21798200.090    21798208.701
 03  4  2  1 10  0.0000000  0  8G18G17G15G14G31G23G 9G 3
  21671464.480    -7205298.11049  -5601032.33947  21671463.908    21671470.652
  23086110.790     6013816.13949   4669302.63445  23086109.999    23086120.689
  20710402.702   -13666883.02149 -10643219.18647  20710401.897    20710409.782
  20535115.518   -23255839.20549 -18105564.99048  20535114.976    20535121.504
  22467128.832   -12090037.42149  -9401791.71346  22467128.211    22467137.112
  22513082.827     1109892.46049    877527.69746  22513082.197    22513090.570
  23456050.611    -8435316.21149  -6564622.96845  23456050.374    23456060.212
  21803430.896   -17630595.78949 -13524424.00347  21803430.469    21803439.051
 03  4  2  1 10 30.0000000  0  8G18G17G15G14G31G23G 9G 3
  21681719.144    -7151409.43949  -5559041.18447  21681718.579    21681725.349
  23102277.725     6098773.45349   4735503.04245  23102276.927    23102287.608
  20718997.968   -13621714.65449 -10608023.06547  20718997.127    20719005.037
  20526989.417   -23298541.85049 -18138839.73448  20526988.871    20526995.413
  22462938.070   -12112059.91749  -9418952.06246  22462937.452    22462946.266
  22523477.298     1164515.72649    920091.25246  22523476.671    22523485.028
  23458027.571    -8424928.81649  -6556528.85445  23458027.155    23458036.886
  21808760.648   -17602587.82549 -13502599.61847  21808760.190    21808768.766
 03  4  2  1 11  0.0000000  0  8G18G17G15G14G31G23G 9G 3
  21691999.012    -7097388.27649  -5516946.79447  21691998.472    21692005.181
  23118497.365     6184008.41049   4801919.79345  23118496.668    23118507.386
  20727672.122   -13576131.65249 -10572503.84847  20727671.282    20727679.226
  20518962.929   -23340721.20049 -18171706.71448  20518962.358    20518968.876
  22458856.418   -12133509.28349  -9435665.82746  22458855.778    22458864.468
  22533881.256     1219188.57349    962693.44946  22533880.609    22533888.937
  23460116.654    -8413950.53549  -6547974.32545  23460116.249    23460125.946
  21814189.509   -17574058.78649 -13480369.20147  21814189.081    21814197.711
 03  4  2  1 11 30.0000000  0  8G18G17G15G14G31G23G 9G 3
  21702304.107    -7043234.91549  -5474749.38747  21702303.538    21702310.222
  23134769.804     6269520.39849   4868552.40645  23134769.153    23134779.891
  20736425.181   -13530133.96849 -10536661.50547  20736424.352    20736432.306
  20511036.217   -23382376.38549 -18204165.25548  20511035.646    20511042.128
  22454883.934   -12154384.71849  -9451932.37346  22454883.308    22454891.968
  22544294.538     1273910.94149   1005334.22746  22544293.940    22544302.231
  23462318.333    -8402380.86949  -6538958.95945  23462317.886    23462327.348
  21819717.230   -17545009.93149 -13457733.73847  21819716.795    21819725.475
 03  4  2  1 12  0.0000000  0  8G18G17G15G14G31G23G 9G 3
  21712634.106    -6988950.28449  -5432449.70147  21712633.577    21712640.314
  23151094.839     6355308.62349   4935400.26845  23151094.171    23151105.021
  20745257.149   -13483721.63649 -10500496.06247  20745256.338    20745264.294
  20503209.317   -23423506.90949 -18236214.96848  20503208.724    20503215.194
  22451020.698   -12174685.94649  -9467751.48346  22451020.092    22451028.732
  22554717.224     1328682.35249   1048013.21046  22554716.614    22554724.971
  23464632.432    -8390219.65549  -6529482.66245  23464632.132    23464641.666
  21825343.676   -17515442.86449 -13434694.47547  21825343.249    21825351.907
 03  4  2  1 12 30.0000000  0  8G18G17G15G14G31G23G 9G 3
  21722989.035    -6934535.37449  -5390048.49747  21722988.418    21722995.197
  23167472.180     6441372.12649   5002462.64745  23167471.562    23167482.485
  20754167.916   -13436895.15449 -10464007.90347  20754167.119    20754175.067
  20495482.286   -23464112.55249 -18267855.68748  20495481.693    20495488.143
  22447266.868   -12194412.93449  -9483123.13146  22447266.241    22447274.770
  22565149.054     1383502.00349   1090729.80946  22565148.443    22565156.846
  23467059.085    -8377467.20449  -6519545.65845  23467058.843    23467068.213
  21831068.348   -17485359.48649 -13411252.89247  21831067.906    21831076.588
 03  4  2  1 13  0.0000000  0  8G18G17G15G14G31G23G 9G 3
  21733368.662    -6879990.50049  -5347546.02047  21733368.052    21733374.781
  23183901.928     6527709.75049   5069738.60745  23183901.129    23183912.204
  20763157.575   -13389654.39349 -10427196.93347  20763156.756    20763164.686
  20487855.302   -23504192.54749 -18299086.80648  20487854.743    20487861.155
  22443622.253   -12213565.29049  -9498047.02746  22443621.614    22443630.110
  22575590.122     1438369.71149   1133483.83146  22575589.465    22575597.885
  23469598.365    -8364123.36249  -6509147.85245  23469597.935    23469607.430
  21836891.037   -17454761.09149 -13387409.98947  21836890.575    21836899.291
 03  4  2  1 13 30.0000000  0  8G18G17G15G14G31G23G 9G 3
  21743772.824    -6825316.49149  -5304942.91847  21743772.200    21743778.893
  23200383.656     6614320.70949   5137227.55645  23200382.749    23200393.887
  20772225.945   -13341999.75349 -10390063.46047  20772225.128    20772233.050
  20480328.448   -23543746.38049 -18329907.93148  20480327.864    20480334.258
  22440086.990   -12232142.70749  -9512522.90746  22440086.362    22440094.924
  22586040.219     1493285.02049   1176274.95546  22586039.530    22586047.952
  23472250.043    -8350188.01549  -6498289.11145  23472249.679    23472259.064
  21842811.414   -17423649.26849 -13363167.02247  21842810.967    21842819.647
 03  4  2  1 14  0.0000000  0  8G18G17G15G14G31G23G 9G 3
  21754201.405    -6770513.92749  -5262239.63347  21754200.780    21754207.514
  23216917.134     6701204.43649   5204929.07345  23216916.233    23216927.435
  20781373.064   -13293931.10949 -10352607.38447  20781372.275    20781380.212
  20472901.831   -23582773.32049 -18360318.48748  20472901.245    20472907.629
  22436661.274   -12250144.70149  -9526550.41146  22436660.633    22436669.247
  22596499.366     1548247.77749   1219103.05046  22596498.630    22596507.077
  23475014.397    -8335660.93549  -6486969.26445  23475014.146    23475023.492
  21848829.196   -17392025.62649 -13338525.23247  21848828.741    21848837.416
 03  4  2  1 14 30.0000000  0  8G18G17G15G14G31G23G 9G 3
  21764654.341    -6715583.26449  -5219436.54047  21764653.734    21764660.498
  23233502.384     6788359.93149   5272842.33845  23233501.501    23233512.690
  20790598.973   -13245448.72049 -10314828.91847  20790598.158    20790606.087
  20465575.592   -23621272.76849 -18390318.01648  20465575.017    20465581.377
  22433345.119   -12267570.99549  -9540129.31746  22433344.529    22433353.109
  22606967.372     1603257.52149   1261967.77046  22606966.673    22606975.154
  23477891.366    -8320541.96749  -6475188.24145  23477891.114    23477900.436
  21854944.115   -17359891.56849 -13313485.72347  21854943.677    21854952.296
 03  4  2  1 15  0.0000000  0  8G18G17G15G14G31G23G 9G 3
  21775131.574    -6660525.33849  -5176534.28147  21775130.931    21775137.719
  23250139.006     6875785.29449   5340965.90445  23250138.064    23250149.342
  20799903.560   -13196552.89949 -10276728.30247  20799902.757    20799910.670
  20458349.743   -23659244.61749 -18419906.43048  20458349.170    20458355.528
  22430138.464   -12284421.68149  -9553259.70346  22430137.879    22430146.539
  22617444.223     1658313.54649   1304868.54046  22617443.490    22617451.955
  23480881.282    -8304831.33549  -6462946.15945  23480880.794    23480890.052
  21861155.762   -17327249.31049 -13288050.20747  21861155.297    21861163.941
 03  4  2  1 15 30.0000000  0  8G18G17G15G14G31G23G 9G 3
  21785632.785    -6605340.85549  -5133533.39547  21785632.221    21785638.926
  23266826.862     6963480.58549   5409299.80245  23266826.031    23266837.233
  20809286.808   -13147243.65749 -10238305.53547  20809285.991    20809293.911
  20451224.505   -23696688.11349 -18449083.14048  20451223.882    20451230.224
  22427041.455   -12300696.44949  -9565941.30946  22427040.853    22427049.563
  22627929.840     1713415.89749   1347805.40746  22627929.090    22627937.584
  23483983.427    -8288529.01349  -6450243.01445  23483982.977    23483992.316
  21867463.865   -17294100.15049 -13262219.70347  21867463.420    21867472.057
 03  4  2  1 16  0.0000000  0  8G18G17G15G14G31G23G 9G 3
  21796157.986    -6550030.17449  -5090434.17547  21796157.484    21796164.214
  23283565.989     7051444.73049   5477843.18245  23283565.153    23283576.294
  20818748.736   -13097520.77949 -10199560.45947  20818747.931    20818755.851
  20444199.907   -23733602.39749 -18477847.47348  20444199.295    20444205.612
  22424054.166   -12316394.68749  -9578173.68846  22424053.560    22424062.254
  22638424.212     1768564.56749   1390778.37546  22638423.506    22638432.070
  23487198.316    -8271634.44049  -6437078.34645  23487197.832    23487207.036
  21873868.151   -17260445.47349 -13235995.29547  21873867.706    21873876.329
 03  4  2  1 16 30.0000000  0  8G18G17G15G14G31G23G 9G 3
  21806707.343    -6494593.38049  -5047236.68747  21806706.791    21806713.532
  23300356.098     7139677.10349   5546595.56745  23300355.290    23300366.463
  20828289.403   -13047384.24649 -10160493.05647  20828288.616    20828296.544
  20437276.192   -23769986.69949 -18506198.83748  20437275.579    20437281.873
  22421176.754   -12331515.66949  -9589956.24546  22421176.123    22421184.813
  22648927.461     1823759.51549   1433787.39846  22648926.804    22648935.327
  23490525.812    -8254147.20649  -6423451.92545  23490525.418    23490534.866
  21880368.373   -17226286.50249 -13209377.92647  21880367.936    21880376.566
 03  4  2  1 17  0.0000000  0  8G18G17G15G14G31G23G 9G 3
  21817280.566    -6439031.36549  -5003941.62247  21817279.921    21817286.669
  23317196.991     7228176.67049   5615556.17045  23317196.251    23317207.427
  20837908.701   -12996834.57449 -10121103.72647  20837907.906    20837915.838
  20430453.326   -23805840.96249 -18534137.18448  20430452.732    20430458.982
  22418408.958   -12346059.76249  -9601289.28846  22418408.369    22418417.170
  22659439.374     1879000.05349   1476831.95946  22659438.757    22659447.281
  23493966.261    -8236067.98849  -6409364.15845  23493965.837    23493975.029
  21886964.187   -17191625.52449 -13182369.38847  21886963.750    21886972.376
 03  4  2  1 17 30.0000000  0  8G18G17G15G14G31G23G 9G 3
  21827877.331    -6383344.54349  -4960549.30047  21827876.735    21827883.544
  23334088.537     7316942.24749   5684724.04845  23334087.867    23334099.082
  20847606.639   -12945871.72649 -10081392.43947  20847605.823    20847613.785
  20423731.425   -23841164.58449 -18561662.04248  20423730.845    20423737.079
  22415751.186   -12360026.60049  -9612172.52046  22415750.549    22415759.387
  22669959.970     1934286.18449   1519912.04446  22669959.354    22669967.904
  23497519.099    -8217396.59249  -6394815.01145  23497518.756    23497528.184
  21893655.169   -17156464.17449 -13154970.94847  21893654.728    21893663.378
 03  4  2  1 18  0.0000000  0  8G18G17G15G14G31G23G 9G 3
  21838497.705    -6327533.85449  -4917060.47347  21838497.143    21838503.979
  23351030.570     7405972.71649   5754098.32445  23351029.858    23351041.059
  20857383.124   -12894496.15049 -10041359.54847  20857382.315    20857390.278
  20417110.486   -23875957.46249 -18588773.33948  20417109.929    20417116.154
  22413203.163   -12373416.42049  -9622606.13046  22413202.553    22413211.351
  22680489.152     1989617.26049   1563027.14446  22680488.545    22680497.040
  23501184.864    -8198133.38749  -6379804.66145  23501184.409    23501193.963
  21900440.959   -17120804.39149 -13127184.13047  21900440.540    21900449.203
 03  4  2  1 18 30.0000000  0  8G18G17G15G14G31G23G 9G 3
  21849141.619    -6271599.70849  -4873475.43947  21849141.024    21849147.880
  23368022.789     7495267.36349   5823678.45745  23368022.145    23368033.376
  20867238.104   -12842708.16349 -10001005.29747  20867237.262    20867245.218
  20410590.681   -23910219.10249 -18615470.68148  20410590.123    20410596.344
  22410765.069   -12386229.03549  -9632589.96846  22410764.401    22410773.133
  22691026.937     2044993.13949   1606177.16846  22691026.259    22691034.746
  23504962.629    -8178278.55349  -6364333.34745  23504962.313    23504972.147
  21907321.404   -17084647.74549 -13099010.15147  21907320.947    21907329.574
 03  4  2  1 19  0.0000000  0  8G18G17G15G14G31G23G 9G 3
  21859808.963    -6215542.53349  -4829794.53247  21859808.389    21859815.242
  23385065.116     7584825.42949   5893463.84945  23385064.576    23385075.726
  20877171.449   -12790508.13849  -9960329.97247  20877170.616    20877178.585
  20404172.045   -23943949.12549 -18641753.77948  20404171.506    20404177.681
  22408436.679   -12398464.36349  -9642123.98046  22408436.052    22408444.793
  22701573.094     2100413.63849   1649361.94146  22701572.389    22701580.916
  23508853.445    -8157832.21449  -6348401.08045  23508853.290    23508863.091
  21914295.975   -17047996.01949 -13070450.38647  21914295.539    21914304.158
 03  4  2  1 19 30.0000000  0  8G18G17G15G14G31G23G 9G 3
  21870499.552    -6159363.27749  -4786018.50447  21870498.968    21870505.775
  23402157.536     7674645.57149   5963453.46845  23402156.923    23402167.996
  20887183.167   -12737896.32949  -9919333.78247  20887182.345    20887190.301
  20397854.601   -23977147.38449 -18667622.51648  20397854.059    20397860.193
  22406218.137   -12410122.54249  -9651208.26246  22406217.548    22406226.245
  22712127.669     2155878.21049   1692581.07546  22712126.952    22712135.506
  23512856.959    -8136794.56449  -6332008.05545  23512856.657    23512866.161
  21921364.402   -17010851.28049 -13041506.46647  21921363.995    21921372.600
 03  4  2  1 20  0.0000000  0  8G18G17G15G14G31G23G 9G 3
  21881213.124    -6103063.04549  -4742148.20047  21881212.591    21881219.316
  23419299.543     7764726.23549   6033646.08145  23419298.806    23419309.893
  20897273.094   -12684873.47249  -9878017.29047  20897272.260    20897280.219
  20391638.362   -24009813.97049 -18693076.96148  20391637.813    20391643.909
  22404109.411   -12421204.09449  -9659843.22146  22404108.788    22404117.506
  22722690.510     2211386.11349   1735833.97246  22722689.789    22722698.309
  23516972.459    -8115166.48649  -6315154.96845  23516972.299    23516981.892
  21928526.268   -16973215.85249 -13012180.19147  21928525.827    21928534.352
 03  4  2  1 20 30.0000000  0  8G18G17G15G14G31G23G 9G 3
  21891949.832    -6046641.62649  -4698183.47047  21891949.269    21891955.970
  23436490.959     7855066.69449   6104041.13145  23436490.067    23436501.256
  20907441.251   -12631439.26849  -9836380.26647  20907440.450    20907448.426
  20385523.412   -24041948.06349 -18718116.47948  20385522.866    20385528.955
  22402110.438   -12431708.43449  -9668028.40246  22402109.872    22402118.646
  22733261.642     2266937.80949   1779120.98946  22733260.961    22733269.439
  23521200.714    -8092947.61249  -6297841.52645  23521200.511    23521210.085
  21935781.249   -16935090.85849 -12982472.44247  21935780.785    21935789.355
 03  4  2  1 21  0.0000000  0  8G18G17G15G14G31G23G 9G 3
  21902709.360    -5990099.80749  -4654124.92647  21902708.770    21902715.514
  23453731.429     7945666.36949   6174638.16445  23453730.550    23453741.817
  20917687.658   -12577594.29749  -9794423.15847  20917686.837    20917694.835
  20379509.794   -24073549.54449 -18742740.97548  20379509.259    20379515.384
  22400221.390   -12441635.60449  -9675763.84746  22400220.810    22400229.524
  22743841.082     2322532.97949   1822441.87946  22743840.417    22743848.870
  23525541.279    -8070138.29049  -6280067.99745  23525540.957    23525550.748
  21943129.037   -16896478.12749 -12952384.63347  21943128.578    21943137.152
 03  4  2  1 21 30.0000000  0  8G18G17G15G14G31G23G 9G 3
  21913491.786    -5933437.88049  -4609972.79947  21913491.216    21913497.908
  23471021.137     8036524.04649   6245436.24445  23471020.261    23471031.474
  20928012.173   -12523338.60349  -9752146.01347  20928011.339    20928019.344
  20373597.641   -24104617.91549 -18766950.06048  20373597.112    20373603.245
  22398442.230   -12450985.52749  -9683049.49146  22398441.592    22398450.318
  22754428.791     2378171.59249   1865796.63646  22754428.077    22754436.553
  23529994.098    -8046738.52149  -6261834.34645  23529993.864    23530003.485
  21950569.252   -16857379.32049 -12921918.06447  21950568.818    21950577.445
 03  4  2  1 22  0.0000000  0  8G18G17G15G14G31G23G 9G 3
  21924296.922    -5876656.44849  -4565727.54447  21924296.356    21924303.070
  23488359.834     8127638.41649   6316434.35345  23488358.798    23488370.016
  20938414.788   -12468672.55949  -9709549.11447  20938413.978    20938421.979
  20367786.956   -24135153.23949 -18790743.78248  20367786.405    20367792.529
  22396772.800   -12459758.58649  -9689885.62646  22396772.158    22396780.856
  22765024.610     2433853.14349   1909184.82146  22765023.931    22765032.388
  23534559.218    -8022749.01249  -6243141.21745  23534558.934    23534568.606
  21958101.559   -16817796.84749 -12891074.61847  21958101.173    21958109.743
 03  4  2  1 22 30.0000000  0  8G18G17G15G14G31G23G 9G 3
  21935124.770    -5819755.74249  -4521389.35547  21935124.200    21935130.924
  23505747.026     8219008.70849   6387631.86345  23505746.110    23505757.332
  20948895.391   -12413596.33249  -9666632.59047  20948894.612    20948902.647
  20362077.846   -24165154.81049 -18814121.58848  20362077.297    20362083.401
  22395213.091   -12467954.41049  -9696271.97646  22395212.467    22395221.220
  22775628.706     2489577.84749   1952606.65146  22775628.050    22775636.476
  23539236.454    -7998169.45649  -6223988.26945  23539236.206    23539245.712
  21965725.618   -16777732.25449 -12859855.49647  21965725.215    21965733.771
 03  4  2  1 23  0.0000000  0  8G18G17G15G14G31G23G 9G 3
  21945975.249    -5762736.47549  -4476958.78747  21945974.638    21945981.378
  23523182.801     8310634.02749   6459028.12745  23523181.940    23523193.316
  20959454.011   -12358110.61549  -9623396.98447  20959453.222    20959461.284
  20356470.316   -24194622.46649 -18837083.36148  20356469.729    20356475.847
  22393763.223   -12475573.30549  -9702208.75746  22393762.611    22393771.399
  22786240.982     2545345.32149   1996061.80546  22786240.244    22786248.707
  23544026.194    -7973000.40249  -6204376.00645  23544025.760    23544035.109
  21973441.074   -16737187.56949 -12828262.27347  21973440.664    21973449.197
 03  4  2  1 23 30.0000000  0  8G18G17G15G14G31G23G 9G 3
  21956848.192    -5705599.02649  -4432436.12447  21956847.561    21956854.320
  23540666.748     8402513.25149   6530622.19745  23540666.106    23540677.531
  20970090.533   -12302215.57049  -9579842.41847  20970089.719    20970097.796
  20350964.415   -24223556.10649 -18859629.01048  20350963.821    20350969.926
  22392423.087   -12482615.41849  -9707696.10846  22392422.519    22392431.320
  22796861.321     2601155.42649   2039550.17546  22796860.562    22796869.062
  23548927.631    -7947242.48149  -6184304.87645  23548927.178    23548936.708
  21981247.537   -16696164.46049 -12796296.25047  21981247.139    21981255.642
 03  4  2  1 24  0.0000000  0  8G18G17G15G14G31G23G 9G 3
  21967743.470    -5648344.08049  -4387821.91347  21967742.838    21967749.584
  23558198.903     8494644.94349   6602413.02045  23558198.249    23558209.778
  20980804.868   -12245911.47949  -9535969.11747  20980804.051    20980812.120
  20345560.144   -24251955.77749 -18881758.58148  20345559.532    20345565.636
  22391192.714   -12489081.09649  -9712734.29246  22391192.170    22391200.837
  22807489.647     2657007.88349   2083071.54246  22807488.934    22807497.463
  23553941.208    -7920896.11849  -6163775.22745  23553940.717    23553950.189
  21989144.700   -16654664.92549 -12763958.98647  21989144.302    21989152.746
 03  4  2  1 24 30.0000000  0  8G18G17G15G14G31G23G 9G 3
  21978660.916    -5590972.33649  -4343116.68447  21978660.340    21978667.082
  23575778.805     8587027.96149   6674399.66545  23575778.148    23575789.843
  20991596.789   -12189199.39549  -9491777.89747  20991596.010    20991604.088
  20340257.430   -24279821.52549 -18903472.11348  20340256.833    20340262.914
  22390071.987   -12494970.89949  -9717323.74346  22390071.386    22390079.963
  22818126.021     2712902.02849   2126625.39446  22818125.251    22818133.763
  23559066.375    -7893962.06949  -6142787.63545  23559066.028    23559075.634
  21997132.015   -16612691.68749 -12731252.60747  21997131.583    21997140.007
 03  4  2  1 25  0.0000000  0  8G18G17G15G14G31G23G 9G 3
  21989600.586    -5533483.88849  -4298320.52647  21989600.017    21989606.764
  23593406.659     8679661.84649   6746581.79845  23593405.855    23593417.542
  21002466.407   -12132079.19649  -9447268.66847  21002465.626    21002473.704
  20335056.389   -24307152.96849 -18924769.30148  20335055.774    20335061.843
  22389060.890   -12500284.56449  -9721464.25946  22389060.266    22389068.845
  22828770.307     2768838.25549   2170212.04846  22828769.582    22828778.116
  23564303.595    -7866440.24349  -6121342.00645  23564303.164    23564312.595
  22005209.132   -16570246.15649 -12698178.20747  22005208.711    22005217.156
 03  4  2  1 25 30.0000000  0  8G18G17G15G14G31G23G 9G 3
  22000562.232    -5475879.86649  -4253434.30647  22000561.698    22000568.474
  23611081.722     8772544.18949   6818957.54645  23611080.939    23611092.526
  21013413.500   -12074552.21849  -9402442.47347  21013412.687    21013420.748
  20329956.888   -24333950.75349 -18945650.65348  20329956.294    20329962.353
  22388159.263   -12505023.13949  -9725156.65446  22388158.640    22388167.070
  22839422.471     2824815.45349   2213830.61146  22839421.717    22839430.308
  23569652.356    -7838332.29649  -6099439.72045  23569652.000    23569661.598
  22013375.627   -16527331.21149 -12664738.02947  22013375.207    22013383.659
 03  4  2  1 26  0.0000000  0  8G18G17G15G14G31G23G 9G 3
  22011545.959    -5418160.17349  -4208457.95847  22011545.384    22011552.212
  23628804.029     8865675.07349   6891526.94445  23628803.300    23628814.862
  21024438.031   -12016617.95149  -9357298.91147  21024437.225    21024445.297
  20324959.163   -24360213.93549 -18966115.43248  20324958.584    20324964.631
  22387367.094   -12509186.16549  -9728400.57946  22387366.439    22387374.864
  22850082.524     2880834.48349   2257481.78646  22850081.777    22850090.333
  23575112.623    -7809637.65649  -6077080.23145  23575112.279    23575121.857
  22021631.252   -16483948.03849 -12630932.99847  22021630.812    22021639.207
 03  4  2  1 26 30.0000000  0  8G18G17G15G14G31G23G 9G 3
  22022551.615    -5360325.10849  -4163391.71747  22022551.045    22022557.907
  23646573.393     8959053.11849   6964288.94445  23646572.668    23646584.255
  21035540.010   -11958276.72449  -9311838.23647  21035539.209    21035547.270
  20320063.106   -24385942.63349 -18986163.73248  20320062.534    20320068.584
  22386684.268   -12512773.83949  -9731196.16846  22386683.652    22386692.201
  22860750.430     2936895.12649   2301165.38746  22860749.742    22860758.335
  23580684.622    -7780357.25249  -6054264.29545  23580684.193    23580693.676
  22029975.558   -16440098.54249 -12596764.59847  22029975.116    22029983.523
 03  4  2  1 27  0.0000000  0  8G18G17G15G14G31G23G 9G 3
  22033579.133    -5302375.21249  -4118235.97747  22033578.581    22033585.427
  23664389.499     9052677.19249   7037242.64945  23664388.944    23664400.500
  21046719.318   -11899529.36549  -9266061.09147  21046718.470    21046726.524
  20315268.726   -24411136.87549 -19005795.57548  20315268.173    20315274.225
  22386110.898   -12515786.60949  -9733543.77446  22386110.279    22386118.852
  22871426.377     2992997.08849   2344881.16246  22871425.621    22871434.272
  23586367.511    -7750491.47649  -6030992.24445  23586367.307    23586376.874
  22038408.182   -16395784.91249 -12562234.52747  22038407.778    22038416.194
 03  4  2  1 27 30.0000000  0  8G18G17G15G14G31G23G 9G 3
  22044628.410    -5244311.04549  -4072991.20447  22044627.862    22044634.704
  23682252.230     9146546.14949   7110387.18145  23682251.688    23682263.301
  21057975.792   -11840376.24049  -9219967.77047  21057974.987    21057983.010
  20310576.160   -24435796.44049 -19025010.78848  20310575.591    20310581.635
  22385646.828   -12518224.88249  -9735443.71446  22385646.259    22385654.881
  22882110.089     3049140.41249   2388629.19046  22882109.375    22882118.048
  23592162.097    -7720040.72749  -6007264.39045  23592161.865    23592171.549
  22046928.678   -16351009.53749 -12527344.66447  22046928.229    22046936.719
 03  4  2  1 28  0.0000000  0  8G18G17G15G14G31G23G 9G 3
  22055699.309    -5186133.17449  -4027657.82847  22055698.817    22055705.657
  23700161.379     9240658.74449   7183721.55145  23700160.780    23700172.418
  21069309.438   -11780817.78249  -9173558.60447  21069308.611    21069316.615
  20305985.293   -24459921.48049 -19043809.49048  20305984.719    20305990.737
  22385292.033   -12520089.08549  -9736896.33746  22385291.465    22385300.117
  22892801.636     3105324.68349   2432409.10646  22892800.954    22892809.598
  23598067.972    -7689006.08249  -5983081.53145  23598067.658    23598077.190
  22055536.670   -16305774.26249 -12492096.44247  22055536.260    22055544.721
 03  4  2  1 28 30.0000000  0  8G18G17G15G14G31G23G 9G 3
  22066791.808    -5127842.30249  -3982236.39047  22066791.258    22066798.067
  23718116.629     9335013.44349   7257244.56845  23718115.900    23718127.610
  21080720.037   -11720854.82449  -9126834.23647  21080719.211    21080727.214
  20301496.108   -24483512.30949 -19062191.92148  20301495.517    20301501.516
  22385046.429   -12521379.94549  -9737902.19546  22385045.825    22385054.499
  22903500.969     3161549.54549   2476220.66746  22903500.257    22903508.871
  23604084.794    -7657388.52349  -5958444.44645  23604084.423    23604093.840
  22064231.798   -16260081.25649 -12456491.54947  22064231.331    22064239.830
 03  4  2  1 29  0.0000000  0  8G18G17G15G14G31G23G 9G 3
  22077905.803    -5069438.21549  -3936726.73347  22077905.194    22077912.047
  23736117.662     9429609.74749   7330955.85745  23736117.068    23736128.795
  21092207.566   -11660487.58049  -9079794.84747  21092206.729    21092214.728
  20297108.610   -24506568.67749 -19080157.89248  20297108.035    20297114.004
  22384909.881   -12522097.45849  -9738461.28146  22384909.270    22384917.952
  22914208.028     3217815.31649   2520064.09746  22914207.294    22914215.922
  23610212.329    -7625187.90649  -5933353.04845  23610211.951    23610221.489
  22073013.634   -16213932.29549 -12420531.35847  22073013.211    22073021.753
 03  4  2  1 29 30.0000000  0  8G18G17G15G14G31G23G 9G 3
  22089041.103    -5010921.72749  -3891129.49347  22089040.486    22089047.418
  23754164.472     9524446.00849   7404854.12045  23754163.884    23754175.659
  21103771.841   -11599717.00249  -9032441.17247  21103771.003    21103778.991
  20292822.722   -24529090.96949 -19097707.69948  20292822.142    20292828.097
  22384882.286   -12522242.50149  -9738574.29846  22384881.649    22384890.303
  22924922.689     3274121.34649   2563938.90346  22924921.947    22924930.576
  23616450.484    -7592405.42149  -5907808.23145  23616450.202    23616459.729
  22081881.755   -16167330.29749 -12384218.15347  22081881.302    22081889.871
 03  4  2  1 30  0.0000000  0  8G18G17G15G14G31G23G 9G 3
  22100197.701    -4952293.43849  -3845445.12947  22100197.102    22100204.071
  23772256.828     9619521.02149   7478938.41145  23772256.109    23772267.946
  21115412.797   -11538543.46849  -8984773.50547  21115411.975    21115419.949
  20288638.513   -24551079.17549 -19114841.33148  20288637.918    20288643.852
  22384963.584   -12521815.42949  -9738241.48646  22384962.913    22384971.591
  22935645.032     3330467.77049   2607845.19046  22935644.284    22935652.959
  23622799.184    -7559041.86049  -5881810.63445  23622799.016    23622808.460
  22090835.712   -16120277.19649 -12347553.44547  22090835.243    22090843.822
 03  4  2  1 30 30.0000000  0  8G18G17G15G14G31G23G 9G 3
  22111375.519    -4893553.25949  -3799673.58047  22111374.974    22111381.924
  23790394.361     9714833.80549   7553208.00245  23790393.533    23790405.408
  21127130.425   -11476966.98849  -8936791.85747  21127129.603    21127137.594
  20284555.928   -24572533.17349 -19131558.69848  20284555.325    20284561.259
  22385153.646   -12520816.46449  -9737463.05846  22385152.981    22385161.710
  22946375.128     3386854.96449   2651783.24746  22946374.445    22946383.119
  23629258.765    -7525097.57249  -5855360.49645  23629258.525    23629267.939
  22099875.108   -16072774.85049 -12310538.67447  22099874.645    22099883.211
 03  4  2  1 31  0.0000000  0  8G18G17G15G14G31G23G 9G 3
  22122574.528    -4834702.15149  -3753815.57947  22122573.991    22122580.906
  23808576.695     9810382.58349   7627661.45345  23808576.016    23808587.980
  21138924.436   -11414988.94749  -8888497.30247  21138923.608    21138931.669
  20280574.855   -24593453.65849 -19147860.33848  20280574.261    20280580.199
  22385452.292   -12519246.56149  -9736239.73346  22385451.644    22385460.465
  22957112.932     3443282.27249   2695752.56146  22957112.232    22957120.902
  23635828.378    -7490574.01349  -5828458.99645  23635828.136    23635837.537
  22108999.530   -16024825.98449 -12273175.97247  22108999.048    22109007.595
 03  4  2  1 31 30.0000000  0  8G18G17G15G14G31G23G 9G 3
  22133794.641    -4775740.03849  -3707871.07747  22133794.133    22133801.001
  23826803.928     9906166.99349   7702298.52045  23826803.177    23826815.353
  21150794.823   -11352609.61949  -8839890.05947  21150794.020    21150802.110
  20276695.337   -24613840.40449 -19163746.07948  20276694.776    20276700.677
  22385859.566   -12517106.04449  -9734571.78346  22385858.942    22385867.752
  22967858.437     3499750.05249   2739753.41046  22967857.723    22967866.401
  23642508.141    -7455471.75349  -5801106.54845  23642507.763    23642517.144
  22118208.576   -15976432.36649 -12235466.70447  22118208.113    22118216.663
 03  4  2  1 32  0.0000000  0  8G18G17G15G14G31G23G 9G 3
  22145035.827    -4716667.51349  -3661840.54547  22145035.261    22145042.145
  23845075.491    10002185.28449   7777117.86845  23845074.928    23845087.122
  21162741.468   -11289829.76049  -8790970.71347  21162740.640    21162748.704
  20272917.419   -24633693.62149 -19179216.07648  20272916.812    20272922.698
  22386375.318   -12514395.67149  -9732459.78146  22386374.705    22386383.579
  22978611.551     3556258.02049   2783785.57846  22978610.879    22978619.474
  23649297.776    -7419791.71649  -5773303.91445  23649297.432    23649306.850
  22127501.779   -15927596.40049 -12197412.75347  22127501.339    22127509.859
 03  4  2  1 32 30.0000000  0  8G18G17G15G14G31G23G 9G 3
  22156297.786    -4657484.98049  -3615724.28947  22156297.285    22156304.217
  23863391.605    10098436.61249   7852118.77945  23863390.928    23863403.128
  21174764.270   -11226649.38149  -8741739.27547  21174763.476    21174771.562
  20269240.947   -24653013.40949 -19194270.42048  20269240.347    20269246.226
  22386999.540   -12511115.77749  -9729904.00046  22386998.923    22387007.772
  22989372.327     3612806.22349   2827849.10146  22989371.640    22989380.216
  23656197.244    -7383534.53249  -5745051.53145  23656196.995    23656206.303
  22136878.814   -15878320.02549 -12159015.62247  22136878.378    22136886.879
 03  4  2  1 33  0.0000000  0  8G18G17G15G14G31G23G 9G 3
  22167580.659    -4598193.29149  -3569522.97947  22167580.154    22167587.072
  23881751.811    10194918.93249   7927299.69345  23881750.987    23881763.288
  21186863.062   -11163069.86149  -8692196.81647  21186862.250    21186870.348
  20265665.851   -24671800.46249 -19208909.64448  20265665.272    20265671.146
  22387731.779   -12507267.55549  -9726905.36546  22387731.216    22387740.013
  23000140.642     3669394.15749   2871943.56746  23000139.984    23000148.572
  23663206.441    -7346701.42549  -5716350.38945  23663206.143    23663215.327
  22146339.132   -15828606.09149 -12120277.53547  22146338.689    22146347.198
 03  4  2  1 33 30.0000000  0  8G18G17G15G14G31G23G 9G 3
  22178884.397    -4538792.13149  -3523236.37247  22178883.828    22178890.720
  23900155.750    10291631.93149   8002660.35345  23900155.027    23900167.193
  21199037.816   -11099091.25549  -8642343.38747  21199037.002    21199045.090
  20262192.177   -24690054.49349 -19223133.52948  20262191.587    20262197.468
  22388572.299   -12502851.07049  -9723463.93446  22388571.724    22388580.420
  23010916.602     3726022.10249   2916069.23046  23010915.934    23010924.520
  23670324.990    -7309292.76449  -5687200.77045  23670324.636    23670333.953
  22155882.296   -15778456.38349 -12081199.87947  22155881.902    22155890.443
 03  4  2  1 34  0.0000000  0  8G18G17G15G14G31G23G 9G 3
  22190208.660    -4479282.47649  -3476865.20547  22190208.119    22190215.027
  23918603.174    10388573.51749   8078199.14845  23918602.485    23918614.696
  21211288.294   -11034714.76449  -8592179.91647  21211287.481    21211295.555
  20258819.810   -24707776.27349 -19236942.67448  20258819.221    20258825.101
  22389520.671   -12497867.56649  -9719580.66446  22389520.088    22389528.698
  23021700.139     3782689.60349   2960225.71046  23021699.429    23021708.031
  23677552.825    -7271310.00249  -5657603.79845  23677552.472    23677561.900
  22165508.006   -15727873.64549 -12041784.81047  22165507.518    22165516.017
 03  4  2  1 34 30.0000000  0  8G18G17G15G14G31G23G 9G 3
  22201553.599    -4419664.62049  -3430409.73847  22201553.065    22201559.966
  23937094.098    10485742.43749   8153915.06945  23937093.385    23937105.206
  21223614.312   -10969941.06949  -8541706.93347  21223613.508    21223621.628
  20255548.662   -24724965.98149 -19250337.22148  20255548.086    20255553.975
  22390576.793   -12492317.80849  -9715256.16346  22390576.187    22390584.636
  23032491.080     3839396.66649   3004413.01646  23032490.408    23032499.094
  23684889.698    -7232754.30049  -5627560.37245  23684889.393    23684898.706
  22175215.569   -15676860.17349 -12002034.10247  22175215.068    22175223.575
 03  4  2  1 35  0.0000000  0  8G18G17G15G14G31G23G 9G 3
  22212919.156    -4359938.20249  -3383869.68746  22212918.596    22212925.522
  23955628.019    10583138.10849   8229807.69445  23955627.224    23955639.243
  21236015.972   -10904769.96249  -8490924.28047  21236015.143    21236023.295
  20252378.788   -24741623.43049 -19263317.01948  20252378.220    20252384.125
  22391740.600   -12486201.68249  -9710490.33346  22391740.001    22391748.430
  23043289.761     3896143.97749   3048631.67246  23043289.093    23043297.811
  23692335.587    -7193625.91949  -5597070.75045  23692335.168    23692344.760
  22185004.726   -15625417.82449 -11961949.19547  22185004.221    22185012.795
 03  4  2  1 35 30.0000000  0  8G18G17G15G14G31G23G 9G 3
  22224305.250    -4300104.28749  -3337245.85646  22224304.634    22224311.579
  23974204.718    10680759.03349   8305875.82845  23974203.904    23974216.051
  21248493.022   -10839202.70149  -8439832.94047  21248492.215    21248500.369
  20249310.052   -24757749.41149 -19275882.68948  20249309.495    20249315.413
  22393011.985   -12479520.58049  -9705284.28646  22393011.351    22393019.702
  23054095.972     3952930.88149   3092881.19446  23054095.283    23054104.026
  23699890.127    -7153926.43849  -5566136.09545  23699889.688    23699899.243
  22194874.969   -15573549.23249 -11921532.15147  22194874.468    22194883.109
 03  4  2  1 36  0.0000000  0  8G18G17G15G14G31G23G 9G 3
  22235711.719    -4240162.88749  -3290538.27046  22235711.078    22235718.062
  23992824.120    10778603.91649   8382118.48045  23992823.293    23992835.552
  21261045.348   -10773240.18949  -8388433.60747  21261044.505    21261052.636
  20246342.467   -24773344.11649 -19288034.38148  20246341.899    20246347.807
  22394390.671   -12472275.23149  -9699638.55946  22394390.057    22394398.419
  23064909.722     4009757.47449   3137161.64846  23064909.046    23064917.762
  23707553.232    -7113656.69949  -5534757.07345  23707552.773    23707562.256
  22204825.953   -15521256.54649 -11880784.65547  22204825.479    22204834.110
 03  4  2  1 36 30.0000000  0  8G18G17G15G14G31G23G 9G 3
  22247138.646    -4180114.15049  -3243747.07146  22247138.017    22247145.015
  24011485.851    10876671.61649   8458534.76345  24011485.005    24011497.408
  21273672.778   -10706882.53549  -8336726.37947  21273671.943    21273680.114
  20243476.030   -24788407.35049 -19299771.94548  20243475.473    20243481.341
  22395876.689   -12464465.78049  -9693553.26246  22395876.108    22395884.577
  23075731.171     4066624.23749   3181473.38046  23075730.444    23075739.118
  23715324.569    -7072817.34649  -5502934.20645  23715324.211    23715333.738
  22214857.276   -15468541.79449 -11839708.26547  22214856.795    22214865.440
 03  4  2  1 37  0.0000000  0  8G18G17G15G14G31G23G 9G 3
  22258585.865    -4119958.40949  -3196872.48446  22258585.322    22258592.259
  24030189.687    10974960.78949   8535123.61445  24030188.807    24030201.324
  21286375.217   -10640130.91449  -8284712.15447  21286374.390    21286382.554
  20240710.552   -24802940.19649 -19311096.21348  20240709.978    20240715.829
  22397469.882   -12456093.70349  -9687029.56446  22397469.255    22397477.717
  23086560.103     4123530.80549   3225816.14246  23086559.387    23086568.107
  23723204.272    -7031409.93549  -5470668.66145  23723203.907    23723213.202
  22224968.362   -15415407.60549 -11798305.04546  22224967.895    22224976.572
 03  4  2  1 37 30.0000000  0  8G18G17G15G14G31G23G 9G 3
  22270053.354    -4059696.30849  -3149915.00946  22270052.833    22270059.698
  24048935.442    11073469.62349   8611883.62945  24048934.618    24048947.176
  21299152.514   -10572986.24749  -8232391.66247  21299151.624    21299159.737
  20238045.921   -24816943.01249 -19322007.47348  20238045.333    20238051.161
  22399169.911   -12447159.83049  -9680068.10846  22399169.318    22399177.829
  23097396.533     4180477.03449   3270189.79646  23097395.886    23097404.608
  23731191.717    -6989435.74249  -5437961.50445  23731191.279    23731200.737
  22235158.799   -15361856.61549 -11756577.04346  22235158.330    22235167.054
 03  4  2  1 38  0.0000000  0  8G18G17G15G14G31G23G 9G 3
  22281541.014    -3999328.39149  -3102875.09146  22281540.481    22281547.333
  24067722.707    11172196.86249   8688813.81845  24067721.913    24067734.437
  21312004.303   -10505449.36249  -8179765.54847  21312003.497    21312011.612
  20235482.019   -24830416.18649 -19332506.02548  20235481.428    20235487.259
  22400976.714   -12437665.26849  -9672669.73846  22400976.107    22400984.602
  23108240.591     4237462.73549   3314594.23946  23108239.958    23108248.625
  23739286.671    -6946895.90149  -5404813.57245  23739286.334    23739295.899
  22245428.021   -15307891.35549 -11714526.23146  22245427.571    22245436.359
 03  4  2  1 38 30.0000000  0  8G18G17G15G14G31G23G 9G 3
  22293048.725    -3938854.80149  -3055752.83146  22293048.184    22293055.071
  24086551.360    11271141.72749   8765913.60345  24086550.458    24086562.959
  21324930.688   -10437520.73349  -8126834.17947  21324929.888    21324938.021
  20233018.815   -24843360.16449 -19342592.22048  20233018.233    20233024.054
  22402890.115   -12427610.34649  -9664834.73946  22402889.522    22402898.044
  23119092.281     4294488.42649   3359029.82246  23119091.576    23119100.247
  23747489.252    -6903791.07149  -5371225.39145  23747488.886    23747498.373
  22255775.618   -15253513.71749 -11672154.08746  22255775.218    22255784.139
 03  4  2  1 39  0.0000000  0  8G18G17G15G14G31G23G 9G 3
  22304576.420    -3878276.11149  -3008548.67746  22304575.883    22304582.813
  24105421.123    11370302.49249   8843181.61745  24105420.145    24105432.636
  21337931.470   -10369201.39649  -8073598.36547  21337930.638    21337938.775
  20230656.232   -24855775.54749 -19352266.51948  20230655.668    20230661.452
  22404909.821   -12416996.76849  -9656564.40846  22404909.184    22404917.824
  23129951.383     4351553.46849   3403496.05546  23129950.708    23129959.387
  23755798.970    -6860123.20849  -5337198.47545  23755798.573    23755807.847
  22266201.199   -15198726.74649 -11629462.98246  22266200.810    22266209.788
 03  4  2  1 39 30.0000000  0  8G18G17G15G14G31G23G 9G 3
  22316124.230    -3817592.09749  -2961262.45346  22316123.709    22316130.656
  24124331.629    11469677.34649   8920616.45445  24124330.693    24124343.183
  21351006.491   -10300491.92149  -8020058.54547  21351005.646    21351013.786
  20228394.160   -24867662.78249 -19361529.27448  20228393.575    20228399.354
  22407035.617   -12405825.13949  -9647859.23946  22407035.042    22407043.575
  23140818.070     4408658.19149   3447993.21946  23140817.396    23140826.151
  23764215.735    -6815893.34749  -5302733.66145  23764215.276    23764224.701
  22276704.309   -15143532.64349 -11586454.63746  22276703.919    22276712.951
 03  4  2  1 40  0.0000000  0  9G18G17G25G15G14G31G23G 9G 3
  22327691.930    -3756803.72449  -2913894.92046  22327691.381    22327698.302
  24143282.763    11569265.03849   8998217.14245  24143281.574    24143294.188
  24542674.575    -3336515.94349  -2583958.90345  24542674.501    24542690.081
  21364155.430   -10231393.67449  -7966215.78547  21364154.633    21364162.751
  20226232.459   -24879022.66149 -19370381.10348  20226231.861    20226237.630
  22409267.520   -12394096.83449  -9638720.29346  22409266.927    22409275.391
  23151692.259     4465802.17249   3492520.96446  23151691.518    23151700.320
  23772738.947    -6771102.83349  -5267831.94545  23772738.565    23772747.939
  22287284.352   -15087934.16049 -11543131.18246  22287283.994    22287292.988
 03  4  2  1 40 30.0000000  0  9G18G17G25G15G14G31G23G 9G 3
  22339278.453    -3695915.99149  -2866449.95046  22339277.880    22339284.834
  24162273.268    11669059.87549   9075979.22345  24162272.127    24162284.619
  24524018.871    -3434550.51149  -2660349.08345  24524018.655    24524034.249
  21377377.398   -10161911.87849  -7912074.15147  21377376.610    21377384.694
  20224170.133   -24889860.15549 -19378825.88248  20224169.539    20224175.289
  22411604.302   -12381817.26049  -9629151.79246  22411603.690    22411612.153
  23162572.978     4522980.93649   3537075.82046  23162572.335    23162581.142
  23781367.983    -6725757.49649  -5232497.90945  23781367.593    23781377.045
  22297940.150   -15031938.41449 -11499498.18146  22297939.727    22297948.718
 03  4  2  1 41  0.0000000  0  9G18G17G25G15G14G31G23G 9G 3
  22350885.330    -3634921.17749  -2818921.55346  22350884.824    22350891.803
  24181304.076    11769067.42449   9153907.06645  24181303.052    24181315.451
  24505352.890    -3532639.39749  -2736781.58545  24505352.619    24505368.191
  21390673.738   -10092039.66749  -7857628.30547  21390672.905    21390680.962
  20222208.507   -24900168.47949 -19386858.32148  20222207.927    20222213.674
  22414047.093   -12368980.08349  -9619148.79146  22414046.478    22414054.887
  23173461.765     4580201.95849   3581663.62146  23173461.107    23173469.945
  23790103.654    -6679851.20549  -5196726.76945  23790103.264    23790112.642
  22308672.392   -14975540.53949 -11455551.82546  22308671.957    22308680.943
 03  4  2  1 41 30.0000000  0  9G18G17G25G15G14G31G23G 9G 3
  22362512.423    -3573820.97749  -2771311.02646  22362511.865    22362518.818
  24200374.933    11869285.75149   9231999.12745  24200373.970    24200386.575
  24486676.654    -3630781.35049  -2813255.46345  24486676.378    24486691.973
  21404043.905   -10021779.05649  -7802879.81247  21404043.079    21404051.150
  20220347.250   -24909949.18549 -19394479.62748  20220346.665    20220352.424
  22416595.703   -12355587.30549  -9608712.86546  22416595.074    22416603.454
  23184358.456     4637464.47449   3626283.74546  23184357.793    23184366.568
  23798945.592    -6633386.37949  -5160520.40445  23798945.252    23798954.631
  22319480.577   -14918743.73449 -11411294.61446  22319480.155    22319489.084
 03  4  2  1 42  0.0000000  0  9G18G17G25G15G14G31G23G 9G 3
  22374159.253    -3512616.52549  -2723619.26846  22374158.712    22374165.617
  24219485.466    11969712.20749   9310253.39145  24219484.660    24219497.295
  24467990.760    -3728974.14449  -2889768.96545  24467990.673    24468006.160
  21417487.607    -9951132.00849  -7747830.20047  21417486.792    21417494.837
  20218586.155   -24919203.62149 -19401690.85248  20218585.575    20218591.361
  22419249.571   -12341640.88349  -9597845.51146  22419248.937    22419257.375
  23195262.844     4694767.58249   3670935.52246  23195262.203    23195270.985
  23807893.468    -6586364.96049  -5123880.33145  23807893.179    23807902.459
  22330363.970   -14861551.37849 -11366729.19046  22330363.551    22330372.489
 03  4  2  1 42 30.0000000  0  9G18G17G25G15G14G31G23G 9G 3
  22385825.819    -3451308.26449  -2675846.60746  22385825.276    22385832.176
  24238635.314    12070345.67549   9388668.96045  24238634.442    24238647.465
  24449295.857    -3827215.53649  -2966320.33645  24449295.665    24449310.875
  21431004.656    -9880099.45249  -7692480.19547  21431003.835    21431011.893
  20216925.052   -24927932.76349 -19408492.75948  20216924.464    20216930.249
  22422008.548   -12327142.11049  -9586547.77646  22422007.947    22422016.416
  23206174.959     4752111.07349   3715618.75046  23206174.320    23206183.009
  23816946.980    -6538788.65849  -5086807.89045  23816946.661    23816955.955
  22341322.195   -14803966.19249 -11321857.65646  22341321.754    22341330.639
 03  4  2  1 43  0.0000000  0  9G18G17G25G15G14G31G23G 9G 3
  22397512.023    -3389897.00549  -2627993.69946  22397511.455    22397518.337
  24257824.154    12171184.02349   9467244.20245  24257823.448    24257836.405
  24430592.016    -3925503.74449  -3042908.20245  24430591.674    24430606.722
  21444594.845    -9808682.67149  -7636830.79447  21444594.027    21444602.119
  20215363.779   -24936137.49149 -19414886.02948  20215363.165    20215368.935
  22424872.388   -12312092.42849  -9574820.74946  22424871.755    22424880.344
  23217094.845     4809494.67349   3760333.21746  23217094.110    23217102.810
  23826105.749    -6490659.21049  -5049304.39145  23826105.321    23826114.729
  22352354.516   -14745991.13749 -11276682.33046  22352354.067    22352362.930
 03  4  2  1 43 30.0000000  0  9G18G17G25G15G14G31G23G 9G 3
  22409217.749    -3328382.58149  -2580060.39746  22409217.222    22409224.159
  24277051.996    12272226.06349   9545978.14345  24277051.377    24277064.088
  24411879.921    -4023835.69349  -3119530.10245  24411879.598    24411894.220
  21458257.980    -9736882.51149  -7580882.65947  21458257.168    21458265.285
  20213902.116   -24943818.38949 -19420871.12448  20213901.527    20213907.290
  22427840.709   -12296493.02049  -9562665.36546  22427840.169    22427848.857
  23228022.210     4866918.42549   3805079.00046  23228021.525    23228030.219
  23835369.439    -6441977.85649  -5011370.86845  23835369.027    23835378.582
  22363460.541   -14687628.82349 -11231205.24546  22363460.089    22363469.028
 03  4  2  1 44  0.0000000  0  8G18G25G15G14G31G23G 9G 3
  22420942.986    -3266765.89949  -2532047.41246  22420942.515    22420949.431
  24393159.929    -4122209.40449  -3196184.55345  24393159.428    24393173.971
  21471993.816    -9664700.48049  -7524636.96147  21471992.989    21472001.129
  20212539.939   -24950976.76949 -19426449.06148  20212539.320    20212545.082
  22430913.413   -12280345.53449  -9550082.91746  22430912.872    22430921.675
  23238957.219     4924382.01449   3849855.80646  23238956.445    23238965.232
  23844737.885    -6392746.65849  -4973008.86645  23844737.532    23844746.764
  22374639.732   -14628882.20049 -11185428.69846  22374639.240    22374648.236
 03  4  2  1 44 30.0000000  0  8G18G25G15G14G31G23G 9G 3
  22432687.612    -3205047.64249  -2483955.26846  22432687.124    22432694.054
  24374432.050    -4220622.98549  -3272870.05445  24374431.542    24374446.211
  21485802.096    -9592137.67749  -7468094.55847  21485801.279    21485809.444
  20211276.950   -24957613.61849 -19431620.60948  20211276.325    20211282.077
  22434090.180   -12263651.56649  -9537074.64146  22434089.623    22434098.369
  23249899.737     4981885.18949   3894663.45346  23249898.989    23249907.754
  23854210.449    -6342967.29549  -4934219.76945  23854210.104    23854219.530
  22385891.536   -14569753.95549 -11139354.77646  22385891.040    22385900.009
 03  4  2  1 45  0.0000000  0  8G18G25G15G14G31G23G 9G 3
  22444451.760    -3143226.69149  -2435783.09646  22444451.270    22444458.219
  24355697.235    -4319072.33649  -3349583.39145  24355696.873    24355711.468
  21499682.880    -9519193.71049  -7411255.13847  21499682.050    21499690.261
  20210113.343   -24963728.23649 -19436385.22348  20210112.720    20210118.476
  22437371.007   -12246410.99749  -9523640.44546  22437370.451    22437379.064
  23260850.138     5039429.21649   3939502.93946  23260849.259    23260857.984
  23863787.408    -6292639.94849  -4895003.63845  23863787.104    23863796.344
  22397215.619   -14510245.51749 -11092984.61546  22397215.131    22397224.133
 03  4  2  1 45 30.0000000  0  8G18G25G15G14G31G23G 9G 3
  22456235.260    -3081304.12349  -2387531.75446  22456234.752    22456241.705
  24336956.356    -4417555.67849  -3426323.21445  24336955.887    24336970.236
  21513635.891    -9445870.26149  -7354120.02547  21513635.070    21513643.323
  20209048.826   -24969322.04849 -19440744.01648  20209048.217    20209053.956
  22440755.499   -12228625.75149  -9509781.83546  22440754.938    22440763.462
  23271808.109     5097013.55449   3984373.85346  23271807.223    23271815.934
  23873468.236    -6241766.83349  -4855362.23345  23873467.842    23873477.170
  22408611.386   -14450360.10049 -11046320.69746  22408610.902    22408619.925
 03  4  2  1 46  0.0000000  0  8G18G25G15G14G31G23G 9G 3
  22468038.097    -3019279.88549  -2339201.16946  22468037.562    22468044.596
  24318209.430    -4516069.91549  -3503087.09445  24318208.965    24318223.263
  21527660.945    -9372168.33249  -7296689.98547  21527660.121    21527668.384
  20208083.349   -24974395.61449 -19444697.41648  20208082.745    20208088.464
  22444243.467   -12210296.83949  -9495499.59546  22444242.884    22444251.245
  23282773.674     5154638.45449   4029276.36146  23282772.871    23282781.659
  23883252.505    -6190349.54449  -4815296.79245  23883252.178    23883261.461
  22420078.476   -14390100.10649 -10999364.90146  22420078.043    22420087.049
 03  4  2  1 46 30.0000000  0  8G18G25G15G14G31G23G 9G 3
  22479860.170    -2957154.52449  -2290791.79846  22479859.657    22479866.683
  24299457.010    -4614612.91049  -3579873.37145  24299456.577    24299470.731
  21541757.862    -9298088.82749  -7238965.72747  21541756.972    21541765.295
  20207216.727   -24978949.81249 -19448246.11548  20207216.145    20207221.798
  22447834.502   -12191425.87549  -9480794.96146  22447833.918    22447842.194
  23293747.046     5212303.79549   4074210.39746  23293746.265    23293754.964
  23893140.224    -6138389.67149  -4774808.56745  23893139.844    23893149.065
  22431616.306   -14329468.50449 -10952119.54546  22431615.865    22431624.878
 03  4  2  1 47  0.0000000  0  8G18G25G15G14G31G23G 9G 3
  22491701.548    -2894927.93849  -2242303.54846  22491700.979    22491708.012
  24280699.942    -4713181.31049  -3656679.45745  24280699.332    24280713.402
  21555926.452    -9223632.34949  -7180947.72847  21555925.573    21555933.913
  20206448.784   -24982985.22749 -19451390.57148  20206448.197    20206453.849
  22451528.536   -12172013.63649  -9465668.56346  22451527.931    22451536.195
  23304728.185     5270010.09049   4119176.32446  23304727.423    23304736.096
  23903130.936    -6085888.19449  -4733898.31545  23903130.497    23903139.813
  22443224.402   -14268467.44249 -10904586.30046  22443223.950    22443233.065
 03  4  2  1 47 30.0000000  0  8G18G25G15G14G31G23G 9G 3
  22503562.072    -2832600.77949  -2193736.93246  22503561.469    22503568.502
  24261937.922    -4811773.52149  -3733504.07245  24261937.521    24261951.584
  21570166.431    -9148800.89949  -7122637.53847  21570165.585    21570173.953
  20205779.266   -24986503.45249 -19454132.01448  20205778.681    20205784.330
  22455325.156   -12152062.37949  -9450122.14446  22455324.542    22455332.774
  23315716.976     5327756.68349   4164173.66546  23315716.246    23315724.955
  23913224.180    -6032847.62749  -4692567.97745  23913223.770    23913233.102
  22454902.098   -14207100.45849 -10856767.91946  22454901.705    22454910.819
 03  4  2  1 48  0.0000000  0  8G18G25G15G14G31G23G 9G 3
  22515441.754    -2770172.54349  -2145091.55846  22515441.195    22515448.221
  24243172.145    -4910386.11949  -3810344.58245  24243171.862    24243185.781
  21584477.685    -9073594.69549  -7064035.33447  21584476.848    21584485.261
  20205208.193   -24989504.40149 -19456470.39248  20205207.606    20205213.247
  22459224.170   -12131572.64849  -9434156.14046  22459223.583    22459231.921
  23326713.497     5385544.49049   4209203.12446  23326712.863    23326721.605
  23923419.922    -5979268.61749  -4650818.08345  23923419.411    23923428.691
  22466649.198   -14145369.03949 -10808665.57646  22466648.812    22466657.995
 03  4  2  1 48 30.0000000  0  9G18G25G15G11G14G31G23G 9G 3
  22527340.146    -2707646.11849  -2096369.67646  22527339.547    22527346.586
  24224402.572    -5009019.45949  -3887201.25545  24224402.316    24224416.286
  21598859.573    -8998017.31149  -7005143.89447  21598858.751    21598867.167
  24675393.543    -3450637.94049  -2670502.52145  24675392.932    24675403.064
  20204734.880   -24991991.50449 -19458408.36548  20204734.313    20204739.937
  22463224.984   -12110548.43049  -9417773.64546  22463224.354    22463232.788
  23337717.477     5443370.88049   4254262.61946  23337716.825    23337725.645
  23933717.308    -5925155.49349  -4608651.99145  23933716.812    23933726.092
  22478464.668   -14083278.73149 -10760283.56246  22478464.233    22478473.462
 03  4  2  1 49  0.0000000  0  9G18G25G15G11G14G31G23G 9G 3
  22539256.929    -2645022.93349  -2047572.39546  22539256.318    22539263.379
  24205629.564    -5107671.49149  -3964072.50245  24205629.152    24205642.878
  21613311.894    -8922070.04849  -6945964.23747  21613311.086    21613319.475
  24656297.702    -3550987.11549  -2748696.56745  24656297.032    24656307.107
  20204359.082   -24993966.34249 -19459947.16648  20204358.494    20204364.133
  22467327.107   -12088991.66849  -9400976.19246  22467326.484    22467334.950
  23348728.654     5501235.28049   4299351.75046  23348728.022    23348736.890
  23944115.898    -5870510.49149  -4566071.46345  23944115.524    23944124.856
  22490347.705   -14020832.79849 -10711624.45246  22490347.287    22490356.557
 03  4  2  1 49 30.0000000  0  9G18G25G15G11G14G31G23G 9G 3
  22551193.179    -2582297.43349  -1998695.38746  22551192.554    22551199.674
  24186854.503    -5206333.91449  -4040951.86245  24186854.090    24186867.640
  21627835.357    -8845748.90349  -6886493.24547  21627834.542    21627842.905
  24637213.203    -3651275.62849  -2826843.33145  24637212.393    24637222.671
  20204081.575   -24995424.42149 -19461083.30048  20204081.006    20204086.632
  22471531.345   -12066898.41349  -9383760.69346  22471530.713    22471539.219
  23359748.236     5559143.29849   4344474.85946  23359747.523    23359756.431
  23954616.497    -5815329.81449  -4523073.52745  23954615.975    23954625.513
  22502299.015   -13958028.22749 -10662685.88746  22502298.613    22502307.876
 03  4  2  1 50  0.0000000  0  9G18G25G15G11G14G31G23G 9G 3
  22563148.600    -2519471.43549  -1949740.06946  22563147.938    22563155.048
  24168077.408    -5305006.15749  -4117838.86345  24168076.969    24168090.518
  21642429.371    -8769056.95749  -6826733.31547  21642428.559    21642436.937
  24618140.196    -3751503.69149  -2904943.00745  24618139.587    24618149.750
  20203901.890   -24996368.42849 -19461818.85948  20203901.350    20203906.992
  22475837.082   -12044272.04449  -9366129.78446  22475836.392    22475844.966
  23370775.796     5617093.09249   4389630.53746  23370775.109    23370783.874
  23965218.113    -5759617.19049  -4479661.07245  23965217.665    23965227.128
  22514317.639   -13894869.84649 -10613471.62646  22514317.273    22514326.544
 03  4  2  1 50 30.0000000  0  9G18G25G15G11G14G31G23G 9G 3
  22575123.073    -2456545.17149  -1900706.63646  22575122.438    22575129.502
  24149298.945    -5403685.38749  -4194731.31845  24149298.609    24149312.182
  21657093.778    -8691995.01749  -6766685.07347  21657092.967    21657101.323
  24599079.219    -3851669.19549  -2982993.92245  24599078.653    24599088.970
  20203819.888   -24996799.16849 -19462154.47048  20203819.347    20203824.999
  22480243.917   -12021113.94149  -9348084.51946  22480243.231    22480251.887
  23381811.310     5675085.09849   4434819.12046  23381810.669    23381819.417
  23975920.741    -5703374.31649  -4435835.45845  23975920.366    23975929.807
  22526403.227   -13831360.17149 -10563983.63146  22526402.826    22526412.141
 03  4  2  1 51  0.0000000  0  9G18G25G15G11G14G31G23G 9G 3
  22587116.601    -2393519.22249  -1851595.53446  22587115.945    22587122.906
  24130519.714    -5502368.86349  -4271627.09845  24130519.421    24130532.815
  21671828.368    -8614564.25549  -6706349.44647  21671827.596    21671835.933
  24580030.492    -3951770.57749  -3060994.88645  24580029.880    24580040.014
  20203835.306   -24996718.03249 -19462091.21648  20203834.756    20203840.401
  22484751.684   -11997425.61149  -9329626.09746  22484750.981    22484759.634
  23392854.899     5733119.37849   4480040.60246  23392854.224    23392863.059
  23986724.075    -5646603.05449  -4391598.06445  23986723.707    23986732.799
  22538555.007   -13767502.03949 -10514224.10246  22538554.663    22538563.967
 03  4  2  1 51 30.0000000  0  9G18G25G15G11G14G31G23G 9G 3
  22599128.929    -2330394.11849  -1802407.14846  22599128.249    22599135.211
  24111739.968    -5601055.02849  -4348524.98545  24111739.601    24111753.118
  21686632.830    -8536766.73249  -6645728.02547  21686632.007    21686640.333
  24560994.095    -4051806.24049  -3138944.62445  24560993.599    24561003.754
  20203947.935   -24996126.24049 -19461630.05048  20203947.368    20203952.985
  22489359.851   -11973209.64949  -9310756.52646  22489359.151    22489367.887
  23403906.307     5791195.04049   4525294.35646  23403905.663    23403914.559
  23997627.190    -5589305.93449  -4346950.96945  23997626.828    23997636.028
  22550772.402   -13703299.33349 -10464196.07846  22550772.085    22550781.385
 03  4  2  1 52  0.0000000  0  9G18G25G15G11G14G31G23G 9G 3
  22611160.118    -2267169.51049  -1753141.24946  22611159.470    22611166.456
  24092960.274    -5699740.63249  -4425422.43645  24092959.972    24092973.451
  21701506.957    -8458602.80049  -6584821.09747  21701506.120    21701514.451
  24541970.632    -4151773.48449  -3216841.04645  24541970.277    24541980.465
  20204157.608   -24995024.26149 -19460771.33848  20204157.033    20204162.655
  22494068.211   -11948466.84249  -9291476.43646  22494067.571    22494076.233
  23414965.803     5849312.91949   4570580.99146  23414965.117    23414973.941
  24008630.350    -5531484.12949  -4301895.00845  24008629.971    24008639.252
  22563055.181   -13638753.61749 -10413900.78246  22563054.802    22563064.124
 03  4  2  1 52 30.0000000  0  9G18G25G15G11G14G31G23G 9G 3
  22623210.138    -2203846.10249  -1703798.36246  22623209.498    22623216.537
  24074181.201    -5798423.39949  -4502317.70645  24074180.832    24074194.310
  21716450.469    -8380073.99849  -6523629.84747  21716449.675    21716458.006
  24522960.447    -4251671.24749  -3294683.35745  24522960.257    24522970.226
  20204464.045   -24993413.71649 -19459516.34248  20204463.481    20204469.100
  22498876.515   -11923199.10149  -9271787.30646  22498875.892    22498884.551
  23426033.227     5907472.77449   4615900.35246  23426032.585    23426041.364
  24019733.012    -5473139.63549  -4256431.77545  24019732.644    24019741.956
  22575402.562   -13573868.36949 -10363340.91446  22575402.124    22575411.426
 03  4  2  1 53  0.0000000  0  9G18G25G15G11G14G31G23G 9G 3
  22635278.990    -2140423.91049  -1654378.49846  22635278.353    22635285.461
  24055403.022    -5897100.37149  -4579208.47445  24055402.792    24055416.283
  21731463.264    -8301181.45049  -6462155.16847  21731462.472    21731470.779
  24503964.020    -4351497.27049  -3372469.71945  24503963.750    24503973.871
  20204867.131   -24991295.35549 -19457865.64448  20204866.562    20204872.180
  22503784.442   -11897407.84849  -9251690.25146  22503783.815    22503792.418
  23437108.782     5965674.97049   4661252.69846  23437108.107    23437116.970
  24030934.721    -5414273.97349  -4210562.41645  24030934.350    24030943.825
  22587814.049   -13508645.88949 -10312518.25746  22587813.582    22587822.907
 03  4  2  1 53 30.0000000  0  9G18G25G15G11G14G31G23G 9G 3
  22647366.467    -2076903.73149  -1604882.27746  22647365.835    22647372.932
  24036626.560    -5995769.61249  -4656093.23745  24036626.301    24036639.711
  21746544.954    -8221926.86849  -6400398.37247  21746544.141    21746552.410
  24484981.789    -4451250.14749  -3450199.12945  24484981.259    24484991.191
  20205366.584   -24988670.64349 -19455820.39048  20205365.996    20205371.607
  22508791.649   -11871095.21449  -9231186.93146  22508790.978    22508799.459
  23448192.410     6023919.01849   4706637.65246  23448191.625    23448200.552
  24042235.105    -5354889.67449  -4164288.92845  24042234.798    24042244.169
  22600289.082   -13443089.41349 -10261435.36046  22600288.636    22600297.969
 03  4  2  1 54  0.0000000  0  9G18G25G15G11G14G31G23G 9G 3
  22659472.609    -2013285.72849  -1555309.84246  22659471.974    22659479.070
  24017852.168    -6094427.89049  -4732969.47345  24017851.978    24017865.279
  21761695.358    -8142311.29149  -6338360.28947  21761694.492    21761702.757
  24466013.850    -4550927.88949  -3527869.97445  24466013.182    24466023.012
  20205962.203   -24985540.52049 -19453381.31448  20205961.624    20205967.230
  22513897.681   -11844262.71249  -9210278.50446  22513897.063    22513905.498
  23459283.891     6082205.28749   4752055.50946  23459283.126    23459292.018
  24053634.052    -5294988.49949  -4117612.71845  24053633.666    24053643.083
  22612827.191   -13377201.68149 -10210094.32446  22612826.736    22612836.024
 03  4  2  1 54 30.0000000  0  9G18G25G15G11G14G31G23G 9G 3
  22671597.323    -1949569.75449  -1505661.04746  22671596.711    22671603.820
  23999080.536    -6193072.62249  -4809835.16945  23999080.223    23999093.233
  21776914.184    -8062335.66749  -6276041.64847  21776913.387    21776921.674
  24447060.380    -4650527.82349  -3605480.22545  24447059.913    24447069.567
  20206653.843   -24981906.01049 -19450549.21048  20206653.275    20206658.844
  22519102.509   -11816911.82649  -9188966.13146  22519101.860    22519110.208
  23470383.496     6140534.09249   4797506.50546  23470382.752    23470391.613
  24065130.863    -5234572.03349  -4070534.92245  24065130.487    24065139.877
  22625427.752   -13310985.40249 -10158497.28246  22625427.263    22625436.612
 03  4  2  1 55  0.0000000  0  9G18G25G15G11G14G31G23G 9G 3
  22683740.805    -1885755.40049  -1455935.58846  22683740.204    22683747.275
  23980312.120    -6291700.30149  -4886687.57745  23980311.756    23980324.581
  21792201.481    -7982000.43349  -6213442.79747  21792200.673    21792208.988
  24428122.127    -4750047.79449  -3683028.12445  24428121.772    24428131.741
  20207441.399   -24977767.52349 -19447324.39548  20207440.810    20207446.358
  22524405.646   -11789043.69849  -9167250.71446  22524404.979    22524413.330
  23481491.352     6198906.14549   4842991.21946  23481490.572    23481499.512
  24076725.357    -5173641.88849  -4023056.91545  24076725.010    24076734.428
  22638090.410   -13244442.78149 -10106645.95646  22638089.966    22638099.294
 03  4  2  1 55 30.0000000  0  9G18G25G15G11G14G31G23G 9G 3
  22695902.819    -1821844.04249  -1406134.55846  22695902.194    22695909.213
  23961547.069    -6390310.29449  -4963526.22245  23961546.677    23961559.202
  21807556.702    -7901308.33349  -6150565.87047  21807555.883    21807564.233
  24409199.428    -4849487.11249  -3760513.20445  24409199.164    24409208.774
  20208324.350   -24973127.38049 -19443708.68248  20208323.769    20208329.309
  22529806.546   -11760661.29049  -9145134.57546  22529805.940    22529814.372
  23492607.241     6257320.23549   4888508.68246  23492606.447    23492615.364
  24088417.214    -5112201.10949  -3975180.96145  24088416.837    24088426.139
  22650814.466   -13177577.94149 -10054543.53846  22650814.008    22650823.335
 03  4  2  1 56  0.0000000  0  9G18G25G15G11G14G31G23G 9G 3
  22708083.264    -1757835.23649  -1356257.57046  22708082.722    22708089.759
  23942786.061    -6488898.50549  -5040347.90745  23942785.795    23942798.102
  21822979.678    -7820259.83149  -6087411.22247  21822978.866    21822987.296
  24390292.728    -4948842.80049  -3837933.12745  24390292.452    24390301.911
  20209302.683   -24967985.96849 -19439702.37148  20209302.111    20209307.654
  22535305.261   -11731765.50049  -9122618.39646  22535304.633    22535313.112
  23503731.120     6315777.33949   4934059.65246  23503730.416    23503739.393
  24100205.962    -5050250.62149  -3926907.88745  24100205.624    24100214.925
  22663599.475   -13110392.46249 -10002191.27846  22663599.027    22663608.348
 03  4  2  1 56 30.0000000  0  9G18G25G15G11G14G31G23G 9G 3
  22720282.289    -1693728.70649  -1306304.43746  22720281.816    22720288.835
  23924029.754    -6587462.17249  -5117150.45745  23924029.579    23924041.713
  21838470.348    -7738855.74749  -6023979.50647  21838469.582    21838478.042
  24371402.233    -5048112.70549  -3915286.11745  24371401.650    24371411.540
  20210376.304   -24962344.14349 -19435306.12948  20210375.718    20210381.258
  22540901.356   -11702357.81649  -9099703.32446  22540900.769    22540909.229
  23514863.433     6374278.13749   4979644.68546  23514862.779    23514871.724
  24112091.514    -4987792.30849  -3878239.04945  24112091.037    24112100.531
  22676445.025   -13042889.15249  -9949591.36246  22676444.574    22676453.911
 03  4  2  1 57  0.0000000  0  9G18G25G15G11G14G31G23G 9G 3
  22732499.951    -1629525.02749  -1256275.59546  22732499.398    22732506.431
  23905278.735    -6685998.96349  -5193932.08145  23905278.430    23905290.453
  21854028.430    -7657097.69949  -5960271.96947  21854027.631    21854036.136
  24352528.381    -5147295.18049  -3992571.03545  24352527.766    24352537.518
  20211544.801   -24956203.40049 -19430521.12148  20211544.219    20211549.781
  22546594.502   -11672440.36649  -9076391.05246  22546593.868    22546602.362
  23526004.112     6432822.37249   5025263.55146  23526003.486    23526012.281
  24124073.096    -4924828.67349  -3829176.52645  24124072.682    24124082.101
  22689350.392   -12975071.16949  -9896746.23646  22689349.960    22689359.313
 03  4  2  1 57 30.0000000  0  9G18G25G15G11G14G31G23G 9G 3
  22744735.853    -1565224.48749  -1206171.27846  22744735.367    22744742.442
  23886533.229    -6784506.40249  -5270690.82345  23886532.838    23886544.758
  21869653.603    -7574987.09349  -5896289.71247  21869652.774    21869661.294
  24333671.697    -5246387.89649  -4069785.96045  24333671.010    24333680.656
  20212808.041   -24949564.88049 -19425348.23548  20212807.455    20212813.034
  22552384.292   -11642014.95549  -9052682.96046  22552383.670    22552392.045
  23537153.093     6491410.19549   5070916.39646  23537152.369    23537161.082
  24136150.603    -4861361.59149  -3779721.65045  24136150.081    24136159.479
  22702315.041   -12906941.35949  -9843658.13246  22702314.654    22702324.087
 03  4  2  1 58  0.0000000  0  9G18G25G15G11G14G31G23G 9G 3
  22756990.447    -1500826.68249  -1155991.17346  22756989.893    22756996.959
  23867793.806    -6882981.08749  -5347424.05545  23867793.441    23867805.310
  21885345.635    -7492524.74349  -5832033.37247  21885344.841    21885353.376
  24314832.342    -5345388.96849  -4146929.45345  24314831.722    24314841.423
  20214165.834   -24942429.49049 -19419788.17948  20214165.245    20214170.828
  22558270.434   -11611083.03249  -9028580.18046  22558269.805    22558278.196
  23548310.303     6550042.10349   5116603.59046  23548309.624    23548318.337
  24148323.379    -4797392.70749  -3729875.79545  24148322.954    24148332.393
  22715338.678   -12838502.26849  -9790329.03346  22715338.259    22715347.696
 03  4  2  1 58 30.0000000  0  9G18G25G15G11G14G31G23G 9G 3
  22769263.368    -1436332.30249  -1105735.80846  22769262.817    22769269.842
  23849061.181    -6981420.50849  -5424129.81545  23849060.810    23849072.649
  21901104.412    -7409712.01949  -5767504.01047  21901103.611    21901112.154
  24296010.800    -5444296.20049  -4223999.83345  24296010.272    24296019.816
  20215617.901   -24934798.69649 -19413842.09448  20215617.329    20215622.907
  22564252.519   -11579646.53149  -9004084.21646  22564251.933    22564260.334
  23559475.881     6608718.06549   5162325.10646  23559475.264    23559484.013
  24160591.350    -4732924.23149  -3679640.62245  24160591.041    24160600.216
  22728420.619   -12769756.53049  -9736760.97946  22728420.182    22728429.667
 03  4  2  1 59  0.0000000  0  9G18G25G15G11G14G31G23G 9G 3
  22781554.750    -1371740.86449  -1055404.81046  22781554.139    22781561.165
  23830335.647    -7079821.90249  -5500805.93845  23830335.313    23830347.216
  21916929.706    -7326549.95749  -5702702.44047  21916928.866    21916937.422
  24277207.344    -5543107.23249  -4300995.21645  24277206.950    24277216.573
  20217164.138   -24926673.26349 -19407510.57648  20217163.549    20217169.131
  22570330.438   -11547707.06349  -8979196.34346  22570329.836    22570338.240
  23570650.035     6667438.59649   5208081.36546  23570649.459    23570658.224
  24172953.893    -4667957.65649  -3629017.35545  24172953.593    24172962.887
  22741560.311   -12700707.01549  -9682956.22946  22741559.896    22741569.413
 03  4  2  1 59 30.0000000  0  9G18G25G15G11G14G31G23G 9G 3
  22793864.482    -1307052.78549  -1004998.51346  22793863.826    22793870.899
  23811618.092    -7178182.75149  -5577450.47445  23811617.731    23811629.576
  21932821.033    -7243040.43249  -5637630.11247  21932820.204    21932828.767
  24258422.648    -5641820.82749  -4377914.67145  24258422.244    24258431.947
  20218804.136   -24918054.87549 -19400794.93448  20218803.544    20218809.143
  22576503.569   -11515266.96849  -8953918.35646  22576502.973    22576511.438
  23581832.556     6726203.48549   5253872.17146  23581832.067    23581840.737
  24185410.818    -4602495.68949  -3578007.98245  24185410.618    24185419.755
  22754757.150   -12631357.14549  -9628917.41946  22754756.749    22754766.299
 03  4  2  2  0  0.0000000  0  9G18G25G15G11G14G31G23G 9G 3
  22806192.642    -1242268.27349   -954517.07246  22806191.932    22806199.008
  23792908.648    -7276500.34949  -5654061.30345  23792908.283    23792920.139
  21948778.330    -7159184.37649  -5572287.77247  21948777.507    21948786.108
  24239656.986    -5740434.44049  -4454756.24145  24239656.605    24239666.185
  20220537.783   -24908944.31049 -19393695.77748  20220537.203    20220542.793
  22582771.773   -11482327.68949  -8928251.41646  22582771.143    22582779.574
  23593023.725     6785013.23449   5299697.94446  23593023.219    23593031.866
  24197961.575    -4536540.26049  -3526614.17045  24197961.420    24197970.787
  22768010.834   -12561709.17149  -9574646.34146  22768010.384    22768019.986
 03  4  2  2  0 30.0000000  0  9G18G25G15G11G14G31G23G 9G 3
  22818538.980    -1177387.59449   -903960.69446  22818538.355    22818545.390
  23774207.951    -7374771.82549  -5730636.19945  23774207.649    23774219.380
  21964801.415    -7074982.92949  -5506676.29847  21964800.525    21964809.136
  24220910.690    -5838946.08149  -4531518.31045  24220910.323    24220919.781
  20222364.822   -24899343.24749 -19386214.41748  20222364.219    20222369.811
  22589134.561   -11448891.22849  -8902197.04646  22589133.937    22589142.434
  23604223.605     6843868.01649   5345558.79446  23604222.956    23604231.610
  24210606.012    -4470093.34849  -3474837.37745  24210605.996    24210615.213
  22781320.666   -12491766.01349  -9520145.24246  22781320.180    22781329.806
 03  4  2  2  1  0.0000000  0  9G18G25G15G11G14G31G23G 9G 3
  22830903.584    -1112411.15549   -853329.70846  22830902.985    22830909.979
  23755516.552    -7472994.93049  -5807173.39545  23755516.228    23755527.977
  21980889.811    -6990438.17549  -5440797.30647  21980888.907    21980897.492
  24202183.748    -5937354.14749  -4608199.69945  24202183.568    24202193.044
  20224284.845   -24889253.24349 -19378352.06048  20224284.259    20224289.857
  22595591.563   -11414960.06349  -8875757.20346  22595590.907    22595599.373
  23615431.917     6902767.52349   5391454.50646  23615431.147    23615439.813
  24223343.493    -4403157.60449  -3422679.66445  24223343.388    24223352.621
  22794685.986   -12421531.03149  -9465416.74446  22794685.487    22794695.130
 03  4  2  2  1 30.0000000  0  9G18G25G15G11G14G31G23G 9G 3
  22843286.548    -1047338.13449   -802623.46046  22843285.932    22843292.940
  23736834.924    -7571166.48649  -5883670.43445  23736834.612    23736846.276
  21997043.342    -6905550.79349  -5374651.33347  21997042.474    21997051.070
  24183477.487    -6035655.77549  -4684798.18145  24183477.288    24183486.697
  20226297.841   -24878674.86349 -19370109.15048  20226297.266    20226302.861
  22602142.303   -11380535.33449  -8848932.76146  22602141.693    22602150.166
  23626648.794     6961712.73649   5437385.83446  23626647.981    23626656.723
  24236173.641    -4335734.36149  -3370142.06745  24236173.597    24236182.874
  22808106.426   -12351006.35649  -9410462.52346  22808105.977    22808115.595
 03  4  2  2  2  0.0000000  0  9G18G25G15G11G14G31G23G 9G 3
  22855687.814     -982168.88049   -751842.23546  22855687.207    22855694.236
  23718163.453    -7669283.89149  -5960125.28145  23718163.218    23718174.821
  22013261.841    -6820322.18549  -5308239.46447  22013261.016    22013269.538
  24164791.762    -6133849.14149  -4761312.30445  24164791.494    24164800.955
  20228403.520   -24867609.49349 -19361486.75948  20228402.918    20228408.507
  22608786.612   -11345619.12249  -8821725.35046  22608785.983    22608794.503
  23637874.338     7020703.69049   5483352.80646  23637873.631    23637882.407
  24249096.225    -4267825.98649  -3317226.48245  24249096.189    24249105.451
  22821581.448   -12280195.05549  -9355284.95446  22821580.949    22821590.576
 03  4  2  2  2 30.0000000  0  9G18G25G15G11G14G31G23G 9G 3
  22868107.299     -916903.85549   -700986.36746  22868106.729    22868113.748
  23699503.023    -7767344.35549  -6036535.75145  23699502.756    23699514.350
  22029544.998    -6734753.91149  -5241562.93646  22029544.154    22029552.654
  24146126.948    -6231932.18049  -4837740.46645  24146126.676    24146136.017
  20230601.580   -24856058.61949 -19352486.05748  20230600.986    20230606.546
  22615524.035   -11310213.64949  -8794136.68446  22615523.419    22615531.976
  23649108.678     7079740.48949   5529355.48746  23649107.943    23649116.788
  24262110.812    -4199434.75049  -3263934.62445  24262110.651    24262119.917
  22835110.407   -12209100.03049  -9299886.29546  22835109.932    22835119.603
 03  4  2  2  3  0.0000000  0  9G18G25G15G11G14G31G23G 9G 3
  22880545.165     -851543.03449   -650055.87046  22880544.519    22880551.534
  23680853.851    -7865344.78949  -6112899.44045  23680853.587    23680865.160
  22045892.507    -6648847.28549  -5174622.74646  22045891.677    22045900.174
  24127483.722    -6329902.68049  -4914080.91545  24127483.372    24127492.495
  20232891.745   -24844023.65649 -19343108.13948  20232891.161    20232896.691
  22622354.295   -11274320.75149  -8766168.22846  22622353.670    22622362.187
  23660351.683     7138823.46149   5575394.13946  23660351.020    23660359.945
  24275216.599    -4130562.61749  -3210268.03145  24275216.507    24275225.939
  22848692.838   -12137724.23749  -9244268.87146  22848692.369    22848701.997
 03  4  2  2  3 30.0000000  0  9G18G25G15G11G14G31G23G 9G 3
  22893001.043     -786086.56949   -599050.84446  22893000.446    22893007.411
  23662216.537    -7963283.05349  -6189214.69945  23662216.389    23662227.766
  22062304.140    -6562603.58349  -5107419.89846  22062303.355    22062311.827
  24108862.279    -6427758.47649  -4990332.03245  24108861.943    24108870.947
  20235273.822   -24831505.75749 -19333353.91248  20235273.222    20235278.742
  22629276.859   -11237942.47149  -8737821.53346  22629276.218    22629284.774
  23671603.628     7197952.72649   5621468.86746  23671602.960    23671611.860
  24288413.571    -4061211.86349  -3156228.50445  24288413.531    24288422.907
  22862328.180   -12066070.49949  -9188434.84746  22862327.670    22862337.289
 03  4  2  2  4  0.0000000  0  9G18G25G15G11G14G31G23G 9G 3
  22905475.051     -720534.63349   -547971.42846  22905474.540    22905481.471
  23643591.757    -8061156.07849  -6265479.11745  23643591.563    23643602.802
  22078779.686    -6476024.36049  -5039955.61546  22078778.869    22078787.352
  24090263.002    -6525497.78049  -5066492.38045  24090262.588    24090271.486
  20237747.443   -24818506.51249 -19323224.60748  20237746.869    20237752.394
  22636291.432   -11201080.88649  -8709098.24846  22636290.782    22636299.317
  23682864.495     7257128.58249   5667579.90846  23682863.774    23682872.667
  24301701.280    -3991384.77049  -3101817.77845  24301701.153    24301710.528
  22876015.792   -11994141.82049  -9132386.59946  22876015.284    22876024.978
 03  4  2  2  4 30.0000000  0  9G18G25G15G11G14G31G23G 9G 3
  22917967.361     -654887.03649   -496817.46146  22917966.862    22917973.810
  23624979.862    -8158961.07049  -6341690.52045  23624979.527    23624990.826
  22095318.789    -6389111.02249  -4972230.98246  22095317.979    22095326.470
  24071686.120    -6623118.60149  -5142560.41045  24071685.849    24071694.568
  20240312.507   -24805026.95849 -19312721.03448  20240311.934    20240317.450
  22643397.633   -11163737.90549  -8679999.83846  22643396.952    22643405.436
  23694134.261     7316351.35349   5713727.51245  23694133.453    23694142.449
  24315079.054    -3921083.52449  -3047037.60245  24315078.872    24315088.435
  22889755.221   -11921940.89549  -9076126.20746  22889754.702    22889764.419
 03  4  2  2  5  0.0000000  0  9G18G25G15G11G14G31G23G 9G 3
  22930477.945     -589143.97949   -445589.12146  22930477.361    22930484.328
  23606381.454    -8256695.80949  -6417847.18445  23606381.083    23606392.150
  22111921.200    -6301864.90749  -4904247.03746  22111920.416    22111928.882
  24053132.351    -6720618.45349  -5218534.18645  24053132.064    24053140.882
  20242968.653   -24791068.80849 -19301844.52948  20242968.085    20242973.583
  22650594.979   -11125915.71149  -8650528.02346  22650594.310    22650602.747
  23705412.933     7375621.13749   5759911.73945  23705412.125    23705421.116
  24328546.746    -3850310.24349  -2991889.61245  24328546.607    24328556.071
  22903545.820   -11849470.92049  -9019656.17146  22903545.325    22903555.041
 03  4  2  2  5 30.0000000  0  9G18G25G15G11G14G31G23G 9G 3
  22943006.479     -523305.67349   -394286.55346  22943005.938    22943012.918
  23587796.880    -8354357.17149  -6493946.69245  23587796.529    23587807.516
  22128586.647    -6214287.72749  -4836005.12746  22128585.879    22128594.342
  24034602.013    -6817995.31549  -5294412.14145  24034601.741    24034610.340
  20245715.591   -24776633.39849 -19290596.13648  20245715.003    20245720.509
  22657883.098   -11087616.45449  -8620684.45846  22657882.454    22657890.901
  23716700.620     7434938.07849   5806132.73345  23716699.820    23716708.747
  24342103.924    -3779067.28149  -2936375.58845  24342103.643    24342113.195
  22917387.086   -11776734.64649  -8962978.61646  22917386.633    22917396.353
 03  4  2  2  6  0.0000000  0  9G18G25G15G11G14G31G23G 9G 3
  22955553.339     -457371.77449   -342909.50746  22955552.772    22955559.702
  23569226.904    -8451942.04849  -6569986.59745  23569226.554    23569237.515
  22145314.925    -6126380.27449  -4767505.85846  22145314.148    22145322.630
  24016095.538    -6915246.79049  -5370192.40845  24016095.334    24016103.706
  20248553.157   -24761721.86649 -19278976.73548  20248552.569    20248558.059
  22665261.741   -11048841.82849  -8590470.48346  22665261.066    22665269.521
  23727997.324     7494302.96749   5852391.07745  23727996.550    23728005.519
  24355750.011    -3707356.72649  -2880497.24245  24355749.725    24355759.376
  22931278.641   -11703734.64149  -8906095.55846  22931278.166    22931287.846
 03  4  2  2  6 30.0000000  0  8G18G25G15G11G14G31G23G 3
  22968118.320     -391342.47849   -291458.11946  22968117.733    22968124.712
  23550672.004    -8549447.72549  -6645964.79545  23550671.700    23550682.528
  22162105.674    -6038144.21949  -4698750.53746  22162104.894    22162113.426
  23997613.367    -7012370.65249  -5445873.22045  23997613.088    23997621.387
  20251481.020   -24746335.67449 -19266987.47448  20251480.452    20251485.937
  22672730.433   -11009594.07749  -8559887.84146  22672729.736    22672738.143
  23739303.226     7553715.73249   5898686.72945  23739302.383    23739311.392
  22945219.717   -11630473.95049  -8849009.37446  22945219.216    22945228.924
 03  4  2  2  7  0.0000000  0  8G18G25G15G11G14G31G23G 3
  22980701.421     -325217.63349   -239932.27946  22980700.832    22980707.873
  23532132.875    -8646871.09449  -6721878.85545  23532132.504    23532143.240
  22178958.887    -5949580.58149  -4629739.96146  22178958.037    22178966.593
  23979155.999    -7109364.41849  -5521452.62745  23979155.656    23979164.122
  20254499.004   -24730475.99849 -19254629.26548  20254498.433    20254503.908
  22680288.770   -10969874.93149  -8528937.88346  22680288.083    22680296.455
  23750618.374     7613177.14149   5945020.26845  23750617.559    23750626.518
  22959209.879   -11556955.12249  -8791722.05046  22959209.410    22959219.117
 03  4  2  2  7 30.0000000  0  8G18G25G15G11G14G31G23G 3
  22993302.575     -258997.92849   -188332.53546  22993302.058    22993309.138
  23513609.847    -8744210.10749  -6797727.18946  23513609.387    23513620.044
  22195873.891    -5860691.66449  -4560475.91746  22195873.057    22195881.627
  23960723.580    -7206226.98549  -5596929.81945  23960723.246    23960731.491
  20257606.706   -24714144.98549 -19241903.78248  20257606.121    20257611.591
  22687936.171   -10929687.38649  -8497622.93246  22687935.489    22687943.899
  23761942.620     7672686.79849   5991391.45345  23761941.860    23761950.827
  22973248.488   -11483181.81749  -8734236.42646  22973248.051    22973257.788
 03  4  2  2  8  0.0000000  0  8G18G25G15G11G14G31G23G 3
  23005921.736     -192683.68049   -136659.12646  23005921.243    23005928.316
  23495103.206    -8841462.71749  -6873508.20546  23495102.659    23495113.125
  22212850.502    -5771478.96249  -4490959.56746  22212849.684    22212858.252
  23942316.744    -7302955.98149  -5672302.96745  23942316.379    23942324.383
  20260803.772   -24697344.21949 -19228812.26048  20260803.188    20260808.650
  22695672.265   -10889033.71649  -8465944.77246  22695671.633    22695680.063
  23773276.192     7732244.84049   6037800.30745  23773275.424    23773284.245
  22987334.994   -11409157.07649  -8676554.89146  22987334.559    22987344.271
 03  4  2  2  8 30.0000000  0  8G18G25G15G11G14G31G23G 3
  23018558.975     -126274.43749    -84911.68746  23018558.494    23018565.551
  23476613.552    -8938625.54049  -6949219.24546  23476613.059    23476623.357
  22229888.474    -5681943.78549  -4421191.94846  22229887.669    22229896.232
  23923935.614    -7399549.26249  -5747570.31545  23923935.185    23923943.153
  20264089.979   -24680074.91349 -19215355.64348  20264089.393    20264094.875
  22703496.726   -10847915.81949  -8433904.87846  22703496.107    22703504.515
  23784619.089     7791851.81249   6084247.30545  23784618.262    23784627.037
  23001468.818   -11334883.46849  -8618679.42946  23001468.395    23001478.086
 03  4  2  2  9  0.0000000  0  8G18G25G15G11G14G31G23G 3
  23031214.394      -59770.27949    -33090.27046  23031213.873    23031220.922
  23458141.446    -9035695.28149  -7024857.77946  23458141.097    23458151.362
  22246987.623    -5592087.32949  -4351173.97046  22246986.801    22246995.406
  23905580.684    -7496003.96749  -5822729.69645  23905580.342    23905588.360
  20267465.122   -24662338.24349 -19201534.84948  20267464.546    20267470.034
  22711409.167   -10806335.44349  -8401504.60346  22711408.539    22711417.036
  23795971.242     7851508.23549   6130732.84045  23795970.502    23795979.405
  23015649.468   -11260363.63549  -8560612.08346  23015649.058    23015658.770
 03  4  2  2  9 30.0000000  0  8G18G25G15G11G14G31G23G 3
  23043887.771        6828.87149     18805.17146  23043887.299    23043894.347
  23439687.643    -9132669.38949  -7100421.79546  23439687.372    23439697.542
  22264147.555    -5501911.25149  -4280906.94046  22264146.762    22264155.416
  23887252.610    -7592318.05449  -5897779.49645  23887252.299    23887260.338
  20270928.965   -24644135.64449 -19187350.99148  20270928.388    20270933.875
  22719409.181   -10764294.97349  -8368745.82646  22719408.571    22719417.055
  23807332.879     7911214.29349   6177257.02345  23807332.236    23807341.133
  23029876.356   -11185600.65149  -8502355.29646  23029875.968    23029885.679
 03  4  2  2 10  0.0000000  0  8G18G25G15G11G14G31G23G 3
  23056579.296       73522.92249     70774.54946  23056578.773    23056585.805
  23421252.620    -9229545.26749  -7175909.25746  23421252.275    23421262.462
  22281368.055    -5411416.87549  -4210391.88946  22281367.300    22281375.974
  23868951.637    -7688489.68349  -5972718.25545  23868951.349    23868959.431
  20274481.119   -24625468.88449 -19172805.45448  20274480.549    20274486.010
  22727496.338   -10721796.77049  -8335630.36446  22727495.722    22727504.269
  23818704.040     7970969.97449   6223819.89145  23818703.435    23818712.128
  23044149.138   -11110597.62249  -8443911.45146  23044148.638    23044158.340
 03  4  2  2 10 30.0000000  0  8G18G25G15G11G14G31G23G 3
  23069288.783      140311.61849    122817.66846  23069288.284    23069295.297
  23402836.819    -9326320.24349  -7251318.11046  23402836.404    23402846.544
  22298648.867    -5320605.86849  -4139630.10446  22298648.097    22298656.813
  23850678.276    -7784516.71249  -6047544.38345  23850677.980    23850685.989
  20278121.293   -24606339.57049 -19157899.48148  20278120.699    20278126.157
  22735670.161   -10678843.15649  -8302160.04146  22735669.513    22735678.067
  23830084.773     8030775.58249   6270421.65045  23830084.026    23830092.756
  23058466.840   -11035357.47449  -8385282.85246  23058466.375    23058476.156
 03  4  2  2 11  0.0000000  0  8G18G25G15G11G14G31G23G 3
  23082016.321      207195.08949    174934.65646  23082015.793    23082022.867
  23384440.779    -9422991.16049  -7326645.87046  23384440.369    23384450.466
  22315989.635    -5229479.64849  -4068622.70146  22315988.892    22315997.610
  23832432.894    -7880396.42449  -6122255.70545  23832432.500    23832440.492
  20281849.233   -24586749.04249 -19142634.12648  20281848.618    20281854.075
  22743930.206   -10635436.17449  -8268336.43246  22743929.555    22743938.193
  23841474.752     8090631.75249   6317062.81445  23841474.181    23841482.970
  23072829.167   -10959882.82149  -8326471.50746  23072828.762    23072838.583
 03  4  2  2 11 30.0000000  0  8G18G25G15G11G14G31G23G 3
  23094761.749      274173.14449    227125.34646  23094761.279    23094768.385
  23366064.894    -9519555.42549  -7401890.52746  23366064.581    23366074.690
  22333390.001    -5138039.90649  -3997371.00046  22333389.316    22333398.064
  23814215.964    -7976126.86649  -6196850.67445  23814215.512    23814223.547
  20285664.605   -24566698.97349 -19127010.68448  20285664.037    20285669.470
  22752276.059   -10591578.23849  -8234161.44146  22752275.458    22752284.104
  23852874.793     8150538.50849   6363743.39445  23852874.068    23852882.864
  23087235.609   -10884176.82149  -8267479.89646  23087235.190    23087245.030
 03  4  2  2 12  0.0000000  0  8G18G25G15G11G14G31G23G 3
  23107525.399      341245.96649    279389.86946  23107524.864    23107531.906
  23347710.035    -9616010.26449  -7477049.93046  23347709.727    23347719.635
  22350849.868    -5046288.22249  -3925876.23446  22350849.069    22350857.887
  23796027.846    -8071705.93349  -6271327.72945  23796027.393    23796035.389
  20289567.151   -24546190.87549 -19111030.33548  20289566.565    20289572.002
  22760707.290   -10547271.57049  -8199636.78146  22760706.721    22760715.411
  23864284.543     8210496.21149   6410463.66445  23864283.701    23864292.402
  23101685.452   -10808242.50649  -8208310.38346  23101685.066    23101694.885
 03  4  2  2 12 30.0000000  0  8G18G25G15G11G14G31G23G 3
  23120306.944      408413.56949    331728.24946  23120306.445    23120313.498
  23329376.567    -9712352.58349  -7552121.64346  23329376.150    23329386.062
  22368368.819    -4954225.93549  -3854139.43646  22368368.001    22368376.838
  23777868.830    -8167131.28149  -6345684.97245  23777868.445    23777876.450
  20293556.573   -24525226.30249 -19094694.29648  20293555.994    20293561.444
  22769223.467   -10502518.47949  -8164764.26846  22769222.945    22769231.707
  23875703.771     8270505.11249   6457223.83445  23875702.995    23875711.842
  23116178.282   -10732082.66249  -8148965.12846  23116177.873    23116187.754
 03  4  2  2 13  0.0000000  0  8G18G25G15G11G14G31G23G 3
  23133106.524      475675.64449    384140.26046  23133105.964    23133113.056
  23311064.878    -9808579.94649  -7627103.80346  23311064.537    23311074.404
  22385946.439    -4861855.13649  -3782162.23946  22385945.582    22385954.420
  23759739.573    -8262400.82249  -6419920.82645  23759739.145    23759747.164
  20297632.482   -24503806.99249 -19078003.92248  20297631.912    20297637.398
  22777824.149   -10457321.45049  -8129545.82046  22777823.631    22777832.433
  23887132.917     8330565.59349   6504024.19545  23887132.112    23887140.993
  23130713.412   -10655700.34949  -8089446.51946  23130713.021    23130722.936
 03  4  2  2 13 30.0000000  0  8G18G25G15G11G14G31G23G 3
  23145924.129      543032.36149    436626.01046  23145923.510    23145930.690
  23292775.459    -9904689.56349  -7701994.19946  23292775.218    23292785.169
  22403582.559    -4769176.95049  -3709945.52146  22403581.723    22403590.530
  23741640.250    -8357512.41349  -6494033.60845  23741639.865    23741648.000
  20301794.676   -24481934.40649 -19060960.33848  20301794.100    20301799.616
  22786508.976   -10411682.55449  -8093983.06746  22786508.528    22786517.319
  23898571.912     8390678.12349   6550865.11645  23898571.103    23898580.058
  23145290.381   -10579098.31249  -8029756.71046  23145289.979    23145299.949
 03  4  2  2 14  0.0000000  0  8G18G25G15G11G14G31G23G 3
  23158759.585      610483.63749    489185.43946  23158759.065    23158766.199
  23274509.257   -10000678.58549  -7776790.64346  23274508.873    23274518.847
  22421276.876    -4676192.94149  -3637490.49646  22421276.014    22421284.851
  23723571.505    -8452463.58149  -6568021.40145  23723571.154    23723579.228
  20306042.864   -24459610.05549 -19043564.73448  20306042.299    20306047.802
  22795277.440   -10365604.21149  -8058077.88946  22795276.968    22795285.737
  23910020.850     8450842.92349   6597746.76945  23910020.108    23910029.102
  23159908.563   -10502279.73049  -7969898.17346  23159908.169    23159918.134
 03  4  2  2 14 30.0000000  0  8G18G25G15G11G14G31G23G 3
  23171613.020      678029.06249    541818.23546  23171612.506    23171619.660
  23256266.206   -10096544.51649  -7851491.16446  23256265.983    23256276.005
  22439029.009    -4582905.11049  -3564798.73246  22439028.154    22439036.965
  23705533.790    -8547252.12749  -6641882.45645  23705533.421    23705541.522
  20310376.679   -24436835.82649 -19025818.56948  20310376.079    20310381.583
  22804129.046   -10319089.00549  -8021832.30346  22804128.501    22804137.271
  23921479.798     8511060.11649   6644669.23645  23921479.065    23921488.059
  23174567.325   -10425247.51349  -7909873.15546  23174566.961    23174577.026
 03  4  2  2 15  0.0000000  0  8G18G25G15G11G14G31G23G 3
  23184484.577      745669.28949    594524.89146  23184484.035    23184491.186
  23238047.507   -10192283.66549  -7926092.90246  23238047.285    23238057.179
  22456838.824    -4489314.39249  -3491870.95646  22456837.945    22456846.687
  23687527.365    -8641875.48749  -6715614.78845  23687526.997    23687535.245
  20314795.855   -24413612.79449 -19007722.69348  20314795.290    20314800.775
  22813063.369   -10272138.66049  -7985247.65546  22813062.865    22813071.606
  23932948.941     8571330.58649   6691633.23145  23932948.175    23932957.126
  23189266.323   -10348003.94649  -7849683.44846  23189265.955    23189276.113
 03  4  2  2 15 30.0000000  0  8G18G25G15G11G14G31G23G 3
  23197374.251      813403.83449    647305.04646  23197373.582    23197380.634
  23219853.222   -10287894.26049  -8000594.47346  23219853.040    23219862.892
  22474705.802    -4395423.11649  -3418708.96446  22474704.886    22474713.614
  23669552.633    -8736331.89349  -6789217.04945  23669552.261    23669560.600
  20319299.978   -24389943.26649 -18989278.89848  20319299.412    20319304.917
  22822080.006   -10224756.22449  -7948326.31546  22822079.453    22822088.179
  23944428.214     8631654.23849   6738638.66245  23944427.398    23944436.377
  23204004.929   -10270552.79149  -7789331.99846  23204004.542    23204014.659
 03  4  2  2 16  0.0000000  0  8G18G25G15G11G14G31G23G 3
  23210281.498      881232.43849    700158.48946  23210280.877    23210287.993
  23201684.042   -10383373.34349  -8074993.56146  23201683.839    23201693.693
  22492629.588    -4301232.79049  -3345313.95646  22492628.787    22492637.470
  23651610.278    -8830619.06549  -6862687.42645  23651609.941    23651618.212
  20323888.815   -24365828.83449 -18970488.42248  20323888.255    20323893.725
  22831178.390   -10176944.21749  -7911070.24846  22831177.834    22831186.537
  23955917.552     8692031.13149   6785685.58645  23955916.794    23955925.724
  23218782.455   -10192896.83149  -7728820.95446  23218782.072    23218792.240
 03  4  2  2 16 30.0000000  0  8G18G25G15G11G14G31G23G 3
  23223206.865      949155.82249    753085.80346  23223206.268    23223213.378
  23183540.523   -10478717.86949  -8149287.81046  23183540.320    23183550.033
  22510610.131    -4206744.69449  -3271686.91546  22510609.299    22510618.015
  23633700.504    -8924734.54349  -6936024.03345  23633700.290    23633708.500
  20328562.067   -24341270.71549 -18951352.21648  20328561.490    20328566.949
  22840358.130   -10128704.65349  -7873481.01346  22840357.559    22840366.262
  23967417.109     8752462.01549   6832774.57145  23967416.373    23967425.358
  23233598.414   -10115038.70949  -7668152.37646  23233598.015    23233608.239
 03  4  2  2 17  0.0000000  0  8G18G25G15G11G14G31G23G 3
  23236150.203     1017173.79849    806086.81846  23236149.658    23236156.701
  23165423.184   -10573924.82449  -8223474.84846  23165422.922    23165432.539
  22528646.904    -4111960.28849  -3197828.99546  22528646.173    22528654.903
  23615823.940    -9018676.03449  -7009225.07445  23615823.696    23615831.907
  20333319.403   -24316270.83249 -18931871.77948  20333318.806    20333324.256
  22849618.794   -10080040.00049  -7835560.55346  22849618.198    22849626.938
  23978927.154     8812947.13549   6879905.82745  23978926.355    23978935.279
  23248452.312   -10036981.51849  -7607328.68346  23248451.871    23248462.092
 03  4  2  2 17 30.0000000  0  8G18G25G15G11G14G31G23G 3
  23249111.486     1085285.65149    859160.96846  23249110.935    23249117.917
  23147332.437   -10668992.13249  -8297553.08646  23147332.136    23147341.618
  22546739.778    -4016881.91649  -3123742.00146  22546738.987    22546747.752
  23597980.738    -9112441.80449  -7082289.16345  23597980.488    23597988.768
  20338160.366   -24290831.23149 -18912048.70148  20338159.805    20338165.248
  22858959.803   -10030953.19249  -7797311.13446  22858959.181    22858967.835
  23990447.333     8873486.03349   6927078.99945  23990446.540    23990455.462
  23263343.458    -9958728.81649  -7546352.65746  23263342.982    23263353.183
 03  4  2  2 18  0.0000000  0  8G18G25G15G11G14G31G23G 3
  23262090.764     1153491.91249    912308.69846  23262090.170    23262097.109
  23129268.826   -10763916.49349  -8371519.94046  23129268.550    23129277.910
  22564888.357    -3921510.89149  -3049426.96646  22564887.543    22564896.300
  23580171.666    -9206028.96249  -7155214.10945  23580171.357    23580179.558
  20343084.790   -24264953.17849 -18891883.97648  20343084.236    20343089.678
  22868380.715    -9981446.41449  -7758734.46946  22868380.060    22868388.748
  24001977.819     8934079.56449   6974294.72245  24001977.077    24001986.092
  23278271.285    -9880283.04149  -7485226.17046  23278270.818    23278281.065
 03  4  2  2 18 30.0000000  0  8G18G25G15G11G14G31G23G 3
  23275087.895     1221792.47949    965529.91946  23275087.193    23275094.272
  23111232.938   -10858695.21449  -8445373.31446  23111232.577    23111241.864
  22583092.175    -3825848.99849  -2974885.28646  22583091.441    22583100.223
  23562396.951    -9299435.43049  -7227998.27145  23562396.622    23562404.631
  20348092.336   -24238638.33549 -18871378.89348  20348091.749    20348097.207
  22877881.038    -9931521.92449  -7719832.32146  22877880.413    22877889.150
  24013518.881     8994728.15749   7021553.35845  24013518.127    24013527.144
  23293235.282    -9801647.10549  -7423951.51446  23293234.808    23293245.030
 03  4  2  2 19  0.0000000  0  8G18G25G15G11G14G31G23G 3
  23288102.953     1290187.61349   1018824.81646  23288102.382    23288109.410
  23093225.291   -10953325.32449  -8519110.88746  23093224.924    23093234.203
  22601351.210    -3729897.56449  -2900117.97846  22601350.461    22601359.216
  23544656.961    -9392658.63349  -7300639.59545  23544656.694    23544664.688
  20353182.678   -24211888.28049 -18850534.68548  20353182.085    20353187.572
  22887460.378    -9881182.06449  -7680606.50446  22887459.712    22887468.588
  24025070.492     9055432.52349   7068855.46745  24025069.761    24025078.807
  23308234.975    -9722823.80449  -7362530.85946  23308234.475    23308244.674
 03  4  2  2 19 30.0000000  0  8G18G25G15G11G14G31G23G 3
  23301136.113     1358677.31349   1072193.39746  23301135.609    23301142.550
  23075246.376   -11047803.91749  -8592730.40546  23075246.110    23075255.314
  22619664.908    -3633658.27049  -2825126.36646  22619664.182    22619673.021
  23526952.351    -9485696.32749  -7373136.40645  23526952.130    23526960.109
  20358355.475   -24184704.91049 -18829352.82648  20358354.914    20358360.388
  22897118.302    -9830429.49749  -7641059.08346  22897117.695    22897126.634
  24036632.842     9116192.86049   7116201.17145  24036632.046    24036641.147
  23323269.716    -9643816.09149  -7300966.52246  23323269.216    23323279.451
 03  4  2  2 20  0.0000000  0  8G18G25G15G11G14G31G23G 3
  23314187.321     1427261.12049   1125635.32246  23314186.714    23314193.652
  23057296.917   -11142128.58249  -8666229.99046  23057296.576    23057305.734
  22638033.063    -3537133.50449  -2749912.30246  22638032.256    22638041.157
  23509283.460    -9578546.81449  -7445487.33746  23509283.202    23509291.106
  20363610.325   -24157090.40049 -18807835.01548  20363609.776    20363615.236
  22906854.259    -9779267.12549  -7601192.34646  22906853.615    22906862.517
  24048205.834     9177008.96549   7163590.32445  24048205.024    24048214.008
  23338338.835    -9564627.60449  -7239261.30246  23338338.394    23338348.532
 03  4  2  2 20 30.0000000  0  8G18G25G15G11G14G31G23G 3
  23327256.292     1495939.13949   1179150.65246  23327255.687    23327262.673
  23039377.282   -11236296.52049  -8739607.43446  23039376.911    23039385.978
  22656455.195    -3440324.70849  -2674476.92246  22656454.353    22656463.288
  23491650.685    -9671207.49749  -7517690.36146  23491650.359    23491658.279
  20368946.962   -24129046.28249 -18785982.44348  20368946.412    20368951.842
  22916667.726    -9727697.40549  -7561008.17746  22916667.091    22916675.973
  24059789.530     9237881.41849   7211023.38745  24059788.665    24059797.707
  23353441.867    -9485261.02549  -7177417.31346  23353441.409    23353451.491
 03  4  2  2 21  0.0000000  0  8G18G25G15G11G14G31G23G 3
  23340343.388     1564711.60649   1232739.58546  23340342.727    23340349.690
  23021487.963   -11330304.92849  -8812860.59046  23021487.606    23021496.643
  22674931.130    -3343233.36849  -2598821.36746  22674930.252    22674939.193
  23474054.435    -9763675.98249  -7589743.62846  23474054.141    23474061.994
  20374365.075   -24100573.97749 -18763796.21848  20374364.511    20374369.921
  22926558.261    -9675722.60349  -7520508.37246  22926557.634    22926566.545
  24071383.915     9298810.68749   7258500.71845  24071383.139    24071392.147
  23368578.197    -9405719.14849  -7115436.74346  23368577.790    23368587.840
 03  4  2  2 21 30.0000000  0  8G18G25G15G11G14G31G23G 3
  23353448.182     1633578.28749   1286401.92146  23353447.644    23353454.660
  23003629.453   -11424150.84849  -8885987.13446  23003629.170    23003638.211
  22693460.341    -3245861.49049  -2522947.22146  22693459.465    22693468.446
  23456495.245    -9855950.03949  -7661645.39646  23456494.907    23456502.712
  20379864.195   -24071675.74549 -18741278.10448  20379863.634    20379869.054
  22936525.238    -9623345.66349  -7479695.20146  22936524.624    22936533.570
  24082989.299     9359796.85849   7306022.40445  24082988.424    24082997.450
  23383747.303    -9326005.27449  -7053322.14346  23383746.949    23383757.054
 03  4  2  2 22  0.0000000  0  8G18G25G15G11G14G31G23G 3
  23366571.108     1702539.68749   1340138.05146  23366570.560    23366577.490
  22985802.502   -11517831.16449  -8958984.62346  22985802.280    22985811.279
  22712042.805    -3148210.06049  -2446855.23846  22712041.950    22712050.961
  23438973.453    -9948026.97849  -7733393.57146  23438973.107    23438980.898
  20385444.149   -24042352.65249 -18718428.92948  20385443.591    20385449.028
  22946568.478    -9570568.36049  -7438570.06546  22946567.862    22946576.798
  24094605.607     9420840.95149   7353589.21445  24094604.712    24094613.721
  23398948.764    -9246121.53249  -6991075.18846  23398948.364    23398958.475
 03  4  2  2 22 30.0000000  0  8G18G25G15G11G14G31G23G 3
  23379711.940     1771594.94349   1393947.33645  23379711.333    23379718.386
  22968007.541   -11611344.01549  -9031851.62246  22968007.269    22968016.276
  22730678.016    -3050281.74749  -2370547.51046  22730677.150    22730686.180
  23421489.559   -10039905.44749  -7804987.08646  23421489.141    23421496.927
  20391104.456   -24012607.36649 -18695250.77448  20391103.923    20391109.391
  22956687.056    -9517394.41149  -7397135.84846  22956686.477    22956695.473
  24106232.762     9481942.23549   7401200.58445  24106231.943    24106240.846
  23414181.780    -9166072.02649  -6928699.05946  23414181.350    23414191.427
 03  4  2  2 23  0.0000000  0  8G18G25G15G11G14G31G23G 3
  23392870.726     1840745.08949   1447830.55145  23392870.163    23392877.164
  22950245.092   -11704685.74149  -9104585.28746  22950244.756    22950253.823
  22749365.773    -2952077.42449  -2294024.69746  22749364.872    22749373.918
  23404044.092   -10131581.84649  -7876423.14346  23404043.607    23404051.380
  20396845.028   -23982440.57549 -18671744.17348  20396844.468    20396849.937
  22966880.988    -9463825.22549  -7355393.65746  22966880.409    22966889.400
  24117871.090     9543102.20749   7448857.69445  24117870.406    24117879.238
  23429445.902    -9085858.45549  -6866195.08746  23429445.462    23429455.677
 03  4  2  2 23 30.0000000  0  8G18G25G15G11G14G31G23G 3
  23406047.409     1909989.41249   1501787.15545  23406046.911    23406053.892
  22932515.544   -11797854.13149  -9177183.87646  22932515.240    22932524.282
  22768105.536    -2853599.50349  -2217288.70246  22768104.639    22768113.676
  23386637.249   -10223054.74349  -7947700.61646  23386636.768    23386644.558
  20402665.277   -23951854.98549 -18647911.22948  20402664.719    20402670.193
  22977149.470    -9409864.25049  -7313346.17946  22977148.851    22977157.793
  24129520.568     9604320.43149   7496560.20245  24129519.891    24129528.781
  23444740.607    -9005484.61149  -6803566.23746  23444740.194    23444750.451
 03  4  2  2 24  0.0000000  0  8G18G25G15G11G14G31G23G 3
  23419242.208     1979328.58549   1555817.66045  23419241.776    23419248.699
  22914819.673   -11890845.99449  -9249644.92046  22914819.291    22914828.348
  22786897.115    -2754849.13049  -2140340.40846  22786896.280    22786905.259
  23369269.692   -10314321.36649  -8018817.36446  23369269.242    23369277.064
  20408564.978   -23920851.92949 -18623752.99548  20408564.405    20408569.859
  22987492.070    -9355513.52249  -7270995.00046  22987491.491    22987500.346
  24141181.431     9665597.86249   7544308.83545  24141180.648    24141189.423
  23460065.560    -8924952.79149  -6740814.29046  23460064.964    23460075.246
 03  4  2  2 24 30.0000000  0  8G18G25G15G11G14G31G23G 3
  23432455.029     2048762.04249   1609921.63945  23432454.519    23432461.379
  22897157.874   -11983658.85049  -9321966.47146  22897157.478    22897166.460
  22805740.148    -2655828.63849  -2063181.63546  22805739.335    22805748.325
  23351941.855   -10405379.79049  -8089771.89646  23351941.358    23351949.095
  20414543.667   -23889433.52749 -18599271.11448  20414543.086    20414548.543
  22997908.261    -9300776.15449  -7228342.56446  22997907.621    22997916.489
  24152853.294     9726934.22949   7592103.37545  24152852.458    24152861.402
  23475419.574    -8844266.78849  -6677942.19446  23475419.045    23475429.443
 03  4  2  2 25  0.0000000  0  8G18G25G15G11G14G31G23G 3
  23445685.731     2118290.21049   1664099.42445  23445685.299    23445692.191
  22879530.772   -12076289.17249  -9394145.77846  22879530.401    22879539.298
  22824634.353    -2556539.37549  -1985813.42446  22824633.535    22824642.484
  23334653.852   -10496227.74849  -8160562.40946  23334653.397    23334661.101
  20420601.118   -23857601.42649 -18574466.87048  20420600.523    20420605.992
  23008397.484    -9245654.42449  -7185390.59746  23008396.948    23008405.877
  24164536.367     9788330.37949   7639944.53145  24164535.749    24164544.590
  23490802.670    -8763428.95649  -6614951.78246  23490802.126    23490812.495
 03  4  2  2 25 30.0000000  0  8G18G25G15G11G14G31G23G 3
  23458934.532     2187912.71549   1718350.72745  23458934.058    23458940.946
  22861938.785   -12168734.98549  -9466181.31046  22861938.449    22861947.292
  22843579.257    -2456983.46549  -1908237.43446  22843578.440    22843587.422
  23317406.545   -10586862.12949  -8231186.50246  23317406.057    23317413.887
  20426736.894   -23825357.42649 -18549341.66848  20426736.335    20426741.790
  23018959.531    -9190151.26849  -7142141.43046  23018958.906    23018967.746
  24176231.100     9849786.42449   7687832.36745  24176230.504    24176239.455
  23506214.072    -8682442.53249  -6551845.59846  23506213.477    23506223.799
 03  4  2  2 26  0.0000000  0  8G18G25G15G11G14G31G23G 3
  23472201.240     2257629.46649   1772675.44945  23472200.733    23472207.633
  22844382.493   -12260993.84449  -9538071.17946  22844382.103    22844390.866
  22862574.394    -2357163.11649  -1830455.39646  22862573.649    22862582.656
  23300200.271   -10677281.43449  -8301643.01946  23300199.868    23300207.584
  20432950.654   -23792703.74449 -18523897.23248  20432950.093    20432955.553
  23029593.484    -9134269.52549  -7098597.26946  23029592.835    23029601.671
  24187937.299     9911302.44849   7735766.92045  24187936.650    24187945.478
  23521652.878    -8601310.93749  -6488626.27945  23521652.339    23521662.758
 03  4  2  2 26 30.0000000  0  8G18G25G15G11G14G31G23G 3
  23485485.941     2327440.72549   1827073.80845  23485485.367    23485492.285
  22826862.325   -12353062.32649  -9609812.69946  22826861.943    22826870.649
  22881619.717    -2257079.44049  -1752468.16346  22881618.936    22881628.033
  23283035.465   -10767482.99449  -8371929.85646  23283035.040    23283042.603
  20439242.118   -23759641.81749 -18498134.67748  20439241.568    20439247.005
  23040298.983    -9078011.55049  -7054759.92746  23040298.373    23040307.202
  24199654.986     9972879.04049   7783748.71145  24199654.239    24199663.104
  23537118.902    -8520036.44049  -6425295.62145  23537118.442    23537128.932
 03  4  2  2 27  0.0000000  0  8G18G25G15G11G14G31G23G 3
  23498788.566     2397346.51049   1881545.85345  23498787.978    23498794.893
  22809378.849   -12444937.78549  -9681403.81546  22809378.486    22809387.204
  22900714.739    -2156734.34449  -1674277.22646  22900713.967    22900723.117
  23265912.460   -10857464.68849  -8442045.34746  23265911.955    23265919.648
  20445610.939   -23726173.58149 -18472055.51748  20445610.369    20445615.818
  23051075.651    -9021380.03449  -7010631.52746  23051075.013    23051083.832
  24211384.115    10034516.52449   7831777.93145  24211383.408    24211392.315
  23552611.573    -8438622.16949  -6361856.03745  23552611.176    23552621.642
 03  4  2  2 27 30.0000000  0  8G18G25G15G11G14G31G23G 3
  23512109.267     2467347.21349   1936091.85445  23512108.646    23512115.648
  22791932.725   -12536617.24249  -9752842.20346  22791932.324    22791941.039
  22919859.152    -2056129.60649  -1595883.97246  22919858.462    22919867.608
  23248831.816   -10947223.59149  -8511987.23746  23248831.329    23248839.074
  20452056.690   -23692300.72449 -18445661.06548  20452056.126    20452061.575
  23061922.985    -8964377.48349  -6966214.01346  23061922.293    23061931.102
  24223125.047    10096215.53049   7879855.08845  24223124.360    24223133.159
  23568130.456    -8357070.76449  -6298309.61045  23568130.003    23568140.444
 03  4  2  2 28  0.0000000  0  8G18G25G15G11G14G31G23G 3
  23525447.915     2537442.34949   1990711.44045  23525447.301    23525454.329
  22774524.342   -12628098.19049  -9824125.91846  22774523.886    22774532.661
  22939052.579    -1955267.33049  -1517290.02946  22939051.874    22939061.123
  23231794.047   -11036757.93249  -8581754.17046  23231793.485    23231801.131
  20458579.023   -23658025.56949 -18418953.13648  20458578.471    20458583.946
  23072840.229    -8907007.08649  -6921509.85346  23072839.546    23072848.392
  24234877.721    10157975.92249   7927980.09045  24234876.954    24234885.814
  23583674.681    -8275385.60549  -6234658.94045  23583674.242    23583684.697
 03  4  2  2 28 30.0000000  0  8G18G25G15G11G14G31G23G 3
  23538804.648     2607632.03449   2045404.70745  23538803.995    23538811.039
  22757154.213   -12719377.86149  -9895252.79146  22757153.831    22757162.584
  22958294.693    -1854149.17749  -1438496.70646  22958294.034    22958303.334
  23214799.254   -11126065.17049  -8651344.12646  23214798.810    23214806.388
  20465177.616   -23623349.64449 -18391932.91848  20465177.043    20465182.519
  23083827.039    -8849271.33149  -6876521.00646  23083826.370    23083835.192
  24246642.008    10219798.28849   7976153.38645  24246641.300    24246650.189
  23599243.843    -8193569.63249  -6170906.35445  23599243.454    23599253.830
 03  4  2  2 29  0.0000000  0  8G18G25G15G11G14G31G23G 3
  23552179.348     2677916.57449   2100171.86745  23552178.637    23552185.729
  22739822.966   -12810453.13549  -9966220.39646  22739822.619    22739831.367
  22977585.202    -1752776.58349  -1359505.11346  22977584.599    22977593.928
  23197848.113   -11215142.69249  -8720755.07446  23197847.784    23197855.430
  20471852.110   -23588274.89549 -18364601.93148  20471851.522    20471857.006
  23094882.903    -8791172.66149  -6831249.36546  23094882.166    23094891.046
  24258418.293    10281683.18849   8024375.39445  24258417.597    24258426.578
  23614837.353    -8111625.51049  -6107053.89345  23614836.968    23614847.378
 03  4  2  2 29 30.0000000  0  8G18G25G15G11G14G31G23G 3
  23565571.944     2748296.00049   2155012.98845  23565571.325    23565578.478
  22722531.150   -12901321.37049 -10037026.68446  22722530.830    22722539.601
  22996923.866    -1651151.65149  -1280316.91146  22996923.231    22996932.509
  23180941.249   -11303988.23349  -8789985.26546  23180940.999    23180948.532
  20478602.196   -23552803.04049 -18336961.50648  20478601.599    20478607.093
  23106007.218    -8732713.82149  -6785697.08046  23106006.585    23106015.463
  24270206.624    10343631.02349   8072646.46045  24270205.966    24270214.877
  23630454.820    -8029556.17349  -6043103.87645  23630454.356    23630464.776
 03  4  2  2 30  0.0000000  0  8G18G25G15G11G14G31G23G 3
  23578982.577     2818769.73149   2209927.58445  23578982.040    23578989.181
  22705279.304   -12991979.97849 -10107669.62346  22705278.983    22705287.668
  23016310.198    -1549276.72349  -1200933.88846  23016309.510    23016318.631
  23164078.931   -11392599.63849  -8859032.99846  23164078.662    23164086.210
  20485427.347   -23516936.46449 -18309013.50548  20485426.764    20485432.231
  23117199.485    -8673898.23649  -6739866.79946  23117198.886    23117207.787
  24282006.909    10405641.59249   8120966.40945  24282006.167    24282015.056
  23646095.342    -7947365.21049  -5979059.09145  23646094.849    23646105.377
 03  4  2  2 30 30.0000000  0  8G18G25G15G11G14G31G23G 3
  23592411.502     2889338.02549   2264915.85545  23592410.874    23592417.889
  22688067.777   -13082426.46449 -10178147.26946  22688067.557    22688076.121
  23035743.667    -1447153.47849  -1121357.38146  23035742.967    23035752.074
  23147261.694   -11480974.96349  -8927896.78546  23147261.375    23147268.896
  20492327.350   -23480676.84449 -18280759.24048  20492326.737    20492332.196
  23128459.272    -8614728.41549  -6693760.50246  23128458.591    23128467.544
  24293819.135    10467715.33049   8169335.56545  24293818.390    24293827.213
  23661758.455    -7865055.27549  -5914921.57645  23661757.976    23661768.489
 03  4  2  2 31  0.0000000  0  8G18G25G15G11G14G31G23G 3
  23605858.215     2960001.44049   2319978.26045  23605857.605    23605864.726
  22670897.331   -13172657.44949 -10248457.00046  22670897.085    22670905.541
  23055224.015    -1344783.24749  -1041588.41046  23055223.391    23055232.425
  23130489.836   -11569111.12849  -8996574.22546  23130489.505    23130497.012
  20499301.836   -23444025.79349 -18252199.96348  20499301.219    20499306.667
  23139785.872    -8555206.65449  -6647379.96046  23139785.200    23139794.132
  24305643.633    10529853.13149   8217754.63145  24305642.744    24305651.643
  23677443.730    -7782628.91949  -5850693.35845  23677443.287    23677453.880
 03  4  2  2 31 30.0000000  0  8G18G25G15G11G14G31G23G 3
  23619322.985     3030759.69949   2375114.56945  23619322.453    23619329.541
  22653768.427   -13262670.69149 -10318597.05846  22653768.053    22653776.410
  23074751.005    -1242168.37649   -961628.81246  23074750.423    23074759.456
  23113764.050   -11657006.12849  -9065063.75346  23113763.625    23113771.010
  20506350.320   -23406985.63949 -18223337.49548  20506349.680    20506355.147
  23151178.876    -8495336.10849  -6600727.65146  23151178.173    23151187.149
  24317480.167    10592055.06649   8266223.66945  24317479.379    24317488.349
  23693150.548    -7700089.30549  -5786376.89045  23693150.084    23693160.753
 03  4  2  2 32  0.0000000  0  8G18G25G15G11G14G31G23G 3
  23632805.904     3101612.81149   2430324.78945  23632805.389    23632812.488
  22636681.539   -13352462.96949 -10388564.93446  22636681.082    22636689.347
  23094324.256    -1139310.56549   -881479.90946  23094323.613    23094332.638
  23097084.478   -11744657.29149  -9133363.26046  23097084.101    23097091.462
  20513472.563   -23369557.85749 -18194172.97948  20513471.949    20513477.413
  23162637.707    -8435119.38449  -6553805.59046  23162637.100    23162646.023
  24329329.156    10654321.69649   8314743.11545  24329328.457    24329337.256
  23708878.354    -7617439.45049  -5721974.51145  23708877.895    23708888.625
 03  4  2  2 32 30.0000000  0  8G18G25G15G11G14G31G23G 3
  23646306.909     3172560.58949   2485608.77845  23646306.283    23646313.411
  22619636.981   -13442032.17649 -10458358.99446  22619636.512    22619644.749
  23113943.404    -1036211.97749   -801143.38546  23113942.680    23113951.725
  23080451.640   -11832062.83849  -9201471.37546  23080451.256    23080458.632
  20520668.087   -23331744.87049 -18164708.30648  20520667.488    20520672.958
  23174161.846    -8374559.58449  -6506616.18746  23174161.202    23174170.237
  24341190.338    10716652.77249   8363312.78645  24341189.515    24341198.423
  23724626.627    -7534682.49049  -5657488.69145  23724626.102    23724636.817
 03  4  2  2 33  0.0000000  0  8G18G25G15G11G14G31G23G 3
  23659825.944     3243603.29049   2540966.71945  23659825.284    23659832.255
  22602635.481   -13531375.06749 -10527976.70446  22602635.012    22602643.176
  23133608.084     -932873.89849   -720620.25146  23133607.357    23133616.353
  23063866.113   -11919219.73849  -9269385.73946  23063865.698    23063873.074
  20527936.606   -23293548.27149 -18134944.71648  20527936.046    20527941.509
  23185750.752    -8313659.06749  -6459161.29846  23185750.179    23185759.282
  24353063.978    10779049.28049   8411933.43745  24353063.175    24353072.114
  23740394.775    -7451820.80649  -5592921.26045  23740394.207    23740405.024
 03  4  2  2 33 30.0000000  0  8G18G25G15G11G14G31G23G 3
  23673362.905     3314741.29649   2596398.93045  23673362.402    23673369.338
  22585677.497   -13620488.95649 -10597415.97946  22585677.101    22585685.253
  23153317.894     -829298.38949   -639912.11146  23153317.122    23153326.151
  23047328.420   -12006125.71249  -9337104.56346  23047327.997    23047335.324
  20535277.916   -23254969.74449 -18104883.51948  20535277.313    20535282.762
  23197403.979    -8252420.63549  -6411443.09346  23197403.393    23197412.631
  24364950.132    10841511.53349   8460605.29545  24364949.396    24364958.232
  23756182.283    -7368857.65549  -5528274.77045  23756181.737    23756192.561
 03  4  2  2 34  0.0000000  0  8G18G25G15G11G14G31G23G 3
  23686918.210     3385974.20749   2651905.09145  23686917.568    23686924.587
  22568763.600   -13709371.28349 -10666674.80946  22568763.290    22568771.425
  23173072.480     -725487.68449   -559020.68846  23173071.696    23173080.743
  23030838.912   -12092778.79449  -9404626.34846  23030838.452    23030845.722
  20542691.348   -23216011.91149 -18074526.76248  20542690.761    20542696.173
  23209121.021    -8190847.52049  -6363464.11646  23209120.390    23209129.678
  24376848.874    10904039.50649   8509328.40045  24376848.169    24376856.882
  23771988.534    -7285796.23749  -5463551.70245  23771987.915    23771998.756
 03  4  2  2 34 30.0000000  0  8G18G25G15G11G14G31G23G 3
  23700491.384     3457301.84549   2707485.08845  23700490.792    23700497.765
  22551894.295   -13798019.49249 -10735751.22746  22551893.979    22551902.133
  23192871.352     -621443.85149   -477947.61446  23192870.530    23192879.647
  23014397.757   -12179176.87949  -9471949.38846  23014397.244    23014404.613
  20550176.571   -23176676.59249 -18043875.86448  20550175.969    20550181.416
  23220901.136    -8128942.70349  -6315226.64346  23220900.465    23220909.851
  24388760.138    10966633.44749   8558102.86945  24388759.383    24388768.111
  23787812.708    -7202639.40549  -5398754.28645  23787812.190    23787823.058
 03  4  2  2 35  0.0000000  0  8G18G25G15G11G14G31G23G 3
  23714082.613     3528724.83549   2763139.34145  23714082.112    23714089.183
  22535070.193   -13886430.22749 -10804642.59446  22535069.876    22535078.064
  23212714.361     -517168.25449   -396693.95746  23212713.553    23212722.731
  22998005.876   -12265316.41349  -9539070.98146  22998005.392    22998012.682
  20557733.344   -23136965.27349 -18012931.97948  20557732.758    20557738.224
  23232743.942    -8066708.42449  -6266732.45846  23232743.337    23232752.685
  24400684.107    11029294.35649   8606929.52445  24400683.379    24400692.138
  23803654.630    -7119389.66449  -5333884.47745  23803654.173    23803665.113
 03  4  2  2 35 30.0000000  0  8G18G25G15G11G14G31G23G 3
  23727692.173     3600242.89049   2818867.69945  23727691.581    23727698.537
  22518291.754   -13974601.25649 -10873347.17246  22518291.381    22518299.606
  23232600.951     -412663.21249   -315261.50146  23232600.266    23232609.427
  22981663.455   -12351196.32049  -9605990.25846  22981662.907    22981670.196
  20565361.234   -23096880.24849 -17981696.89548  20565360.657    20565366.158
  23244648.996    -8004147.86349  -6217984.03046  23244648.315    23244657.616
  24412620.968    11092022.36349   8655808.47945  24412620.105    24412628.958
  23819513.623    -7036050.34449  -5268944.87445  23819513.174    23819524.080
 03  4  2  2 36  0.0000000  0  8G18G25G15G11G14G31G23G 3
  23741319.741     3671856.03549   2874670.14345  23741319.136    23741326.110
  22501559.429   -14062529.55249 -10941862.61346  22501559.085    22501567.245
  23252531.090     -307930.36449   -233651.53446  23252530.388    23252539.551
  22965370.957   -12436813.56949  -9672704.86346  22965370.435    22965377.717
  20573059.923   -23056423.30949 -17950172.01048  20573059.347    20573064.855
  23256615.589    -7941263.61449  -6168983.37546  23256614.880    23256624.137
  24424570.469    11154817.84449   8704740.01545  24424569.632    24424578.564
  23835389.183    -6952623.87549  -5203937.37045  23835388.724    23835399.760
 03  4  2  2 36 30.0000000  0  8G18G25G15G11G14G31G23G 3
  23754965.457     3743564.32749   2930546.73545  23754964.731    23754971.744
  22484873.872   -14150212.26249 -11010186.68846  22484873.546    22484881.672
  23272504.161     -202971.64349   -151865.57046  23272503.411    23272512.593
  22949128.793   -12522165.99149  -9739213.10246  22949128.329    22949135.553
  20580829.009   -23015596.44949 -17918358.87148  20580828.459    20580833.934
  23268643.131    -7878058.79549  -6119732.91646  23268642.464    23268651.695
  24436532.885    11217681.01749   8753724.27645  24436532.041    24436540.970
  23851280.835    -6869113.52049  -5138864.49145  23851280.312    23851291.423
 03  4  2  2 37  0.0000000  0  8G18G25G15G11G14G31G23G 3
  23768629.242     3815368.01149   2986497.65745  23768628.530    23768635.526
  22468235.481   -14237646.68649 -11078317.29146  22468235.235    22468243.313
  23292519.807      -97789.02849    -69905.14346  23292519.045    23292528.222
  22932937.635   -12607250.69749  -9805512.73946  22932937.148    22932944.360
  20588668.115   -22974401.69049 -17886259.05348  20588667.562    20588673.006
  23280731.144    -7814535.99149  -6070234.67046  23280730.525    23280739.801
  24448508.345    11280612.42149   8802761.71645  24448507.660    24448516.457
  23867187.815    -6785522.26849  -5073728.57345  23867187.260    23867198.386
 03  4  2  2 37 30.0000000  0  8G18G25G15G11G14G31G23G 3
  23782311.019     3887266.81149   3042522.70445  23782310.339    23782317.392
  22451644.812   -14324830.81349 -11146252.85246  22451644.610    22451652.558
  23312577.660        7615.33049     12228.07246  23312576.849    23312586.082
  22916797.832   -12692065.68049  -9871602.20046  22916797.392    22916804.518
  20596576.884   -22932840.94649 -17853874.05148  20596576.317    20596581.733
  23292879.222    -7750698.20749  -6020490.99546  23292878.556    23292887.824
  24460496.885    11343612.32349   8851852.53345  24460496.141    24460504.964
  23883109.612    -6701852.80649  -5008531.71645  23883109.057    23883120.334
 03  4  2  2 38  0.0000000  0  8G18G25G15G11G14G31G23G 3
  23796011.139     3959261.02849   3098622.07545  23796010.385    23796017.476
  22435102.389   -14411761.32249 -11213990.78746  22435102.182    22435110.079
  23332677.340      113239.72549     94532.74646  23332676.544    23332685.838
  22900709.727   -12776608.60149  -9937479.65746  22900709.339    22900716.388
  20604554.927   -22890916.03949 -17821205.28548  20604554.374    20604559.780
  23305086.594    -7686548.28449  -5970504.09346  23305085.925    23305095.190
  24472498.603    11406681.27849   8900997.15145  24472497.812    24472506.644
  23899045.922    -6618107.63749  -4943275.88045  23899045.375    23899056.584
 03  4  2  2 38 30.0000000  0  8G18G25G15G11G14G31G23G 3
  23809729.242     4031350.73049   3154795.87445  23809728.498    23809735.643
  22418608.781   -14498435.65549 -11281529.10246  22418608.511    22418616.299
  23352818.413      219081.91149    177007.11846  23352817.681    23352826.868
  22884673.798   -12860877.27049 -10003143.42346  22884673.411    22884680.355
  20612601.830   -22848629.32649 -17788254.59448  20612601.263    20612606.690
  23317352.722    -7622089.30449  -5920276.37346  23317352.102    23317361.327
  24484513.313    11469819.36749   8950195.64345  24484512.436    24484521.390
  23914996.102    -6534290.07249  -4877963.62245  23914995.513    23915006.666
 03  4  2  2 39  0.0000000  0  8G18G25G15G11G14G31G23G 3
  23823465.755     4103536.10949   3211044.19945  23823464.978    23823472.000
  22402164.417   -14584850.78149 -11348865.43746  22402164.155    22402171.884
  23373000.703      325140.55949    259650.16446  23372999.979    23373009.167
  22868690.746   -12944868.55349 -10068591.05046  22868690.345    22868697.266
  20620717.300   -22805982.11749 -17755022.99648  20620716.715    20620722.149
  23329677.325    -7557323.46349  -5869809.52646  23329676.731    23329685.954
  24496541.314    11533027.38449   8999448.64145  24496540.437    24496549.483
  23930959.445    -6450402.91149  -4812597.14145  23930958.892    23930969.985
 03  4  2  2 39 30.0000000  0  8G18G25G15G11G14G31G23G 3
  23837220.167     4175816.32649   3267366.44445  23837219.416    23837226.480
  22385769.792   -14671005.01349 -11415998.47546  22385769.464    22385777.190
  23393223.694      431412.56849    342459.46746  23393222.889    23393232.122
  22852760.655   -13028580.90049 -10133821.32246  22852760.274    22852767.191
  20628900.841   -22762977.39149 -17721512.81248  20628900.250    20628905.697
  23342059.565    -7492254.76649  -5819106.69446  23342058.948    23342068.160
  24508582.637    11596304.76549   9048755.66645  24508581.752    24508590.680
  23946935.429    -6366449.74549  -4747179.22145  23946934.831    23946945.807
 03  4  2  2 40  0.0000000  0  8G18G25G15G11G14G31G23G 3
  23850992.829     4248192.40949   3323763.37945  23850992.201    23850999.284
  22369425.477   -14756894.42549 -11482925.16246  22369425.140    22369432.868
  23413487.061      537897.29549    425434.51245  23413486.310    23413495.540
  22836884.256   -13112011.43149 -10198831.99446  22836883.855    22836890.816
  20637152.161   -22719616.19249 -17687724.86048  20637151.597    20637157.029
  23354499.045    -7426885.10749  -5768169.33746  23354498.407    23354507.642
  24520637.398    11659652.84849   9098117.78245  24520636.507    24520645.556
  23962923.483    -6282432.45949  -4681711.32845  23962922.943    23962933.869
 03  4  2  2 40 30.0000000  0  8G18G25G15G11G14G31G23G 3
  23864783.801     4320663.71349   3380234.51345  23864783.084    23864790.067
  22353131.896   -14842517.05549 -11549643.97646  22353131.609    22353139.288
  23433790.363      644591.88549    508573.11345  23433789.695    23433798.831
  22821061.830   -13195158.42049 -10263621.74646  22821061.418    22821068.334
  20645470.776   -22675901.32649 -17653661.31748  20645470.258    20645475.669
  23366995.159    -7361218.18649  -5717000.35846  23366994.536    23367003.708
  24532705.541    11723071.28549   9147534.72745  24532704.662    24532713.768
  23978923.020    -6198354.64849  -4616196.30545  23978922.507    23978933.422
 03  4  2  2 41  0.0000000  0  8G18G25G15G11G14G31G23G 3
  23878592.813     4393230.69949   3436780.20645  23878592.205    23878599.074
  22336889.579   -14927870.27949 -11616152.85546  22336889.313    22336897.020
  23454133.318      751494.59449    591873.86445  23454132.642    23454141.801
  22805293.892   -13278018.92749 -10328188.25946  22805293.514    22805300.387
  20653856.454   -22631834.36749 -17619323.41048  20653855.913    20653861.346
  23379547.348    -7295256.55649  -5665601.73646  23379546.677    23379555.823
  24544787.172    11786560.92149   9197007.14745  24544786.298    24544795.332
  23994933.420    -6114219.13749  -4550636.29045  23994932.924    23994943.970
 03  4  2  2 41 30.0000000  0  8G18G25G15G11G14G31G23G 3
  23892420.119     4465893.75249   3493400.76145  23892419.412    23892426.362
  22320699.284   -15012950.54249 -11682449.04546  22320698.972    22320706.684
  23474515.618      858603.98549    675335.69745  23474514.902    23474523.977
  22789581.028   -13360590.26449 -10392529.45346  22789580.682    22789587.522
  20662308.834   -22587416.64149 -17584712.18548  20662308.302    20662313.750
  23392155.057    -7229002.62049  -5613975.33846  23392154.399    23392163.547
  24556882.523    11850122.58449   9246535.71145  24556881.704    24556890.841
  24010954.521    -6030028.02949  -4485032.97045  24010954.062    24010965.058
 03  4  2  2 42  0.0000000  0  8G18G25G15G11G14G31G23G 3
  23906265.541     4538652.15149   3550095.60245  23906264.857    23906271.812
  22304561.277   -15097756.09149 -11748531.18346  22304560.944    22304568.656
  23494936.750      965917.30049    758956.41145  23494935.994    23494945.068
  22773923.399   -13442871.00649 -10456644.21246  22773923.061    22773929.937
  20670827.392   -22542651.22549 -17549830.03848  20670826.844    20670832.307
  23404817.659    -7162460.04949  -5562124.02146  23404817.033    23404826.245
  24568991.597    11913755.80649   9296120.03445  24568990.821    24568999.834
  24026985.523    -5945785.16149  -4419389.31145  24026985.095    24026996.087
 03  4  2  2 42 30.0000000  0  8G18G25G15G11G14G31G23G 3
  23920129.239     4611505.76049   3606864.64645  23920128.530    23920135.462
  22288475.959   -15182284.41249 -11814397.28747  22288475.630    22288483.374
  23515396.229     1073432.30249    842734.28045  23515395.451    23515404.563
  22758321.557   -13524858.36849 -10520530.37546  22758321.282    22758328.133
  20679411.706   -22497540.28849 -17514678.65048  20679411.152    20679416.622
  23417534.632    -7095631.98849  -5510050.25946  23417534.009    23417543.242
  24581114.169    11977460.84549   9345760.31145  24581113.460    24581122.366
  24043025.748    -5861493.44349  -4353707.60345  24043025.390    24043036.217
 03  4  2  2 43  0.0000000  0  8G18G25G15G11G14G31G23G 3
  23934011.029     4684455.55549   3663708.62645  23934010.388    23934017.368
  22272444.031   -15266532.28249 -11880044.87147  22272443.708    22272451.420
  23535893.894     1181147.68449    926668.30845  23535892.980    23535902.205
  22742776.254   -13606549.67449 -10584185.85146  22742775.894    22742782.678
  20688061.559   -22452084.91649 -17479258.86848  20688061.003    20688066.484
  23430305.495    -7028520.76649  -5457755.84346  23430304.867    23430314.090
  24593250.496    12041238.46449   9395457.14845  24593249.837    24593258.893
  24059075.017    -5777155.00049  -4287989.47145  24059074.609    24059085.463
 03  4  2  2 43 30.0000000  0  8G18G25G15G11G14G31G23G 3
  23947911.162     4757501.30149   3720627.37245  23947910.487    23947917.521
  22256465.950   -15350497.11449 -11945471.90647  22256465.650    22256473.349
  23556429.221     1289061.27649   1010756.77145  23556428.224    23556437.509
  22727287.660   -13687942.49149 -10647608.74946  22727287.297    22727294.053
  20696776.553   -22406287.33949 -17443572.43448  20696776.000    20696781.474
  23443129.740    -6961129.41249  -5405243.14046  23443129.079    23443138.238
  24605401.003    12105089.02849   9445210.84445  24605400.255    24605409.389
  24075132.523    -5692772.72249  -4222237.17945  24075132.133    24075143.115
 03  4  2  2 44  0.0000000  0  8G18G25G15G11G14G31G23G 3
  23961829.606     4830642.91049   3777620.81145  23961828.932    23961835.961
  22240542.178   -15434176.65449 -12010676.62747  22240541.873    22240549.570
  23577001.742     1397170.96549   1094998.03245  23577000.852    23577010.272
  22711856.189   -13769034.85649 -10710797.52646  22711855.879    22711862.551
  20705556.200   -22360149.98949 -17407621.24248  20705555.632    20705561.118
  23456006.691    -6893460.95249  -5352514.52346  23456006.005    23456015.110
  24617565.327    12169012.83249   9495021.59845  24617564.584    24617573.711
  24091197.807    -5608349.99749  -4156453.37945  24091197.411    24091208.386
 03  4  2  2 44 30.0000000  0  8G18G25G15G11G14G31G23G 3
  23975766.188     4903880.09049   3834688.72545  23975765.513    23975772.590
  22224673.166   -15517568.61649 -12075657.27447  22224672.829    22224680.478
  23597611.249     1505474.46049   1179390.32245  23597610.335    23597619.789
  22696482.252   -13849825.01049 -10773750.80146  22696481.893    22696488.643
  20714400.086   -22313675.01949 -17371406.96648  20714399.510    20714405.028
  23468935.688    -6825518.72849  -5299572.58946  23468935.015    23468944.123
  24629743.517    12233009.66949   9544889.25845  24629742.743    24629751.834
  24107270.205    -5523889.81049  -4090640.40245  24107269.754    24107280.912
 03  4  2  2 45  0.0000000  0  8G18G25G15G11G14G31G23G 3
  23989721.051     4977213.39449   3891831.53145  23989720.392    23989727.460
  22208859.593   -15600669.48949 -12140411.08847  22208859.167    22208866.786
  23618257.437     1613970.53149   1263932.66145  23618256.541    23618265.944
  22681166.465   -13930309.50049 -10836465.91646  22681166.096    22681172.815
  20723307.974   -22266863.55849 -17334930.49248  20723307.403    20723312.931
  23481916.345    -6757305.00149  -5246419.09446  23481915.747    23481924.770
  24641935.933    12297080.78649   9594814.78345  24641935.313    24641944.223
  24123349.107    -5439394.33949  -4024799.92045  24123348.734    24123360.116
 03  4  2  2 45 30.0000000  0  8G18G25G15G11G14G31G23G 3
  24003694.294     5050642.84549   3949049.26145  24003693.598    24003700.652
  22193101.784   -15683476.74549 -12204936.12247  22193101.396    22193108.981
  23638939.753     1722656.99049   1348623.34845  23638938.863    23638948.404
  22665909.439   -14010485.70949 -10898940.80546  22665909.048    22665915.701
  20732279.522   -22219717.87849 -17298193.58448  20732278.932    20732284.428
  23494948.142    -6688822.72249  -5193056.33746  23494947.526    23494956.523
  24654142.336    12361226.45249   9644798.41845  24654141.822    24654150.580
  24139434.227    -5354866.33649  -3958934.10945  24139433.897    24139445.422
 03  4  2  2 46  0.0000000  0  8G18G25G15G11G14G31G23G 3
  24017685.632     5124167.88449   4006341.46745  24017684.903    24017691.998
  22177400.259   -15765988.34249 -12269230.76647  22177399.895    22177407.428
  23659657.893     1831531.06149   1433460.23645  23659656.930    23659666.555
  22650711.258   -14090352.35249 -10961174.48146  22650710.829    22650717.446
  20741314.177   -22172240.52449 -17261198.23548  20741313.607    20741319.059
  23508030.217    -6620075.66249  -5139487.26946  23508029.630    23508038.640
  24666363.067    12425446.28849   9694839.85245  24666362.553    24666371.294
  24155524.971    -5270309.33049  -3893045.65845  24155524.608    24155536.380
 03  4  2  2 46 30.0000000  0  8G18G25G15G11G14G31G23G 3
  24031695.270     5197789.20149   4063708.71545  24031694.663    24031701.756
  22161755.650   -15848200.71049 -12333292.25347  22161755.326    22161762.880
  23680411.462     1940591.47249   1518442.31045  23680410.433    23680420.132
  22635572.548   -14169906.18649 -11023164.41346  22635572.160    22635578.792
  20750411.716   -22124432.68549 -17223945.36448  20750411.139    20750416.569
  23521162.280    -6551065.98749  -5085713.55346  23521161.709    23521170.776
  24678597.976    12489741.34449   9744939.88545  24678597.272    24678606.239
  24171620.822    -5185725.62749  -3827136.43045  24171620.366    24171632.309
 03  4  2  2 47  0.0000000  0  8G18G25G15G11G14G31G23G 3
  24045723.162     5271506.87049   4121151.02345  24045722.673    24045729.689
  22146168.456   -15930111.85549 -12397119.01647  22146168.077    22146175.618
  23701199.970     2049836.11749   1603567.96245  23701199.111    23701208.657
  22620493.711   -14249145.17049 -11084909.00046  22620493.359    22620500.008
  20759571.652   -22076296.67549 -17186436.77548  20759571.078    20759576.562
  23534343.932    -6481796.68149  -5031737.55846  23534343.273    23534352.239
  24690847.391    12554112.04049   9795098.84945  24690846.692    24690855.617
  24187721.238    -5101117.83849  -3761208.42745  24187720.710    24187732.738
 03  4  2  2 47 30.0000000  0  8G18G25G15G11G14G31G23G 3
  24059769.517     5345320.31049   4178667.95545  24059768.948    24059775.922
  22130638.943   -16011719.45349 -12460709.25247  22130638.588    22130646.106
  23722023.297     2159262.31049   1688835.07245  23722022.356    23722031.852
  22605475.315   -14328067.38049 -11146406.75746  22605474.956    22605481.617
  20768793.487   -22027835.25249 -17148674.61748  20768792.934    20768798.450
  23547574.142    -6412271.39749  -4977562.07146  23547573.504    23547582.516
  24703111.072    12618558.03649   9845316.52645  24703110.562    24703119.256
  24203825.393    -5016489.61349  -3695264.50845  24203824.950    24203836.980
 03  4  2  2 48  0.0000000  0  8G18G25G15G11G14G31G23G 3
  24073834.039     5419229.73549   4236259.68045  24073833.502    24073840.494
  22115167.848   -16093020.52449 -12524060.63647  22115167.458    22115174.955
  23742880.610     2268868.13149   1774242.15445  23742879.686    23742889.117
  22590517.683   -14406670.01949 -11207655.49946  22590517.310    22590523.952
  20778076.964   -21979050.15749 -17110660.24548  20778076.437    20778081.936
  23560852.603    -6342493.00649  -4923189.37246  23560851.912    23560860.974
  24715389.211    12683079.84149   9895593.22245  24715388.692    24715397.395
  24219933.050    -4931843.64049  -3629306.75745  24219932.540    24219944.716
 03  4  2  2 48 30.0000000  0  8G18G25G15G11G14G31G23G 3
  24087916.899     5493235.67549   4293926.62545  24087916.412    24087923.365
  22099755.620   -16174011.86449 -12587170.67447  22099755.238    22099762.722
  23763771.800     2378652.03849   1859787.99445  23763770.964    23763780.366
  22575621.362   -14484950.59549 -11268653.28046  22575620.953    22575627.567
  20787421.834   -21929942.73949 -17072394.71148  20787421.268    20787426.745
  23574178.728    -6272463.82949  -4868621.27146  23574178.056    23574187.157
  24727681.915    12747678.34549   9945929.71045  24727681.402    24727690.266
  24236043.577    -4847182.07149  -3563336.84545  24236043.146    24236055.397
 03  4  2  2 49  0.0000000  0  8G18G25G15G11G14G31G23G 3
  24102018.031     5567337.88949   4351668.58045  24102017.521    24102024.595
  22084402.669   -16254691.62749 -12650037.92847  22084402.317    22084409.774
  23784696.445     2488611.91549   1945470.96945  23784695.638    23784705.024
  22560786.794   -14562906.90849 -11329398.37646  22560786.333    22560792.919
  20796827.573   -21880515.40149 -17033879.88648  20796826.996    20796832.430
  23587551.987    -6202187.18649  -4813860.33646  23587551.278    23587560.373
  24739989.138    12812353.76549   9996326.13645  24739988.812    24739997.554
  24252156.592    -4762507.86049  -3497357.09145  24252156.172    24252168.440
 03  4  2  2 49 30.0000000  0  8G18G25G15G11G14G31G23G 3
  24116137.577     5641536.59349   4409485.70445  24116137.026    24116144.056
  22069109.493   -16335057.41749 -12712660.52847  22069109.144    22069116.588
  23805654.186     2598745.66849   2031289.44545  23805653.419    23805662.844
  22546014.365   -14640536.37649 -11389888.80246  22546013.949    22546020.456
  20806293.785   -21830770.15949 -16995117.34748  20806293.213    20806298.612
  23600971.688    -6131665.97249  -4758908.82746  23600971.008    23600980.162
  24752311.186    12877106.47749  10046782.75445  24752310.712    24752319.622
  24268271.314    -4677823.95849  -3431369.79345  24268271.075    24268283.398
 03  4  2  2 50  0.0000000  0  8G18G25G15G11G14G31G23G 3
  24130275.441     5715831.36549   4467377.71745  24130274.858    24130282.005
  22053876.545   -16415106.78749 -12775036.56847  22053876.179    22053883.599
  23826644.730     2709050.79749   2117241.44045  23826643.708    23826653.247
  22531304.444   -14717837.33149 -11450123.23346  22531303.963    22531310.484
  20815820.026   -21780709.30849 -16956108.87648  20815819.458    20815824.875
  23614437.312    -6060903.64849  -4703769.44446  23614436.686    23614445.861
  24764647.833    12941936.26249  10097299.44745  24764647.331    24764656.244
  24284387.534    -4593133.49349  -3365377.38845  24284387.358    24284399.656
 03  4  2  2 50 30.0000000  0  8G18G25G15G11G14G31G23G 3
  24144431.649     5790222.32749   4525344.66345  24144431.058    24144438.267
  22038704.371   -16494836.66349 -12837163.65747  22038704.042    22038711.423
  23847667.231     2819525.46249   2203325.56545  23847666.294    23847675.914
  22516657.515   -14794807.02749 -11510099.54846  22516657.043    22516663.549
  20825405.961   -21730334.70249 -16916855.92148  20825405.382    20825410.811
  23627948.466    -5989902.99649  -4648444.36046  23627947.762    23627956.980
  24776999.406    13006843.65749  10147876.60945  24776998.801    24777007.706
  24300504.400    -4508439.25049  -3299382.04845  24300504.360    24300516.551
 03  4  2  2 51  0.0000000  0  7G18G25G15G11G14G31G 3
  24158605.622     5864707.46249   4583384.99745  24158605.176    24158612.361
  22023592.994   -16574246.83449 -12899041.62347  22023592.704    22023600.003
  23868721.475     2930165.78049   2289538.73645  23868720.479    23868729.988
  22502073.679   -14871445.13549 -11569817.47046  22502073.239    22502079.751
  20835050.834   -21679650.47249 -16877361.70148  20835050.265    20835055.712
  23641503.902    -5918669.00249  -4592937.43045  23641503.139    23641512.424
  24316621.430    -4423745.73649  -3233387.26545  24316621.144    24316633.346
 03  4  2  2 51 30.0000000  0  7G18G25G15G11G14G31G 3
  24172798.089     5939289.08749   4641500.53245  24172797.620    24172804.695
  22008543.449   -16653332.66349 -12960666.85747  22008543.143    22008550.400
  23889807.106     3040971.72649   2375880.99945  23889806.231    23889815.826
  22487553.799   -14947747.24949 -11629273.58346  22487553.391    22487559.897
  20844754.663   -21628656.32749 -16837625.99048  20844754.107    20844759.554
  23655103.488    -5847202.55949  -4537249.37245  23655102.793    23655112.155
  24332738.015    -4339053.74049  -3167393.66645  24332737.606    24332749.862
 03  4  2  2 52  0.0000000  0  7G18G25G15G11G14G31G 3
  24187009.115     6013968.18149   4699691.99045  24187008.622    24187015.763
  21993556.268   -16732090.36249 -13022036.40147  21993555.958    21993563.126
  23910924.001     3151942.14949   2462351.41845  23910923.094    23910932.736
  22473098.499   -15023710.07349 -11688465.31646  22473098.078    22473104.583
  20854517.256   -21577353.53049 -16797649.77248  20854516.669    20854522.099
  23668747.062    -5775505.65449  -4481381.75045  23668746.407    23668755.728
  24348853.885    -4254365.17449  -3101402.73845  24348853.498    24348865.731
 03  4  2  2 52 30.0000000  0  7G18G25G15G11G14G31G 3
  24201238.462     6088744.02849   4757958.87145  24201237.951    24201245.149
  21978631.850   -16810518.29449 -13083148.99247  21978631.560    21978638.653
  23932071.752     3263074.15649   2548947.74445  23932070.732    23932080.549
  22458708.120   -15099331.93249 -11747391.36346  22458707.680    22458714.177
  20864338.106   -21525744.54349 -16757434.96448  20864337.530    20864342.958
  23682433.796    -5703581.89349  -4425337.34945  23682433.082    23682442.507
  24364968.516    -4169683.31749  -3035417.04545  24364968.253    24364980.150
 03  4  2  2 53  0.0000000  0  7G18G25G15G11G14G31G 3
  24215486.287     6163616.50349   4816301.01945  24215485.698    24215492.916
  21963770.594   -16888614.37549 -13144002.99747  21963770.278    21963777.352
  23953249.841     3374365.53749   2635668.24845  23953248.851    23953258.505
  22444382.955   -15174610.86749 -11806050.19846  22444382.497    22444388.877
  20874216.811   -21473831.73749 -16716983.41548  20874216.221    20874221.629
  23696163.014    -5631434.69149  -4369118.84045  23696162.318    23696171.824
  24381081.358    -4085011.19149  -2969438.94845  24381081.088    24381092.717
 03  4  2  2 53 30.0000000  0  7G18G25G15G11G14G31G 3
  24229752.408     6238585.86849   4874718.68245  24229751.902    24229759.180
  21948973.026   -16966375.57649 -13204596.05547  21948972.743    21948979.806
  23974457.982     3485814.63949   2722511.65245  23974457.018    23974466.651
  22430123.615   -15249543.84449 -11864439.45646  22430123.189    22430129.520
  20884152.963   -21421616.79349 -16676296.44048  20884152.382    20884157.808
  23709934.328    -5559066.48749  -4312728.11645  23709933.664    23709943.193
  24397191.842    -4000351.04849  -2903470.16245  24397191.475    24397203.225
 03  4  2  2 54  0.0000000  0  7G18G25G15G11G14G31G 3
  24244037.100     6313651.85449   4933211.62745  24244036.533    24244043.734
  21934239.549   -17043799.91649 -13264926.62847  21934239.262    21934246.352
  23995695.606     3597418.70849   2809475.80545  23995694.635    23995704.381
  22415930.376   -15324129.44049 -11922558.03046  22415929.984    22415936.317
  20894146.109   -21369102.33549 -16635376.07748  20894145.544    20894150.951
  23723746.885    -5486481.07449  -4256168.13345  23723746.302    23723755.780
  24413299.303    -3915706.31649  -2837513.39945  24413299.055    24413310.732
 03  4  2  2 54 30.0000000  0  7G18G25G15G11G14G31G 3
  24258339.998     6388814.14749   4991779.60645  24258339.311    24258346.607
  21919570.635   -17120885.30749 -13324993.08047  21919570.337    21919577.415
  24016962.191     3709175.36149   2896558.85445  24016961.273    24016971.104
  22401803.749   -15398365.24849 -11980404.04846  22401803.325    22401809.595
  20904195.873   -21316290.56049 -16594224.03448  20904195.297    20904200.711
  23737600.256    -5413681.51049  -4199441.28445  23737599.672    23737609.077
  24429403.189    -3831079.93349  -2771570.93645  24429402.846    24429414.772
 03  4  2  2 55  0.0000000  0  7G18G25G15G11G14G31G 3
  24272661.454     6464073.10649   5050422.92045  24272660.807    24272667.948
  21904966.768   -17197628.62949 -13384792.99247  21904966.467    21904973.536
  24038257.621     3821083.29149   2983759.78645  24038256.711    24038266.524
  22387744.076   -15472248.78349 -12037975.56146  22387743.648    22387749.937
  20914301.851   -21263183.03149 -16552841.53748  20914301.290    20914306.697
  23751493.799    -5340670.45549  -4142549.62845  23751493.243    23751502.791
  24445503.232    -3746474.31149  -2705644.65545  24445502.750    24445514.853
 03  4  2  2 55 30.0000000  0  7G18G25G15G11G14G31G 3
  24287001.134     6539428.61449   5109141.46945  24287000.330    24287007.788
  21890428.458   -17274027.41449 -13444324.43047  21890428.192    21890435.228
  24059581.440     3933139.98349   3071076.63545  24059580.479    24059590.249
  22373751.879   -15545777.99549 -12095270.98046  22373751.454    22373757.716
  20924463.705   -21209782.16649 -16511230.46848  20924463.136    20924468.526
  23765427.029    -5267451.25649  -4085495.78445  23765426.478    23765436.104
  24461598.789    -3661892.51749  -2639736.95345  24461598.317    24461610.414
 03  4  2  2 56  0.0000000  0  7G18G25G15G11G14G31G 3
  24301359.204     6614880.60149   5167935.19145  24301358.489    24301365.778
  21875956.136   -17350079.54649 -13503585.75347  21875955.891    21875962.912
  24080933.169     4045343.42449   3158507.83445  24080932.168    24080941.875
  22359827.544   -15618950.63049 -12152288.55646  22359827.154    22359833.355
  20934681.070   -21156089.63149 -16469392.12248  20934680.472    20934685.870
  23779399.272    -5194026.77249  -4028281.97745  23779398.715    23779408.418
  24477689.310    -3577337.04749  -2573849.76245  24477688.808    24477701.014
 03  4  2  2 56 30.0000000  0  7G18G25G15G11G14G31G 3
  24315735.652     6690429.19849   5226804.18945  24315734.848    24315742.244
  21861550.193   -17425782.83849 -13562575.24647  21861549.974    21861556.987
  24102312.238     4157691.27649   3246051.55845  24102311.327    24102321.017
  22345971.570   -15691764.20749 -12209026.34547  22345971.126    22345977.363
  20944953.475   -21102107.72849 -16427328.29248  20944952.901    20944958.277
  23793409.997    -5120400.11849  -3970910.62945  23793409.436    23793419.179
  24493774.323    -3492810.60649  -2507985.16745  24493773.813    24493786.145
 03  4  2  2 57  0.0000000  0  7G18G25G15G11G14G31G 3
  24330130.604     6766074.65549   5285748.68345  24330129.862    24330137.027
  21847211.275   -17501134.08649 -13621290.42347  21847211.031    21847218.056
  24123718.443     4270181.75649   3333706.41845  24123717.657    24123727.275
  22332184.316   -15764216.07849 -12265482.28546  22332183.881    22332190.122
  20955280.689   -21047838.00249 -16385040.18748  20955280.101    20955285.483
  23807458.764    -5046573.92349  -3913383.80445  23807458.240    23807467.947
  24509853.482    -3408315.70149  -2442145.18945  24509852.981    24509865.237
 03  4  2  2 57 30.0000000  0  7G18G25G15G11G14G31G 3
  24344543.928     6841817.03849   5344768.69745  24344543.143    24344550.357
  21832939.757   -17576131.11249 -13679729.58447  21832939.550    21832946.551
  24145151.506     4382812.65749   3421470.69645  24145150.680    24145160.279
  22318466.368   -15836304.12749 -12321654.73146  22318465.968    22318472.193
  20965662.202   -20993282.71249 -16342529.56648  20965661.615    20965667.019
  23821544.929    -4972551.38349  -3855703.97645  23821544.308    23821554.100
  24525925.999    -3323855.15149  -2376331.94945  24525925.424    24525937.861
 03  4  2  2 58  0.0000000  0  7G18G25G15G11G14G31G 3
  24358975.715     6917656.17749   5403864.09545  24358974.992    24358982.088
  21818736.121   -17650771.63049 -13737890.94647  21818735.854    21818742.877
  24166610.612     4495581.85349   3509342.73645  24166609.914    24166619.586
  22304818.203   -15908025.91949 -12377541.78446  22304817.746    22304823.944
  20976097.720   -20938443.70749 -16299797.86448  20976097.120    20976102.520
  23835667.821    -4898335.45849  -3797873.45845  23835667.191    23835676.917
  24541991.339    -3239431.30049  -2310547.29745  24541990.913    24542003.314
 03  4  2  2 58 30.0000000  0  7G18G25G15G11G14G31G 3
  24373425.747     6993591.74349   5463034.64445  24373424.919    24373432.173
  21804600.649   -17725053.65549 -13795772.96447  21804600.369    21804607.407
  24188095.837     4608486.94649   3597320.67445  24188095.160    24188104.788
  22291239.917   -15979379.84949 -12433142.18846  22291239.456    22291245.628
  20986586.751   -20883323.44049 -16256846.99548  20986586.149    20986591.519
  23849826.915    -4823929.60149  -3739894.94945  23849826.208    23849835.922
  24558049.226    -3155047.38349  -2244793.79345  24558048.717    24558061.162
 03  4  2  2 59  0.0000000  0  7G18G25G15G11G14G31G 3
  24387894.195     7069623.69949   5522280.32145  24387893.373    24387900.713
  21790533.939   -17798974.23149 -13853373.33547  21790533.688    21790540.735
  24209606.699     4721525.90849   3685402.91145  24209605.809    24209615.369
  22277732.167   -16050363.38149 -12488453.97446  22277731.737    22277737.854
  20997128.886   -20827924.11149 -16213678.67648  20997128.281    20997133.637
  23864021.496    -4749336.86349  -3681770.82045  23864020.882    23864030.644
  24574098.989    -3070706.33049  -2179073.68045  24574098.435    24574110.938
 03  4  2  2 59 30.0000000  0  7G18G25G15G11G14G31G 3
  24402380.912     7145752.81749   5581601.68945  24402380.304    24402387.560
  21776536.568   -17872530.55849 -13910689.88047  21776536.308    21776543.329
  24231142.438     4834697.26249   3773588.31945  24231141.579    24231151.256
  22264295.462   -16120973.72049 -12543474.96347  22264295.020    22264301.068
  21007723.893   -20772246.85849 -16170293.79948  21007723.306    21007728.635
  23878251.131    -4674559.52249  -3623502.83345  23878250.571    23878260.402
  24590140.278    -2986410.00449  -2113388.44345  24590139.700    24590152.128
 03  4  2  3  0  0.0000000  0  7G18G25G15G11G14G31G 3
  24416886.325     7221978.88049   5640998.58245  24416885.771    24416892.972
  21762608.880   -17945720.84049 -13967721.19347  21762608.600    21762615.608
  24252702.957     4947998.50049   3861874.94045  24252702.134    24252711.794
  22250930.212   -16191208.84749 -12598203.58447  22250929.732    22250935.702
  21018371.322   -20716293.97049 -16126694.13548  21018370.775    21018376.105
  23892515.406    -4599600.89149  -3565093.60345  23892514.776    23892524.593
  24606172.308    -2902161.25049  -2047740.25845  24606171.771    24606184.221
 03  4  2  3  0 30.0000000  0  7G18G25G15G11G14G31G 3
  24431410.006     7298301.18749   5700470.48645  24431409.346    24431416.618
  21748751.156   -18018543.39049 -14024465.96147  21748750.883    21748757.893
  24274287.518     5061427.03149   3950260.74045  24274286.871    24274296.555
  22237636.553   -16261067.07949 -12652638.50447  22237636.095    22237642.108
  21029070.804   -20660068.01949 -16082881.69548  21029070.248    21029075.570
  23906813.513    -4524464.63249  -3506545.95545  23906812.807    23906822.653
  24622194.686    -2817963.56649  -1982131.86945  24622194.169    24622206.708
 03  4  2  3  1  0.0000000  0  7G18G25G15G11G14G31G 3
  24445952.012     7374720.47849   5760017.97045  24445951.489    24445958.707
  21734964.013   -18090995.08049 -14080921.75547  21734963.728    21734970.697
  24295896.304     5174981.39249   4038744.59545  24295895.711    24295905.404
  22224415.136   -16330545.69249 -12706777.63447  22224414.708    22224420.693
  21039821.959   -20603570.33849 -16038857.51548  21039821.415    21039826.724
  23921144.869    -4449153.14949  -3447861.74545  23921144.127    23921154.026
  24638207.057    -2733818.95149  -1916564.83045  24638206.434    24638219.058
 03  4  2  3  1 30.0000000  0  7G18G25G15G11G14G31G 3
  24460512.631     7451236.78149   5819641.04045  24460511.990    24460519.347
  21721247.963   -18163073.19949 -14137086.45347  21721247.653    21721254.587
  24317528.547     5288659.40549   4127324.80245  24317527.946    24317537.564
  22211266.464   -16399642.31049 -12760619.10347  22211266.041    22211271.921
  21050624.408   -20546802.93649 -15994623.16548  21050623.846    21050629.176
  23935508.917    -4373669.38249  -3389043.32845  23935508.232    23935518.169
  24654208.808    -2649729.94149  -1851041.13945  24654208.117    24654220.805
 03  4  2  3  2  0.0000000  0  7G18G25G15G11G14G31G 3
  24475091.614     7527849.51549   5879339.25545  24475091.007    24475098.205
  21707603.317   -18234776.17349 -14192958.82847  21707602.999    21707609.893
  24339183.879     5402458.69049   4215999.50945  24339183.164    24339192.975
  22198190.859   -16468354.97249 -12814161.37747  22198190.412    22198196.299
  21061477.747   -20489768.19849 -15950180.50247  21061477.173    21061482.506
  23949905.176    -4298016.81949  -3330093.37145  23949904.426    23949914.354
  24670199.277    -2565699.55549  -1785563.12145  24670198.697    24670211.544
 03  4  2  3  2 30.0000000  0  7G18G25G15G11G14G31G 3
  24489689.058     7604559.09749   5939112.91445  24489688.232    24489695.688
  21694030.553   -18306101.39349 -14248536.85147  21694030.215    21694037.076
  24360861.992     5516377.15749   4304767.08745  24360861.197    24360870.967
  22185188.761   -16536681.53049 -12867402.80147  22185188.324    22185194.159
  21072381.546   -20432468.11649 -15905531.07747  21072381.004    21072386.335
  23964332.928    -4222198.28849  -3271014.08945  23964332.209    23964342.159
  24686178.117    -2481730.19949  -1720132.67745  24686177.675    24686190.629
 03  4  2  3  3  0.0000000  0  7G18G25G15G11G14G31G 3
  24504304.695     7681365.23749   5998961.84545  24504304.053    24504311.496
  21680530.090   -18377046.52949 -14303818.70547  21680529.762    21680536.587
  24382562.405     5630412.42949   4393625.70245  24382561.584    24382571.254
  22172260.441   -16604619.74549 -12920341.61847  22172259.984    22172265.825
  21083335.456   -20374904.83249 -15860676.56047  21083334.891    21083340.223
  23978791.848    -4146216.96849  -3211807.95745  23978790.919    23978800.965
  24702144.884    -2397824.55049  -1654751.85645  24702144.431    24702157.722
 03  4  2  3  3 30.0000000  0  7G18G25G15G11G14G31G 3
  24518938.845     7758268.11149   6058886.12045  24518938.322    24518945.677
  21667102.388   -18447609.20049 -14358802.53747  21667102.087    21667108.887
  24404284.626     5744562.80549   4482573.99545  24404283.716    24404293.412
  22159406.521   -16672167.10949 -12972975.87647  22159406.092    22159412.012
  21094339.203   -20317079.85349 -15815618.13247  21094338.613    21094343.943
  23993281.034    -4070075.60249  -3152477.11845  23993280.187    23993290.254
  24718099.106    -2313985.06649  -1589422.62345  24718098.796    24718112.015
 03  4  2  3  4  0.0000000  0  7G18G25G15G11G14G31G 3
  24533591.461     7835267.54549   6118885.64845  24533590.848    24533598.244
  21653747.894   -18517787.41349 -14413486.78847  21653747.583    21653754.340
  24426028.174     5858825.41349   4571609.74445  24426027.113    24426036.869
  22146627.369   -16739321.78949 -13025304.14647  22146626.919    22146632.861
  21105392.284   -20258995.63649 -15770357.68947  21105391.691    21105396.999
  24007800.036    -3993777.68449  -3093024.28845  24007799.306    24007809.400
  24734040.131    -2230214.93649  -1524147.40245  24734039.771    24734053.032
 03  4  2  3  4 30.0000000  0  7G18G25G15G11G14G31G 3
  24548262.508     7912363.80349   6178960.61345  24548262.032    24548269.157
  21640467.146   -18587578.43849 -14467869.33247  21640466.787    21640473.507
  24447792.685     5973198.79749   4660731.80245  24447791.716    24447801.443
  22133923.402   -16806081.02549 -13077324.28447  22133922.974    22133928.953
  21116494.386   -20200653.58149 -15724896.33947  21116493.796    21116499.096
  24022348.419    -3917325.61649  -3033451.34845  24022347.734    24022357.794
  24749967.725    -2146516.05749  -1458927.71545  24749967.213    24749980.661
 03  4  2  3  5  0.0000000  0  7G18G25G15G11G14G31G 3
  24562951.872     7989556.82149   6239110.99145  24562951.313    24562958.462
  21627260.355   -18656980.35549 -14521948.67747  21627260.000    21627266.710
  24469577.997     6087680.79049   4749938.50045  24469576.964    24469586.660
  22121295.069   -16872443.15349 -13129034.98147  22121294.627    22121300.614
  21127645.089   -20142056.13449 -15679235.98447  21127644.506    21127649.834
  24036925.563    -3840722.76049  -2973760.91145  24036924.913    24036934.957
  24765881.269    -2062891.36749  -1393765.82445  24765880.646    24765894.137
 03  4  2  3  5 30.0000000  0  7G18G25G15G11G14G31G 3
  24577659.609     8066846.39849   6299336.58045  24577659.131    24577666.105
  21614127.949   -18725991.04249 -14575723.17347  21614127.641    21614134.352
  24491383.446     6202268.99149   4839227.95445  24491382.479    24491392.212
  22108742.696   -16938406.00149 -13180434.55647  22108742.276    22108748.275
  21138844.047   -20083205.13749 -15633378.06047  21138843.473    21138848.803
  24051530.710    -3763972.15249  -2913955.33745  24051530.082    24051540.282
  24781780.128    -1979343.57749  -1328663.87845  24781779.600    24781792.946
 03  4  2  3  6  0.0000000  0  6G18G25G15G11G14G31
  24592386.454     8144237.03649   6359640.94845  24592386.125    24592393.058
  21601071.324   -18794603.79549 -14629187.58947  21601071.010    21601077.706
  24513209.696     6316965.88449   4928602.09345  24513208.629    24513218.397
  22096267.582   -17003962.88949 -13231517.79347  22096267.163    22096273.150
  21150091.728   -20024098.22749 -15587320.72647  21150091.117    21150096.450
  24066164.343    -3687072.30949  -2854033.48445  24066163.732    24066174.009
 03  4  2  3  6 30.0000000  0  5G25G15G11G14G31
  21588089.146   -18862825.42549 -14682347.23747  21588088.807    21588095.471
  24535054.316     6431759.77049   5018051.82045  24535053.306    24535063.158
  22083868.377   -17069120.77149 -13282290.11847  22083867.987    22083873.996
  21161385.941   -19964746.48249 -15541072.60847  21161385.378    21161390.732
  24080824.112    -3610035.66149  -2794005.02645  24080823.533    24080833.585
 03  4  2  3  7  0.0000000  0  5G25G15G11G14G31
  21575180.738   -18930659.46549 -14735204.86047  21575180.374    21575186.991
  24556915.810     6546642.96649   5107571.12645  24556914.871    24556924.844
  22071544.410   -17133883.24249 -13332754.33347  22071544.038    22071550.041
  21172725.325   -19905157.81049 -15494639.87747  21172724.718    21172730.076
  24095508.221    -3532870.81749  -2733876.67845  24095507.547    24095517.670
 03  4  2  3  7 30.0000000  0  5G25G15G11G14G31
  21562349.452   -18998088.09549 -14787746.58047  21562349.106    21562355.681
  24578796.994     6661629.09949   5197170.63645  24578796.093    24578806.061
  22059299.136   -17198232.48049 -13382896.54247  22059298.745    22059304.718
  21184112.404   -19845318.25949 -15448011.65647  21184111.795    21184117.166
  24110219.098    -3455564.98949  -2673638.45145  24110218.423    24110228.592
 03  4  2  3  8  0.0000000  0  5G25G15G11G14G31
  21549595.223   -19065111.46049 -14839972.52047  21549594.916    21549601.444
  24600696.852     6776713.68349   5286846.86645  24600695.904    24600706.074
  22047132.509   -17262168.45949 -13432716.73647  22047132.118    22047138.047
  21195546.435   -19785231.93349 -15401191.14247  21195545.849    21195551.215
  24124955.854    -3378123.48449  -2613294.52445  24124955.201    24124965.250
 03  4  2  3  8 30.0000000  0  5G25G15G11G14G31
  21536918.368   -19131728.50449 -14891881.83647  21536918.052    21536924.555
  24622614.621     6891893.22949   5376597.09645  24622613.720    24622624.106
  22035044.663   -17325690.39149 -13482214.28947  22035044.226    22035050.134
  21207026.768   -19724902.24449 -15354180.99347  21207026.181    21207031.563
  24139717.605    -3300550.57349  -2552848.19745  24139716.912    24139727.022
 03  4  2  3  9  0.0000000  0  5G25G15G11G14G31
  21524319.158   -19197937.65749 -14943473.31547  21524318.824    21524325.294
  24644550.253     7007165.48549   5466419.55045  24644549.263    24644559.790
  22023035.961   -17388796.35649 -13531387.72347  22023035.550    22023041.379
  21218553.041   -19664331.34149 -15306982.88647  21218552.482    21218557.846
  24154503.691    -3222849.65649  -2492302.12345  24154502.916    24154513.169
 03  4  2  3  9 30.0000000  0  5G25G15G11G14G31
  21511797.680   -19263738.09549 -14994746.31947  21511797.353    21511803.800
  24666503.054     7122526.71549   5556311.33445  24666501.826    24666512.395
  22011106.523   -17451486.01749 -13580236.75647  22011106.078    22011111.842
  21230124.536   -19603522.64449 -15259599.48647  21230123.981    21230129.343
  24169313.168    -3145025.23549  -2431659.82045  24169312.473    24169322.734
 03  4  2  3 10  0.0000000  0  4G25G11G14G31
  21499353.570   -19329132.16449 -15045702.66947  21499353.218    21499359.613
  21999255.797   -17513762.07349 -13628763.50747  21999255.363    21999261.069
  21241739.936   -19542483.30349 -15212036.36647  21241739.350    21241744.713
  24184144.705    -3067085.27849  -2370927.46545  24184143.996    24184154.263
 03  4  2  3 10 30.0000000  0  4G25G11G14G31
  21486986.070   -19394123.16649 -15096344.93947  21486985.769    21486992.145
  21987483.211   -17575627.26449 -13676970.09347  21987482.752    21987488.452
  21253398.001   -19481219.93649 -15164298.68247  21253397.389    21253402.765
  24198996.701    -2989037.62749  -2310111.21845  24198995.973    24199006.279
 03  4  2  3 11  0.0000000  0  4G25G11G14G31
  21474699.324   -19458690.17249 -15146656.82647  21474699.025    21474705.412
  21975792.858   -17637060.40949 -13724840.02347  21975792.406    21975798.057
  21265101.874   -19419715.54149 -15116373.18247  21265101.307    21265106.670
  24213872.195    -2910866.37949  -2249198.65545  24213871.506    24213881.984
 03  4  2  3 11 30.0000000  0  4G25G11G14G31
  21462492.852   -19522835.18049 -15196639.88647  21462492.576    21462498.964
  21964184.284   -17698063.66949 -13772374.98547  21964183.832    21964189.450
  21276850.523   -19357976.22249 -15068264.62447  21276849.923    21276855.281
  24228769.912    -2832578.63549  -2188195.33045  24228769.143    24228779.730
 03  4  2  3 12  0.0000000  0  4G25G11G14G31
  21450366.612   -19586558.59849 -15246294.43747  21450366.341    21450372.753
  21952657.350   -17758637.96549 -13819575.68547  21952656.892    21952662.500
  21288642.900   -19296006.74449 -15019976.72247  21288642.329    21288647.655
  24243688.649    -2754180.31449  -2127105.82845  24243688.004    24243698.470
 03  4  2  3 12 30.0000000  0  4G25G11G14G31
  21438320.983   -19649858.50449 -15295618.97647  21438320.690    21438327.121
  21941212.453   -17818781.07749 -13866440.39047  21941211.985    21941217.630
  21300478.746   -19233808.89549 -14971510.86747  21300478.186    21300483.514
  24258627.856    -2675674.27649  -2065932.39245  24258627.292    24258637.839
 03  4  2  3 13  0.0000000  0  4G25G11G14G31
  21426355.908   -19712735.05449 -15344613.62647  21426355.603    21426362.057
  21929849.550   -17878493.22149 -13912969.28947  21929849.092    21929854.734
  21312357.318   -19171386.93749 -14922870.38347  21312356.702    21312362.043
  24273586.751    -2597065.80849  -2004679.14445  24273586.066    24273596.619
 03  4  2  3 13 30.0000000  0  4G25G11G14G31
  21414471.986   -19775185.23749 -15393276.04547  21414471.680    21414478.113
  21918569.205   -17937771.42949 -13959160.04547  21918568.791    21918574.437
  21324278.213   -19108741.81749 -14874056.00247  21324277.650    21324282.950
  24288564.555    -2518356.87349  -1943347.62745  24288563.987    24288574.539
 03  4  2  3 14  0.0000000  0  4G25G11G14G31
  21402669.429   -19837208.01149 -15441605.41447  21402669.111    21402675.526
  21907371.799   -17996614.30149 -14005011.58647  21907371.332    21907376.964
  21336241.225   -19045875.94949 -14825069.61347  21336240.628    21336245.946
  24303560.792    -2439551.17349  -1881940.68945  24303560.285    24303570.924
 03  4  2  3 14 30.0000000  0  4G25G11G14G31
  21390948.526   -19898801.31549 -15489600.13547  21390948.225    21390954.649
  21896257.531   -18055019.92349 -14050522.40947  21896257.087    21896262.720
  21348245.794   -18982791.28949 -14775912.73647  21348245.227    21348250.589
  24318574.985    -2360651.66549  -1820460.65445  24318574.540    24318585.161
 03  4  2  3 15  0.0000000  0  4G25G11G14G31
  21379309.698   -19959963.56849 -15537258.97347  21379309.422    21379315.826
  21885226.769   -18112986.52149 -14095691.13047  21885226.343    21885232.008
  21360291.511   -18919490.47749 -14726587.42947  21360290.958    21360296.321
  24333606.355    -2281661.93349  -1758910.32545  24333605.906    24333616.480
 03  4  2  3 15 30.0000000  0  4G25G11G14G31
  21367753.327   -20020692.37549 -15584580.06347  21367753.062    21367759.438
  21874279.964   -18170512.26549 -14140516.33447  21874279.532    21874285.186
  21372378.082   -18855974.97849 -14677094.83147  21372377.561    21372382.939
  24348654.387    -2202584.78649  -1697291.87345  24348653.857    24348664.503
 03  4  2  3 16  0.0000000  0  4G25G11G14G31
  21356279.795   -20080986.10549 -15631562.12847  21356279.525    21356285.860
  21863417.504   -18227594.87149 -14184996.23147  21863417.062    21863422.661
  21384505.130   -18792246.78449 -14627436.49747  21384504.625    21384510.002
  24363718.557    -2123423.13749  -1635607.56445  24363717.969    24363728.675
 03  4  2  3 16 30.0000000  0  4G25G11G14G31
  21344889.388   -20140842.80449 -15678203.65647  21344889.121    21344895.425
  21852639.690   -18284232.49349 -14229129.38847  21852639.273    21852644.823
  21396672.400   -18728307.68649 -14577613.82347  21396671.812    21396677.164
  24378798.120    -2044180.03349  -1573859.80545  24378797.549    24378808.282
 03  4  2  3 17  0.0000000  0  4G25G11G14G31
  21333582.627   -20200260.05449 -15724502.75447  21333582.348    21333588.648
  21841946.857   -18340423.31949 -14272914.39747  21841946.445    21841951.978
  21408879.376   -18664159.53349 -14527628.24747  21408878.822    21408884.137
  24393892.627    -1964858.17849  -1512050.66045  24393892.089    24393902.808
 03  4  2  3 17 30.0000000  0  4G25G11G14G31
  21322359.911   -20259235.63049 -15770457.69147  21322359.618    21322365.930
  21831339.612   -18396164.75449 -14316349.22547  21831339.179    21831344.677
  21421125.892   -18599803.91449 -14477481.01547  21421125.284    21421130.597
  24409001.679    -1885460.26949  -1450182.25745  24409001.180    24409011.890
 03  4  2  3 18  0.0000000  0  4G25G11G14G31
  21311221.539   -20317767.82449 -15816067.13947  21311221.269    21311227.577
  21820818.338   -18451454.42949 -14359432.04347  21820817.902    21820823.347
  21433411.532   -18535242.21049 -14427173.19047  21433410.958    21433416.291
  24424124.588    -1805988.88549  -1388256.59345  24424124.051    24424134.876
 03  4  2  3 18 30.0000000  0  4G25G11G14G31
  21300167.827   -20375855.43749 -15861330.15947  21300167.511    21300173.858
  21810383.133   -18506291.48449 -14402162.16447  21810382.686    21810388.165
  21445735.918   -18470477.07549 -14376706.85347  21445735.346    21445740.706
  24439260.927    -1726447.92049  -1326276.74745  24439260.322    24439271.051
 03  4  2  3 19  0.0000000  0  4G25G11G14G31
  21289199.011   -20433496.32149 -15906245.07947  21289198.715    21289205.075
  21800034.504   -18560673.56449 -14444537.75947  21800034.070    21800039.507
  21458098.630   -18405510.42549 -14326083.48747  21458098.078    21458103.466
  24454409.774    -1646840.22549  -1264244.86645  24454409.255    24454420.097
 03  4  2  3 19 30.0000000  0  4G25G11G14G31
  21278315.767   -20490688.14749 -15950810.08147  21278315.439    21278321.784
  21789772.885   -18614598.59949 -14486557.22447  21789772.454    21789777.830
  21470499.520   -18340343.44849 -14275304.02247  21470498.953    21470504.325
  24469570.851    -1567168.17349  -1202162.84845  24469570.279    24469581.291
 03  4  2  3 20  0.0000000  0  4G25G11G14G31
  21267518.128   -20547429.74749 -15995024.26247  21267517.824    21267524.154
  21779598.447   -18668065.33449 -14528219.56847  21779598.008    21779603.362
  21482937.980   -18274978.84949 -14224370.56047  21482937.412    21482942.763
  24484743.570    -1487435.45449  -1140033.56645  24484742.965    24484753.960
 03  4  2  3 20 30.0000000  0  4G25G11G14G31
  21256806.552   -20603719.22449 -16038886.13447  21256806.249    21256812.575
  21769511.653   -18721071.66249 -14569523.15247  21769511.221    21769516.584
  21495413.816   -18209418.22649 -14173284.35647  21495413.195    21495418.541
  24499927.359    -1407644.80849  -1077859.14445  24499926.673    24499937.745
 03  4  2  3 21  0.0000000  0  4G25G11G14G31
  21246181.491   -20659554.30149 -16082393.92947  21246181.145    21246187.468
  21759512.863   -18773615.27549 -14610466.18547  21759512.423    21759517.786
  21507926.576   -18143662.89649 -14122046.42847  21507926.013    21507931.342
  24515121.653    -1327798.74349  -1015641.53545  24515121.045    24515132.136
 03  4  2  3 21 30.0000000  0  4G25G11G14G31
  21235643.194   -20714933.12549 -16125546.20447  21235642.860    21235649.145
  21749602.445   -18825694.52649 -14651047.37747  21749602.004    21749607.416
  21520476.121   -18077714.92649 -14070658.39247  21520475.495    21520480.842
  24530325.757    -1247900.43449   -953383.22645  24530325.239    24530336.378
 03  4  2  3 22  0.0000000  0  4G25G11G14G31
  21225192.088   -20769853.99549 -16168341.63247  21225191.746    21225197.972
  21739780.812   -18877307.34349 -14691265.12447  21739780.393    21739785.742
  21533061.922   -18011575.97349 -14019121.53047  21533061.322    21533066.673
  24545539.443    -1167952.45849   -891086.22045  24545538.987    24545549.958
 03  4  2  3 22 30.0000000  0  4G25G11G14G31
  21214828.323   -20824315.80549 -16210779.34847  21214827.980    21214834.160
  21730048.150   -18928452.57149 -14731118.51347  21730047.711    21730053.066
  21545683.717   -17945248.21449 -13967437.55147  21545683.054    21545688.389
  24560762.081    -1087958.36549   -828753.27145  24560761.498    24560772.519
 03  4  2  3 23  0.0000000  0  4G25G11G14G31
  21204552.192   -20878317.13449 -16252858.25047  21204551.854    21204558.001
  21720404.741   -18979128.75949 -14770606.40747  21720404.287    21720409.674
  21558340.902   -17878734.13049 -13915608.38247  21558340.292    21558345.627
  24575992.711    -1007921.58649   -766387.05545  24575992.114    24576003.100
 03  4  2  3 23 30.0000000  0  4G25G11G14G31
  21194364.138   -20931855.29949 -16294576.24547  21194363.817    21194369.934
  21710851.115   -19029333.05249 -14809726.60447  21710850.691    21710856.077
  21571033.418   -17812034.22949 -13863634.42247  21571032.835    21571038.147
  24591231.163     -927843.79849   -703988.88145  24591230.645    24591241.582
 03  4  2  3 24  0.0000000  0  4G25G11G14G31
  21184264.392   -20984929.83849 -16335932.97247  21184264.059    21184270.155
  21701387.531   -19079064.51449 -14848478.35547  21701387.093    21701392.498
  21583760.791   -17745151.38549 -13811517.91047  21583760.244    21583765.561
  24606476.767     -847729.07549   -641561.93145  24606476.171    24606487.050
 03  4  2  3 24 30.0000000  0  4G25G11G14G31
  21174253.383   -21037537.75349 -16376926.10147  21174253.060    21174259.133
  21692014.381   -19128320.41749 -14886859.54847  21692013.961    21692019.433
  21596522.772   -17678086.58949 -13759259.61247  21596522.229    21596527.567
  24621728.831     -767579.29949   -579107.68945  24621728.091    24621739.091
 03  4  2  3 25  0.0000000  0  5G20G25G11G14G31
  24723223.475    -3989774.98149  -2608651.74645  24723222.730    24723232.491
  21164331.034   -21089679.90249 -16417556.29447  21164330.709    21164336.773
  21682731.642   -19177101.47549 -14924870.72547  21682731.198    21682736.691
  21609318.657   -17610843.80449 -13706862.62547  21609318.100    21609323.412
  24636986.626     -687399.75449   -516630.24745  24636985.839    24636996.735
 03  4  2  3 25 30.0000000  0  5G20G25G11G14G31
  24706876.619    -4075677.14749  -2675588.31045  24706875.946    24706885.567
  21154497.994   -21141352.44949 -16457820.57047  21154497.676    21154503.757
  21673539.975   -19225403.81349 -14962508.87747  21673539.551    21673545.049
  21622148.487   -17543422.66249 -13654326.66147  21622147.909    21622153.210
  24652249.807     -607191.13249   -454130.11145  24652248.953    24652259.977
 03  4  2  3 26  0.0000000  0  5G20G25G11G14G31
  24690523.731    -4161610.37549  -2742549.12145  24690523.076    24690532.667
  21144754.943   -21192552.10449 -16497716.35447  21144754.651    21144760.755
  21664440.035   -19273224.14149 -14999771.43847  21664439.591    21664445.088
  21635012.178   -17475823.45149 -13601651.93747  21635011.583    21635016.868
  24667518.329     -526954.90449   -391608.49845  24667517.463    24667528.403
 03  4  2  3 26 30.0000000  0  5G20G25G11G14G31
  24674165.306    -4247574.95949  -2809534.34345  24674164.562    24674173.845
  21135102.011   -21243278.39849 -16537243.29147  21135101.744    21135107.833
  21655431.980   -19320561.73249 -15036657.83847  21655431.537    21655436.998
  21647909.224   -17408048.91949 -13548840.60347  21647908.655    21647913.938
  24682791.389     -446694.91849   -329068.36045  24682790.590    24682801.440
 03  4  2  3 27  0.0000000  0  5G20G25G11G14G31
  24657800.529    -4333570.69249  -2876543.86045  24657800.030    24657809.122
  21125539.436   -21293530.15549 -16576400.45347  21125539.114    21125545.210
  21646516.026   -19367415.28349 -15073167.05947  21646515.589    21646521.077
  21660839.198   -17340101.06849 -13495894.21447  21660838.664    21660843.930
  24698068.282     -366414.40949   -266512.24645  24698067.494    24698078.264
 03  4  2  3 27 30.0000000  0  5G20G25G11G14G31
  24641430.102    -4419597.16549  -2943577.35445  24641429.424    24641438.711
  21116067.425   -21343305.61149 -16615186.47747  21116067.111    21116073.217
  21637692.474   -19413783.17349 -15109297.84647  21637692.018    21637697.537
  21673801.935   -17271981.74349 -13442814.21347  21673801.340    21673806.633
  24713348.586     -286116.22949   -203942.34545  24713347.795    24713358.466
 03  4  2  3 28  0.0000000  0  5G20G25G11G14G31
  24625053.800    -4505653.87449  -3010634.39045  24625053.032    24625062.309
  21106686.304   -21392603.55549 -16653600.41047  21106685.985    21106692.052
  21628961.659   -19459663.55949 -15145048.76447  21628961.222    21628966.738
  21686796.849   -17203692.78749 -13389602.03147  21686796.263    21686801.537
  24728631.653     -205803.37149   -141361.01645  24728631.075    24728641.728
 03  4  2  3 28 30.0000000  0  5G20G25G11G14G31
  24608671.876    -4591740.78549  -3077714.93945  24608671.241    24608680.556
  21097396.346   -21441422.62949 -16691641.20048  21097396.017    21097402.020
  21620323.839   -19505055.49249 -15180419.06147  21620323.382    21620328.898
  21699823.720   -17135236.18049 -13336259.20747  21699823.125    21699828.392
  24743916.842     -125478.98649    -78770.69445  24743916.243    24743927.067
 03  4  2  3 29  0.0000000  0  5G20G25G11G14G31
  24592284.649    -4677856.94049  -3144818.30345  24592283.846    24592293.053
  21088197.855   -21489760.97249 -16729307.39348  21088197.515    21088203.477
  21611779.398   -19549956.78949 -15215407.05347  21611778.957    21611784.403
  21712882.161   -17066613.60949 -13282787.06047  21712881.555    21712886.831
  24759203.827      -45145.73149    -16173.49545  24759203.120    24759214.097
 03  4  2  3 29 30.0000000  0  5G20G25G11G14G31
  24575891.503    -4764002.05749  -3211944.20445  24575890.894    24575900.199
  21079091.061   -21537617.38949 -16766598.05748  21079090.719    21079096.652
  21603328.530   -19594366.18349 -15250011.73847  21603328.107    21603333.543
  21725971.866   -16997826.72649 -13229186.89147  21725971.253    21725976.540
  24774491.641       35193.36249     46428.28945  24774491.037    24774502.480
 03  4  2  3 30  0.0000000  0  5G20G25G11G14G31
  24559493.510    -4850174.88349  -3279091.72845  24559492.748    24559502.040
  21070076.365   -21584989.77649 -16803511.56048  21070076.030    21070081.909
  21594971.708   -19638281.71949 -15284231.59847  21594971.272    21594976.641
  21739092.528   -16928877.03449 -13175459.84947  21739091.930    21739097.211
  24789780.302      115535.96349    109032.78845  24789779.653    24789791.339
 03  4  2  3 30 30.0000000  0  5G20G25G11G14G31
  24543089.889    -4936375.58849  -3346260.93745  24543089.153    24543098.343
  21061153.863   -21631877.66349 -16840047.52148  21061153.537    21061159.379
  21586709.135   -19681701.97649 -15318065.52847  21586708.692    21586713.974
  21752243.764   -16859766.83849 -13121607.74247  21752243.165    21752248.473
  24805069.007      195878.46049    171637.21545  24805068.359    24805080.215
 03  4  2  3 31  0.0000000  0  5G20G25G11G14G31
  24526681.200    -5022602.78049  -3413450.79345  24526680.633    24526689.759
  21052323.977   -21678278.79949 -16876204.20348  21052323.670    21052329.505
  21578541.127   -19724625.05749 -15351512.04647  21578540.677    21578545.976
  21765425.376   -16790496.96149 -13067631.20247  21765424.810    21765430.107
  24820357.200      276218.76449    234239.93845  24820356.685    24820368.600
 03  4  2  3 31 30.0000000  0  5G20G25G11G14G31
  24510267.558    -5108856.63849  -3480661.40445  24510266.736    24510276.107
  21043586.883   -21724192.04649 -16911980.70748  21043586.608    21043592.451
  21570467.971   -19767049.97749 -15384570.38747  21570467.506    21570472.718
  21778636.957   -16721069.58649 -13013531.93847  21778636.354    21778641.623
  24835644.559      356553.61549    296838.39845  24835643.942    24835655.936
 03  4  2  3 32  0.0000000  0  5G20G25G11G14G31
  24493848.836    -5195136.31749  -3547892.13445  24493848.072    24493857.433
  21034942.951   -21769616.15049 -16947376.06548  21034942.642    21034948.497
  21562489.884   -19808975.18349 -15417239.35147  21562489.409    21562494.581
  21791878.203   -16651486.26949 -12959311.16847  21791877.617    21791882.919
  24850930.160      436880.27449    359430.48145  24850929.679    24850941.648
 03  4  2  3 32 30.0000000  0  5G20G25G11G14G31
  24477425.492    -5281441.51649  -3615142.73945  24477424.692    24477433.972
  21026392.197   -21814550.32249 -16982389.65848  21026391.902    21026397.786
  21554607.122   -19850399.21049 -15449517.77347  21554606.666    21554611.862
  21805148.672   -16581749.48149 -12904970.80647  21805148.110    21805153.379
  24866213.850      517195.44149    422013.60845  24866213.308    24866225.190
 03  4  2  3 33  0.0000000  0  5G20G25G11G14G31
  24460997.381    -5367770.11249  -3682411.59045  24460996.635    24461006.131
  21017935.415   -21858990.81449 -17017018.56848  21017935.106    21017940.999
  21546820.387   -19891318.76849 -15481403.11247  21546819.917    21546825.099
  21818448.417   -16511858.84449 -12850510.56347  21818447.853    21818453.120
  24881495.003      597498.08049    484586.96545  24881494.439    24881506.467
 03  4  2  3 33 30.0000000  0  5G20G25G11G14G31
  24444564.734    -5454123.48249  -3749699.73545  24444563.941    24444573.422
  21009572.339   -21902938.88349 -17051263.76848  21009572.016    21009577.932
  21539129.354   -19931734.80849 -15512896.09447  21539128.912    21539134.160
  21831776.743   -16441818.11849 -12795933.36147  21831776.156    21831781.417
  24896772.966      677783.10249    547146.59545  24896772.372    24896784.327
 03  4  2  3 34  0.0000000  0  5G20G25G11G14G31
  24428127.523    -5540500.90149  -3817006.61545  24428126.691    24428136.088
  21001303.324   -21946392.66049 -17085123.81248  21001303.001    21001308.930
  21531534.532   -19971645.66149 -15543995.42347  21531534.089    21531539.320
  21845133.303   -16371628.78749 -12741240.36447  21845132.729    21845138.028
  24912047.073      758047.97549    609690.53245  24912046.479    24912058.362
 03  4  2  3 34 30.0000000  0  5G20G25G11G14G31
  24411685.915    -5626901.38749  -3884331.48245  24411685.062    24411694.401
  20993128.584   -21989351.05149 -17118597.83748  20993128.260    20993134.193
  21524036.199   -20011049.39649 -15574699.60247  21524035.770    21524040.994
  21858517.865   -16301292.37149 -12686432.76347  21858517.243    21858522.558
  24927316.776      838290.26549    672216.85945  24927316.188    24927328.085
 03  4  2  3 35  0.0000000  0  4G20G25G11G14
  24395240.901    -5713319.96549  -3951670.45945  24395240.107    24395249.331
  20985049.137   -22031808.19149 -17151681.27648  20985048.873    20985054.796
  21516635.454   -20049940.32249 -15605004.19047  21516635.043    21516640.313
  21871930.965   -16230806.04249 -12631508.34047  21871930.388    21871935.691
 03  4  2  3 35 30.0000000  0  4G20G25G11G14
  24378791.950    -5799759.19549  -4019025.54545  24378791.175    24378800.322
  20977064.794   -22073766.12349 -17184375.72348  20977064.530    20977070.431
  21509331.957   -20088320.24949 -15634910.59747  21509331.520    21509336.799
  21885371.656   -16160174.66549 -12576470.89847  21885371.103    21885376.396
 03  4  2  3 36  0.0000000  0  4G20G25G11G14
  24362338.750    -5886221.47549  -4086398.60445  24362337.864    24362346.990
  20969175.051   -22115226.80349 -17216682.70048  20969174.782    20969180.648
  21502125.451   -20126190.64449 -15664419.96547  21502125.019    21502130.301
  21898839.142   -16089402.98149 -12521324.12547  21898838.509    21898843.777
 03  4  2  3 36 30.0000000  0  4G20G25G11G14
  24345881.504    -5972705.32849  -4153788.47545  24345880.528    24345889.386
  20961380.401   -22156187.96749 -17248600.44648  20961380.129    20961385.956
  21495016.321   -20163549.21849 -15693530.51547  21495015.890    21495021.159
  21912333.116   -16018491.85149 -12466068.69347  21912332.488    21912337.721
 03  4  2  3 37  0.0000000  0  4G20G25G11G14
  24329420.279    -6059208.96949  -4221193.75745  24329419.324    24329428.154
  20953681.268   -22196647.17749 -17280127.05648  20953680.969    20953686.749
  21488005.067   -20200393.77849 -15722240.53147  21488004.614    21488009.848
  21925853.475   -15947441.69049 -12410704.93147  21925852.848    21925858.100
 03  4  2  3 37 30.0000000  0  4G20G25G11G14
  24312955.566    -6145731.18649  -4288613.54945  24312954.562    24312963.391
  20946077.959   -22236602.75749 -17311261.22948  20946077.652    20946083.378
  21481091.918   -20236722.51649 -15750548.61147  21481091.470    21481096.695
  21939400.118   -15876253.30549 -12355233.46447  21939399.510    21939404.749
 03  4  2  3 38  0.0000000  0  4G20G25G11G14
  24296487.226    -6232271.84849  -4356047.68745  24296486.273    24296495.208
  20938570.608   -22276054.11849 -17342002.50448  20938570.289    20938576.017
  21474277.166   -20272534.21949 -15778453.80747  21474276.718    21474281.913
  21952972.614   -15804929.14349 -12299656.18947  21952972.014    21952977.275
 03  4  2  3 38 30.0000000  0  4G20G25G11G14
  24280015.802    -6318829.09849  -4423494.75945  24280014.985    24280023.861
  20931159.591   -22314999.15549 -17372349.23848  20931159.270    20931164.979
  21467561.143   -20307826.90549 -15805954.57447  21467560.697    21467565.886
  21966570.825   -15733469.55049 -12243973.38447  21966570.290    21966575.569
 03  4  2  3 39  0.0000000  0  4G20G25G11G14
  24263541.252    -6405402.98949  -4490954.81145  24263540.331    24263549.168
  20923844.911   -22353437.81049 -17402301.39548  20923844.594    20923850.300
  21460944.001   -20342600.07349 -15833050.52247  21460943.548    21460948.749
  21980194.404   -15661877.21349 -12188187.14847  21980193.838    21980199.097
 03  4  2  3 39 30.0000000  0  4G20G25G11G14
  24247063.504    -6491992.94049  -4558427.35445  24247062.598    24247071.481
  20916626.850   -22391368.63149 -17431857.83348  20916626.541    20916632.272
  21454425.975   -20376852.44349 -15859740.65247  21454425.530    21454430.761
  21993843.012   -15590153.35449 -12132298.42547  21993842.490    21993847.707
 03  4  2  3 40  0.0000000  0  4G20G25G11G14
  24230583.141    -6578597.43349  -4625911.22645  24230582.267    24230590.984
  20909505.744   -22428789.96249 -17461017.26648  20909505.441    20909511.175
  21448007.428   -20410581.84349 -15886023.27247  21448006.974    21448012.201
  22007516.418   -15518299.19549 -12076308.17047  22007515.894    22007521.106
 03  4  2  3 40 30.0000000  0  4G20G25G11G14
  24214099.980    -6665217.67649  -4693407.39045  24214098.978    24214107.446
  20902481.551   -22465702.17149 -17489779.98148  20902481.243    20902486.982
  21441688.294   -20443788.96149 -15911898.92447  21441687.838    21441693.020
  22021214.191   -15446317.64149 -12020218.65647  22021213.521    22021218.742
 03  4  2  3 41  0.0000000  0  4G20G25G11G14
  24197613.854    -6751851.92949  -4760914.43745  24197612.841    24197621.335
  20895554.533   -22502103.74649 -17518144.80248  20895554.219    20895559.956
  21435468.947   -20476471.67849 -15937365.94947  21435468.484    21435473.692
  22034935.952   -15374209.62449 -11964030.59347  22034935.202    22034940.450
 03  4  2  3 41 30.0000000  0  4G20G25G11G14
  24181125.457    -6838497.87249  -4828430.63445  24181124.596    24181132.883
  20888725.197   -22537992.12049 -17546109.72448  20888724.867    20888730.590
  21429349.907   -20508627.19249 -15962422.16547  21429349.450    21429354.679
  22048681.609   -15301975.10849 -11907743.95547  22048680.946    22048686.214
 03  4  2  3 42  0.0000000  0  4G20G25G11G14
  24164634.802    -6925156.34149  -4895956.59645  24164633.932    24164642.123
  20881993.388   -22573367.79749 -17573675.14348  20881993.077    20881998.785
  21423331.103   -20540255.95749 -15987067.92747  21423330.647    21423335.894
  22062450.881   -15229617.11349 -11851361.10847  22062450.183    22062455.452
 03  4  2  3 42 30.0000000  0  4G20G25G11G14
  24148141.936    -7011825.59049  -4963490.95545  24148141.100    24148149.372
  20875359.556   -22608228.47949 -17600839.26548  20875359.270    20875364.950
  21417413.010   -20571355.63549 -16011301.41147  21417412.544    21417417.839
  22076243.485   -15157136.33849 -11794882.57247  22076242.835    22076248.095
 03  4  2  3 43  0.0000000  0  4G20G25G11G14
  24131647.117    -7098505.21749  -5031033.43945  24131646.328    24131654.635
  20868823.858   -22642573.76449 -17627601.77848  20868823.554    20868829.209
  21411595.621   -20601925.81749 -16035122.30047  21411595.191    21411600.511
  22090059.142   -15084534.52749 -11738309.74047  22090058.520    22090063.742
 03  4  2  3 43 30.0000000  0  4G20G25G11G14
  24115150.517    -7185195.99349  -5098584.62045  24115149.580    24115157.886
  20862386.107   -22676404.19649 -17653963.11248  20862385.801    20862391.457
  21405879.021   -20631966.57649 -16058530.65847  21405878.609    21405883.949
  22103897.306   -15011814.59149 -11681644.85547  22103896.691    22103901.883
 03  4  2  3 44  0.0000000  0  4G20G25G11G14
  24098651.972    -7271895.87149  -5166142.91245  24098651.072    24098659.068
  20856046.658   -22709717.91549 -17679921.81448  20856046.370    20856052.005
  21400263.573   -20661475.80949 -16081524.83847  21400263.186    21400268.478
  22117757.894   -14938976.89749 -11624888.22147  22117757.255    22117762.446
 03  4  2  3 44 30.0000000  0  4G20G25G11G14
  24082151.961    -7358603.25849  -5233707.06945  24082151.054    24082159.191
  20849805.903   -22742513.07049 -17705476.44048  20849805.600    20849811.234
  21394749.708   -20690451.35649 -16104103.15647  21394749.303    21394754.574
  22131640.638   -14866022.33049 -11568040.51247  22131640.064    22131645.247
 03  4  2  3 45  0.0000000  0  4G20G25G11G14
  24065650.643    -7445317.93149  -5301276.90145  24065649.867    24065657.862
  20843663.886   -22774789.18649 -17730626.61748  20843663.602    20843669.247
  21389337.482   -20718892.95649 -16126265.41247  21389337.040    21389342.325
  22145545.316   -14792952.75449 -11511103.18047  22145544.738    22145549.979
 03  4  2  3 45 30.0000000  0  4G20G25G11G14
  24049148.166    -7532039.74649  -5368852.30645  24049147.292    24049155.109
  20837620.670   -22806546.47949 -17755372.51648  20837620.366    20837626.024
  21384026.973   -20746799.85149 -16148011.01547  21384026.527    21384031.796
  22159471.465   -14719770.43949 -11454078.00747  22159470.867    22159476.149
 03  4  2  3 46  0.0000000  0  4G20G25G11G14
  24032644.446    -7618766.65649  -5436431.67145  24032643.707    24032651.725
  20831676.492   -22837782.88149 -17779712.53348  20831676.231    20831681.888
  21378818.590   -20774170.26549 -16169338.58247  21378818.132    21378823.352
  22173419.053   -14646475.50849 -11396965.08347  22173418.412    22173423.692
 03  4  2  3 46 30.0000000  0  4G20G25G11G14
  24016139.952    -7705498.81049  -5504015.12345  24016139.103    24016147.205
  20825831.563   -22868498.19149 -17803646.50048  20825831.277    20825836.912
  21373712.192   -20801004.34049 -16190248.21847  21373711.747    21373716.939
  22187387.581   -14573070.42949 -11339766.32747  22187386.952    22187392.253
 03  4  2  3 47  0.0000000  0  4G20G25G11G14
  23999634.427    -7792236.17949  -5571602.60245  23999633.590    23999641.546
  20820085.767   -22898692.48849 -17827174.48748  20820085.455    20820091.072
  21368707.955   -20827301.58149 -16210739.54647  21368707.522    21368712.701
  22201376.623   -14499557.51049 -11282483.53847  22201376.027    22201381.263
 03  4  2  3 47 30.0000000  0  4G20G25G11G14
  23983128.309    -7878976.30149  -5639192.22445  23983127.496    23983135.392
  20814439.507   -22928363.55549 -17850294.76748  20814439.224    20814444.826
  21363806.350   -20853059.63349 -16230810.72347  21363805.905    21363811.051
  22215386.164   -14425936.70049 -11225116.66947  22215385.648    22215390.854
 03  4  2  3 48  0.0000000  0  4G20G25G11G14
  23966621.586    -7965719.72449  -5706784.40245  23966620.684    23966628.638
  20808892.673   -22957512.29549 -17873008.03548  20808892.374    20808897.946
  21359007.251   -20878278.79349 -16250461.98247  21359006.817    21359011.946
  22229415.756   -14352210.81649 -11167667.93647  22229415.206    22229420.383
 03  4  2  3 48 30.0000000  0  4G20G25G11G14
  23950114.448    -8052463.97649  -5774377.20845  23950113.612    23950121.691
  20803445.765   -22986135.88449 -17895312.09448  20803445.474    20803451.008
  21354311.151   -20902956.71549 -16269691.50447  21354310.728    21354315.836
  22243465.434   -14278379.53449 -11110137.06647  22243464.849    22243470.030
 03  4  2  3 49  0.0000000  0  4G20G25G11G14
  23933607.403    -8139208.26249  -5841970.03245  23933606.539    23933614.768
  20798098.855   -23014234.15749 -17917206.81848  20798098.546    20798104.060
  21349718.376   -20927091.98449 -16288498.17547  21349717.928    21349722.995
  22257534.859   -14204444.38449 -11052525.27247  22257534.220    22257539.453
 03  4  2  3 49 30.0000000  0  4G20G25G11G14
  23917100.536    -8225951.31949  -5909561.87445  23917099.637    23917107.955
  20792852.092   -23041805.80549 -17938691.19148  20792851.798    20792857.298
  21345228.929   -20950683.78849 -16306881.36847  21345228.496    21345233.562
  22271623.818   -14130406.51549 -10994833.43347  22271623.146    22271628.416
 03  4  2  3 50  0.0000000  0  4G20G25G11G14
  23900594.029    -8312693.08649  -5977152.72345  23900593.173    23900601.349
  20787705.509   -23068851.09149 -17959765.40748  20787705.221    20787710.719
  21340842.972   -20973732.16649 -16324841.11447  21340842.532    21340847.567
  22285731.987   -14056267.82549 -10937063.03647  22285731.299    22285736.553
 03  4  2  3 50 30.0000000  0  4G20G25G11G14
  23884087.820    -8399432.70349  -6044741.89945  23884087.101    23884095.323
  20782659.226   -23095369.44249 -17980429.02048  20782658.925    20782664.399
  21336560.534   -20996236.48649 -16342376.91647  21336560.087    21336565.104
  22299858.902   -13982030.14749 -10879215.50047  22299858.250    22299863.495
 03  4  2  3 51  0.0000000  0  4G20G25G11G14
  23867582.354    -8486169.86149  -6112329.14245  23867581.587    23867589.760
  20777713.170   -23121360.86649 -18000682.04948  20777712.869    20777718.339
  21332381.657   -21018196.29249 -16359488.42447  21332381.240    21332386.260
  22314004.288   -13907695.47049 -10821292.37747  22314003.687    22314008.881
 03  4  2  3 51 30.0000000  0  4G20G25G11G14
  23851077.326    -8572904.31849  -6179914.30745  23851076.563    23851084.666
  20772867.417   -23146825.35349 -18020524.47348  20772867.143    20772872.604
  21328306.585   -21039611.15249 -16376175.30247  21328306.161    21328311.150
  22328167.913   -13833265.54849 -10763295.04447  22328167.202    22328172.366
 03  4  2  3 52  0.0000000  0  4G20G25G11G14
  23834573.302    -8659633.04949  -6247494.99045  23834572.579    23834580.718
  20768122.393   -23171760.51249 -18039954.43648  20768122.118    20768127.559
  21324335.641   -21060478.54449 -16392435.58147  21324335.210    21324340.163
  22342349.642   -13758739.94149 -10705223.14046  22342348.984    22342354.166
 03  4  2  3 52 30.0000000  0  5G20G25G11G14G 1
  23818070.248    -8746356.42349  -6315071.52045  23818069.504    23818077.765
  20763478.115   -23196166.64249 -18058972.16748  20763477.793    20763483.221
  21320468.797   -21080798.84449 -16408269.55847  21320468.377    21320473.285
  22356549.115   -13684121.02149 -10647078.52846  22356548.474    22356553.690
  24627391.994    -4297015.71449  -3162980.66745  24627391.283    24627402.903
 03  4  2  3 53  0.0000000  0  5G20G25G11G14G 1
  23801567.655    -8833076.79149  -6382645.72945  23801566.978    23801575.330
  20758933.843   -23220046.81749 -18077580.06448  20758933.529    20758938.949
  21316705.553   -21100574.84249 -16423679.40447  21316705.102    21316710.023
  22370765.443   -13609413.30549 -10588864.72846  22370764.862    22370770.110
  24611916.233    -4378339.73749  -3226349.74545  24611915.586    24611927.107
 03  4  2  3 53 30.0000000  0  5G20G25G11G14G 1
  23785067.325    -8919786.63549  -6450211.73045  23785066.561    23785074.795
  20754491.046   -23243393.49149 -18095772.24748  20754490.755    20754496.182
  21313047.274   -21119799.15549 -16438659.36947  21313046.855    21313051.753
  22384999.722   -13534611.81449 -10530577.86246  22384999.118    22385004.365
  24596469.572    -4459511.27949  -3289599.99845  24596468.989    24596480.469
 03  4  2  3 54  0.0000000  0  5G20G25G11G14G 1
  23768568.870    -9006486.31649  -6517769.80745  23768567.984    23768576.081
  20750149.572   -23266208.02249 -18113549.77148  20750149.281    20750154.717
  21309493.874   -21138472.39549 -16453209.92347  21309493.445    21309498.343
  22399251.300   -13459719.09149 -10472219.88046  22399250.722    22399256.015
  24581051.906    -4540531.46649  -3352732.30445  24581051.272    24581062.542
 03  4  2  3 54 30.0000000  0  5G20G25G11G14G 1
  23752072.159    -9093175.54749  -6585319.76245  23752071.313    23752079.504
  20745909.295   -23288490.49749 -18130912.70948  20745909.026    20745914.498
  21306045.303   -21156594.69449 -16467331.17947  21306044.862    21306049.763
  22413519.925   -13384737.21749 -10413792.44646  22413519.293    22413524.539
  24565662.821    -4621400.39749  -3415746.76545  24565662.167    24565673.483
 03  4  2  3 55  0.0000000  0  5G20G25G11G14G 1
  23735577.850    -9179853.27849  -6652860.74645  23735577.032    23735585.145
  20741770.430   -23310240.31849 -18147860.58848  20741770.141    20741775.606
  21302701.738   -21174164.91249 -16481022.24147  21302701.337    21302706.264
  22427805.198   -13309667.58449 -10355296.61746  22427804.584    22427809.752
  24550302.509    -4702117.82949  -3478643.18445  24550301.840    24550313.171
 03  4  2  3 55 30.0000000  0  5G20G25G11G14G 1
  23719085.837    -9266518.78349  -6720392.22945  23719085.069    23719093.039
  20737732.867   -23331457.70649 -18164393.58648  20737732.586    20737738.041
  21299463.209   -21191183.56649 -16494283.51547  21299462.759    21299467.700
  22442106.830   -13234511.65849 -10296733.54346  22442106.253    22442111.474
  24534971.105    -4782683.69249  -3541421.50545  24534970.404    24534981.626
 03  4  2  3 56  0.0000000  0  5G20G25G11G14G 1
  23702596.392    -9353171.68449  -6787913.86345  23702595.575    23702603.474
  20733796.683   -23352142.49049 -18180511.56648  20733796.362    20733801.825
  21296329.719   -21207649.88949 -16507114.40247  21296329.278    21296334.246
  22456424.631   -13159271.17449 -10238104.59246  22456424.031    22456429.308
  24519668.570    -4863098.08249  -3604081.81145  24519667.887    24519679.015
